GFSNGP_500_spd_000.txt.gz
Wind_Speed
33 33 31 29 29 33 33 33 34 30 29 34 35 36 37 38 41 44 49 54 58 63 68 71 71 72 72 73 73 69 81 93 89 85 85 84 87 87 87 75 62 55 55 55
34 37 32 29 31 32 32 34 34 33 32 31 35 37 39 43 46 51 55 59 65 70 75 76 76 75 75 75 74 80 93 91 87 85 86 87 86 80 69 61 55 56 54 53
40 36 30 27 28 27 25 28 30 32 33 36 38 41 44 48 52 57 62 68 73 76 77 76 71 70 77 80 83 86 87 84 84 84 83 82 71 63 56 54 55 55 56 58
44 40 31 32 29 26 22 24 28 31 32 36 40 45 49 53 58 63 68 72 75 77 76 76 76 76 81 83 83 84 81 81 82 81 76 67 56 52 53 53 56 59 61 62
47 45 34 29 31 28 28 26 30 34 38 40 43 49 55 58 61 67 72 75 76 76 77 77 77 78 79 80 79 77 80 79 78 72 64 55 49 50 51 55 58 61 61 58
49 45 41 36 32 32 33 36 37 39 43 46 51 56 61 65 69 72 75 77 79 80 79 79 80 80 79 77 77 78 77 75 69 62 55 48 48 50 53 56 59 59 56 53
46 42 38 36 38 38 39 43 45 49 51 55 59 63 68 71 75 77 79 79 80 81 81 81 79 78 76 78 78 76 74 67 60 54 46 46 47 51 53 56 56 53 50 48
44 39 39 38 40 42 43 45 48 50 54 60 65 69 72 73 76 79 78 79 80 80 80 78 77 76 77 78 77 73 68 60 53 45 45 44 47 49 52 55 52 48 45 45
43 37 40 41 42 45 49 50 53 56 60 65 70 74 75 77 77 78 79 80 80 80 80 78 78 80 79 76 74 69 62 51 43 41 41 43 44 48 51 52 48 44 45 42
42 39 43 43 44 47 51 54 57 61 66 69 74 76 78 78 79 80 81 82 83 81 80 80 79 78 78 74 71 64 49 40 36 36 38 41 43 47 50 50 44 44 42 38
42 43 44 45 48 51 56 59 62 65 69 74 78 79 79 79 80 82 84 84 83 81 80 78 76 74 74 68 58 44 33 30 32 33 37 39 41 45 48 48 42 42 40 35
46 48 50 53 55 57 58 61 65 70 76 79 79 78 79 80 81 82 82 81 79 76 75 74 73 71 58 46 35 25 24 28 28 32 36 37 40 44 45 44 41 40 37 31
52 55 57 59 58 59 62 67 72 75 77 76 76 78 80 81 80 79 78 76 73 72 72 72 65 51 39 26 17 21 25 23 27 32 36 37 38 42 43 42 39 38 34 26
56 57 59 60 60 64 68 71 74 74 75 76 77 78 78 76 74 74 73 71 69 69 69 60 47 33 21 17 19 24 21 23 28 33 37 37 38 40 40 39 36 36 31 23
56 57 57 60 64 67 70 72 73 74 74 73 75 75 74 73 72 70 68 67 67 63 56 44 29 20 20 20 24 23 21 25 29 34 37 37 37 39 38 37 33 33 29 22
56 59 61 64 66 68 69 72 72 71 72 72 73 73 73 72 69 67 65 64 57 49 41 28 22 23 22 23 26 23 22 26 29 35 37 37 37 39 38 36 32 29 28 23
58 60 63 65 66 68 70 70 71 72 74 75 74 72 70 67 64 62 61 51 44 38 29 22 23 23 25 27 26 23 24 27 30 35 36 36 37 39 38 34 32 28 26 22
60 62 64 66 67 68 69 71 72 73 73 74 71 68 64 62 61 58 51 42 37 31 27 23 25 25 29 29 26 24 25 28 31 34 35 35 37 39 37 32 30 29 25 23
62 64 65 66 67 69 70 71 72 72 71 69 66 62 60 61 59 52 41 37 34 29 29 27 27 27 30 30 27 25 26 28 30 33 33 35 38 38 35 32 30 28 26 23
63 63 64 66 68 69 69 68 69 68 66 64 61 61 61 57 51 45 35 35 33 29 29 28 28 29 31 32 28 25 26 28 30 31 32 35 38 37 32 30 29 29 26 24
62 64 65 65 67 67 65 66 66 64 61 59 61 59 54 49 47 38 33 32 30 27 27 27 28 28 29 30 27 25 26 27 29 29 31 35 38 35 30 28 29 29 28 24
63 63 63 65 65 62 62 62 62 59 57 57 55 51 50 47 39 33 32 29 27 26 25 26 26 28 29 28 24 24 25 27 26 28 32 35 37 35 30 28 27 29 28 26
62 63 63 61 60 60 59 59 56 56 55 52 49 46 45 36 34 31 25 24 25 26 26 27 26 27 25 23 23 24 25 24 26 29 33 35 37 37 32 28 27 27 28 28
61 58 57 58 59 59 57 53 51 50 48 46 45 44 38 31 29 28 25 25 26 26 25 25 25 23 21 23 24 24 24 25 27 31 33 36 38 38 36 30 28 27 28 29
55 55 57 57 58 55 51 48 43 42 42 42 43 40 35 32 30 28 27 25 24 25 25 24 22 22 23 25 26 24 24 26 29 31 34 37 39 38 39 32 29 27 28 31
54 56 56 56 52 49 46 43 40 41 42 40 40 38 35 32 30 28 27 27 24 23 22 22 23 25 27 28 27 25 25 27 30 31 34 36 39 39 40 34 30 28 29 32
54 55 55 51 49 45 42 40 39 41 41 40 38 36 33 30 28 27 26 27 26 26 25 26 28 29 29 30 26 25 27 28 30 32 35 37 39 38 41 34 30 29 30 32

GFSNGP_500_spd_003.txt.gz
Wind_Speed
21 27 31 32 33 33 32 32 29 21 22 24 25 26 31 34 37 42 46 50 56 61 66 71 74 77 78 79 79 77 76 77 78 79 80 83 84 82 81 75 66 59 53 51
23 29 34 34 35 33 32 29 29 27 23 23 27 28 31 38 41 45 50 55 61 65 71 75 79 81 82 80 79 80 80 80 80 80 80 82 81 79 72 64 56 52 53 55
27 31 37 41 35 33 30 31 26 27 28 30 34 38 41 45 48 52 58 63 68 74 78 80 81 80 80 82 82 82 83 83 82 81 82 80 77 70 62 54 51 52 55 58
34 36 41 44 37 31 31 29 28 30 34 36 40 43 48 51 55 61 65 70 75 78 79 80 80 81 82 83 82 84 82 80 81 81 80 75 68 60 54 50 51 54 56 60
40 42 45 38 36 32 30 27 31 34 37 40 44 48 53 57 62 67 72 76 79 81 81 81 82 84 85 85 84 81 80 78 81 78 73 66 59 53 48 49 51 53 58 60
42 47 48 44 36 32 33 33 35 35 40 44 48 53 57 61 66 70 75 79 84 86 86 85 84 84 85 83 80 79 81 77 74 72 66 57 49 45 46 48 50 53 57 55
44 47 46 41 37 34 36 35 41 45 47 52 57 62 65 69 73 78 83 85 85 85 85 83 84 84 83 81 81 79 78 74 72 64 52 45 41 43 43 46 49 53 54 49
44 47 48 45 40 38 39 42 44 47 53 57 62 65 68 73 78 81 83 84 84 84 84 83 84 84 83 78 75 74 75 69 59 47 39 35 39 39 43 45 48 51 51 48
47 46 43 44 45 44 45 46 50 54 59 63 65 68 72 76 79 82 83 82 82 84 85 84 85 83 79 73 73 71 63 53 42 33 30 35 36 40 42 43 47 49 49 46
48 40 43 41 44 45 47 51 56 59 61 64 67 70 74 78 81 81 80 81 83 84 84 83 79 74 74 72 67 56 47 36 27 25 30 31 36 39 41 42 46 47 45 44
52 46 45 43 48 50 52 54 56 58 61 65 68 72 76 78 80 80 81 82 83 83 80 76 73 70 71 63 52 40 30 22 23 27 25 30 36 39 40 42 45 45 42 40
54 49 48 50 50 54 57 55 59 62 64 67 71 75 79 80 79 80 81 81 81 76 73 69 68 66 59 47 35 26 21 24 27 24 27 32 37 40 39 40 43 42 39 36
56 53 53 54 54 53 56 60 62 64 68 72 75 77 77 77 78 79 80 79 75 69 66 66 62 54 44 32 27 25 27 30 27 25 29 33 38 39 40 41 41 38 36 33
52 53 55 56 56 57 60 62 65 68 71 74 75 74 76 77 77 77 75 73 68 64 63 60 51 43 32 28 26 27 31 32 26 27 31 34 39 39 39 41 40 37 35 32
54 55 56 57 60 63 63 65 68 70 73 73 73 75 76 77 77 75 71 67 64 63 60 50 43 36 29 28 27 31 34 31 27 28 32 34 38 38 38 41 39 35 33 31
56 57 60 63 65 65 67 68 69 70 70 72 73 74 75 76 73 71 66 65 64 59 51 42 36 31 29 29 28 31 33 30 27 29 31 33 37 37 38 41 37 32 31 30
59 62 65 67 66 66 66 67 68 70 71 72 73 75 74 72 70 66 64 63 58 52 44 37 33 31 30 30 29 30 33 30 27 28 31 33 35 35 39 40 35 30 30 28
65 67 67 65 64 65 66 67 69 71 72 73 73 73 71 68 65 63 62 56 52 47 37 35 32 30 30 29 30 30 32 30 27 28 29 32 32 34 38 39 33 29 28 28
68 67 64 62 64 65 66 68 70 71 71 71 71 69 66 63 63 61 55 53 47 38 31 31 29 28 26 27 28 29 30 29 27 28 30 30 31 35 37 39 33 28 27 28
66 63 61 62 63 66 67 69 70 69 67 68 68 65 61 59 59 52 51 45 39 32 29 27 26 24 25 26 27 27 29 27 27 28 29 29 31 35 37 38 35 29 26 26
60 59 61 63 64 66 68 68 67 66 64 65 64 60 58 56 50 47 44 38 35 28 23 23 24 25 26 27 26 26 25 26 26 28 28 29 32 35 37 37 37 32 27 26
59 60 62 64 65 65 65 64 64 64 62 60 58 56 54 50 45 41 38 36 32 27 24 24 25 25 25 25 24 22 23 25 27 27 28 29 33 36 37 39 38 35 29 27
60 61 63 64 63 62 61 61 62 61 58 56 54 50 49 47 43 39 33 33 31 27 25 25 24 25 24 22 21 22 25 28 28 28 28 31 33 36 37 40 38 37 31 28
60 62 62 61 60 59 60 59 59 57 54 53 49 45 46 44 40 38 35 32 30 27 26 24 23 22 21 21 22 26 29 30 28 28 29 31 32 35 37 40 38 39 32 29
60 60 60 58 57 58 58 57 56 54 52 50 46 43 44 43 40 36 32 30 28 26 25 25 25 24 24 25 27 31 32 31 29 29 30 31 32 35 37 40 40 41 32 30
59 57 57 56 56 56 57 56 55 52 49 45 42 42 43 40 36 34 32 29 28 28 28 29 29 29 28 29 30 31 33 32 30 31 30 30 32 35 37 40 40 41 33 31
55 54 53 54 55 55 53 52 50 46 44 42 41 41 38 34 31 30 30 29 29 29 30 32 32 33 31 31 31 33 33 32 32 31 30 30 32 34 36 39 39 41 34 32

GFSNGP_500_spd_006.txt.gz
Wind_Speed
15 19 23 28 32 37 35 32 30 23 26 24 24 25 29 30 36 42 44 49 52 57 63 69 72 77 81 83 82 84 83 85 84 87 85 81 80 81 79 76 71 63 56 50
20 25 27 28 34 38 37 32 28 31 25 28 30 28 35 37 43 45 49 53 59 64 70 74 77 81 84 86 86 87 86 86 87 90 93 89 85 80 75 71 62 52 46 47
24 28 30 31 35 40 38 34 33 31 29 34 34 37 42 43 44 47 54 60 65 69 74 78 81 84 86 87 85 85 87 89 87 81 75 73 74 74 73 60 47 42 44 47
29 32 33 36 37 41 37 34 31 33 36 38 40 42 46 49 51 56 61 66 69 73 77 82 84 85 85 84 86 87 87 87 81 75 73 64 71 69 55 43 40 42 45 48
35 37 37 36 38 39 41 32 34 32 37 37 39 43 47 52 57 63 65 67 70 75 78 82 87 89 88 87 88 87 88 81 75 70 61 61 70 50 38 40 40 42 46 48
39 42 42 42 44 45 40 37 38 35 38 39 42 46 50 55 58 60 64 69 75 80 85 87 86 87 87 87 88 87 83 74 67 65 52 56 54 35 37 37 41 42 44 48
43 44 43 45 45 44 45 43 41 39 42 43 47 52 56 59 61 66 72 76 80 83 86 85 86 87 89 88 86 79 74 68 62 47 45 44 30 31 32 37 40 41 43 46
45 45 46 48 48 48 48 46 48 46 47 50 54 57 59 62 67 71 75 78 81 84 84 85 86 89 89 84 76 69 68 62 51 38 33 26 26 28 33 38 40 41 44 45
47 46 47 51 51 51 51 51 51 51 53 55 58 60 62 67 71 74 77 80 81 83 84 86 88 89 83 74 68 63 57 46 35 27 23 27 26 29 35 39 40 41 46 43
50 46 47 49 50 56 55 54 54 56 58 58 60 63 66 70 73 76 78 80 81 83 85 86 85 80 71 66 63 55 44 32 26 26 31 28 27 30 36 40 41 42 45 41
49 49 50 50 54 56 55 53 55 58 60 61 64 67 70 73 75 77 78 80 83 84 85 84 79 70 66 62 53 45 33 28 27 31 33 29 29 31 36 40 40 42 44 39
49 52 48 54 55 55 52 53 56 59 62 64 67 70 72 73 76 77 79 81 82 83 83 78 71 66 61 51 43 36 30 27 29 32 32 29 29 33 36 39 39 42 40 36
49 51 53 54 56 56 54 57 59 62 65 68 69 72 73 75 76 79 79 80 82 81 78 72 67 60 53 42 36 31 29 29 30 32 30 28 29 33 35 37 37 41 36 32
48 50 56 55 57 57 56 60 64 68 70 70 71 72 74 75 77 78 78 80 80 77 72 67 60 52 48 38 34 30 29 30 29 31 30 29 30 32 35 34 37 42 34 30
52 55 56 57 56 58 61 65 68 70 70 70 72 73 74 75 76 77 78 80 78 71 68 61 54 49 40 36 33 32 29 30 30 30 31 29 30 31 33 32 37 40 33 28
56 56 56 55 59 62 65 68 70 71 71 71 70 71 73 75 75 76 77 76 71 66 60 56 50 43 34 34 32 32 30 28 28 28 29 28 29 31 30 32 36 39 33 27
55 55 57 60 62 66 69 71 72 71 70 68 69 71 73 73 74 76 74 68 63 59 55 51 45 35 31 31 30 29 27 27 27 27 28 28 28 30 28 32 36 38 35 28
56 58 62 64 68 70 71 70 69 67 66 68 70 72 72 73 75 71 66 60 58 52 50 45 40 33 29 28 27 25 27 27 26 27 26 26 28 27 28 33 36 37 37 30
62 63 65 68 71 70 69 67 66 66 68 70 70 70 71 71 69 63 59 55 53 47 44 40 35 28 26 25 25 26 28 27 26 24 25 26 27 27 29 33 36 38 37 35
66 66 68 69 69 67 64 65 66 68 69 69 70 70 70 67 62 57 55 50 50 45 40 36 32 27 26 26 27 26 26 24 22 23 24 26 26 27 30 33 35 37 37 36
67 69 68 65 62 62 63 65 66 66 66 68 69 69 67 61 56 54 51 47 45 42 37 34 32 28 27 27 26 26 23 20 22 25 27 27 27 28 30 32 34 37 36 36
67 64 61 60 60 61 63 64 65 66 67 68 67 65 62 58 55 51 47 46 42 39 34 31 29 26 25 24 24 22 20 21 25 27 29 28 28 29 30 32 34 36 36 37
58 58 59 60 60 61 63 65 66 67 66 65 63 61 59 56 51 46 41 42 40 36 32 29 27 24 24 24 24 25 24 26 28 29 31 30 29 29 30 31 32 35 36 38
56 57 58 61 62 63 64 65 65 64 63 60 58 56 54 50 44 42 42 41 37 33 30 28 27 25 25 26 27 29 30 29 29 30 31 30 30 31 31 31 32 34 36 38
57 58 60 62 63 62 62 62 63 62 62 59 55 52 50 47 44 42 41 37 33 30 29 29 28 28 29 31 32 32 33 32 31 31 30 30 31 31 30 30 31 32 35 38
57 58 59 59 60 61 62 63 62 60 56 51 49 47 45 43 40 37 34 32 29 28 29 29 29 30 31 32 32 32 32 31 30 31 31 31 32 31 30 30 31 32 34 35
56 57 58 58 59 60 61 59 56 55 50 47 44 41 40 37 33 31 29 27 27 28 31 33 34 35 35 36 35 33 32 31 31 31 31 32 32 31 30 30 31 32 34 36

GFSNGP_500_spd_009.txt.gz
Wind_Speed
10 13 17 20 22 25 27 32 35 30 30 32 33 30 29 31 36 39 41 44 46 51 56 62 65 69 73 77 81 85 87 90 92 90 91 89 84 80 50 66 72 68 71 51
14 16 19 22 26 29 29 32 34 33 32 36 30 29 31 36 39 41 43 47 51 56 61 64 69 73 77 82 85 88 89 91 91 91 89 84 73 53 55 68 66 58 63 46
18 21 23 26 29 32 35 35 37 37 37 36 34 34 37 38 38 40 44 50 56 60 64 68 73 78 83 87 89 89 91 90 92 90 84 74 67 49 59 66 54 61 46 45
24 25 28 31 33 35 37 37 37 38 38 39 37 40 41 40 43 48 52 57 61 64 69 74 79 82 85 86 88 89 90 91 90 85 73 65 57 51 52 51 52 38 40 44
28 30 32 35 37 37 40 40 39 40 41 42 43 44 44 46 50 54 58 61 65 69 72 76 79 82 85 88 88 89 90 91 84 71 65 59 45 38 43 36 28 34 40 41
34 36 38 41 43 43 44 40 42 39 41 41 41 43 45 48 52 56 58 62 67 71 75 79 82 85 88 87 88 90 92 84 72 64 56 45 34 26 23 25 29 36 39 40
38 39 41 42 47 45 44 45 46 44 45 45 45 46 48 52 56 58 62 67 71 75 78 82 84 85 87 89 90 91 84 71 63 54 41 29 25 27 25 25 32 37 39 40
41 43 45 46 48 47 44 48 49 48 49 51 51 50 51 54 57 62 67 71 74 77 80 82 83 86 88 90 91 83 73 63 51 41 29 26 30 30 25 28 34 39 40 41
43 45 47 50 51 51 50 50 49 50 52 55 53 53 55 59 64 68 71 73 76 79 79 80 84 86 88 89 83 72 63 52 43 32 28 29 31 29 26 30 34 39 39 41
48 49 50 56 55 52 52 51 51 52 55 55 54 56 59 64 69 71 73 76 77 77 79 82 84 85 88 84 73 61 54 44 37 30 28 32 31 28 27 31 34 39 37 42
50 49 52 54 52 53 51 50 53 55 56 55 57 60 64 68 70 72 74 74 75 76 79 82 82 84 84 76 64 52 47 38 33 29 29 31 30 27 27 30 33 36 37 42
47 48 51 50 51 50 49 53 56 56 55 57 59 63 66 69 71 72 72 72 74 77 79 80 81 81 79 68 55 47 39 33 31 28 28 29 27 26 28 31 33 33 36 42
50 52 48 51 52 48 52 55 56 55 55 58 62 66 69 71 71 71 71 73 76 77 78 80 80 76 69 58 49 40 32 31 30 28 28 28 27 26 26 30 32 31 35 39
49 47 48 50 48 52 55 56 55 56 60 63 67 70 72 72 72 71 72 74 75 75 78 79 76 68 60 52 44 34 30 28 31 27 26 28 26 25 26 28 27 30 34 36
49 48 51 50 53 58 58 55 56 61 64 68 72 74 74 72 70 71 73 75 74 76 77 73 65 60 52 47 39 32 30 28 29 26 26 27 25 24 25 27 26 30 33 36
46 47 49 52 57 60 59 60 64 67 70 73 75 74 70 69 70 72 73 74 74 74 71 64 58 54 47 42 36 31 29 27 25 24 26 26 23 22 25 25 27 30 33 35
50 49 51 55 57 59 62 66 69 71 73 75 73 69 67 69 71 71 72 73 72 69 63 58 53 48 43 37 31 29 27 26 25 26 26 25 21 21 23 24 27 30 33 34
49 50 56 58 60 62 64 68 70 72 72 70 67 66 68 69 70 72 73 70 66 63 57 52 48 44 40 34 30 28 28 28 27 25 23 20 20 22 23 25 28 31 32 34
49 56 59 62 64 64 66 68 70 69 65 64 65 67 69 71 73 72 69 66 63 58 51 46 43 41 37 32 29 28 29 27 25 21 19 20 22 23 24 25 28 30 32 34
56 60 65 66 65 66 67 69 65 62 63 65 68 70 72 72 71 68 65 61 58 53 45 41 40 38 33 30 28 27 25 23 20 19 20 22 24 24 24 26 28 29 30 32
63 67 66 63 64 66 63 61 61 63 65 69 73 72 70 68 66 65 60 55 51 46 41 40 38 34 30 27 25 24 22 22 22 22 24 25 25 26 24 25 28 29 29 30
58 58 61 62 60 57 59 61 64 66 68 69 69 68 68 66 62 56 53 51 46 41 39 38 34 31 27 25 23 23 24 25 26 27 28 28 27 26 25 26 27 27 28 28
58 57 56 56 57 59 61 64 65 65 65 66 65 65 63 58 53 50 46 46 44 40 37 33 29 27 26 26 27 27 28 29 30 31 30 29 28 26 24 26 27 26 27 27
51 55 60 62 61 60 60 62 61 62 63 65 64 61 54 52 48 47 45 43 40 35 31 28 25 25 25 26 28 29 31 32 32 32 31 29 28 26 25 27 27 27 27 27
52 52 54 56 56 57 58 58 58 61 63 62 59 52 51 51 49 43 43 40 35 31 27 24 25 26 27 29 31 32 34 34 34 32 31 29 27 26 26 27 28 28 27 27
52 53 53 54 54 55 57 59 60 59 58 57 55 50 48 48 44 40 38 36 33 29 26 26 28 31 33 35 36 36 37 36 36 35 34 31 29 28 28 28 28 28 27 27
51 51 51 53 54 56 58 59 58 58 60 58 55 50 48 46 41 37 35 35 33 31 32 34 35 37 39 40 40 40 40 39 37 35 34 32 31 29 29 29 28 28 28 28

GFSNGP_500_spd_012.txt.gz
Wind_Speed
9 11 13 14 17 20 22 24 25 26 28 26 25 25 27 30 31 32 35 37 41 44 48 52 57 61 65 69 75 79 83 86 89 92 93 95 96 94 82 74 67 54 45 60
14 15 16 17 19 22 25 28 30 31 33 32 33 33 33 33 34 37 39 41 45 49 53 57 60 63 68 74 78 81 85 88 91 92 93 95 94 88 73 65 53 47 48 52
20 21 22 22 24 26 29 30 32 34 35 38 38 36 36 37 38 39 41 45 49 53 57 60 63 68 72 76 80 84 86 88 90 91 93 95 87 72 58 48 42 38 37 32
25 26 27 28 27 30 34 33 36 37 38 40 40 39 41 42 42 43 45 48 51 55 58 62 67 71 75 79 82 84 86 88 89 92 94 87 71 55 44 30 34 34 31 33
29 30 31 32 32 35 35 35 38 39 42 44 44 44 45 46 45 46 48 50 53 57 61 66 69 73 76 80 83 83 85 87 90 91 86 70 56 42 29 28 31 31 31 35
32 34 35 35 36 38 39 39 40 41 43 43 44 45 46 48 49 50 51 53 56 61 64 67 71 75 79 81 82 84 86 88 91 84 71 57 45 32 29 32 33 32 34 38
37 38 39 40 40 42 42 42 45 47 47 47 46 47 47 50 50 50 52 56 60 64 67 71 75 78 80 81 83 85 86 89 85 71 57 48 38 31 32 34 34 32 35 39
41 41 43 42 43 44 45 44 49 50 48 48 49 48 51 51 50 52 56 59 63 67 72 77 80 80 79 81 83 83 86 86 73 58 49 41 34 29 32 35 32 31 35 39
41 41 41 44 44 46 46 45 52 51 51 52 52 52 54 53 53 56 59 64 68 72 77 78 78 77 79 81 81 83 83 76 64 52 43 37 32 31 34 34 31 31 35 38
42 39 41 45 46 48 49 55 58 54 55 55 53 55 55 55 57 61 65 69 73 77 77 76 75 76 79 79 83 82 74 67 56 45 38 34 31 30 33 32 30 32 34 36
45 44 47 46 47 51 55 59 56 54 54 54 56 57 56 58 61 65 70 75 77 78 75 73 75 77 77 80 81 74 67 59 50 38 33 32 31 30 31 31 30 31 33 32
43 44 45 44 48 52 54 54 53 54 54 55 58 57 59 62 67 71 74 77 77 73 72 75 76 77 80 78 74 66 60 51 43 34 32 31 30 29 31 31 29 30 31 31
42 43 43 46 49 52 53 52 52 52 54 58 59 60 64 68 70 72 76 77 74 71 74 76 77 79 77 73 67 60 53 44 37 32 29 29 28 28 30 30 29 29 29 30
41 44 47 48 50 52 50 51 50 52 56 57 59 63 67 69 72 76 76 74 70 72 75 78 77 75 72 67 59 54 45 38 32 30 28 26 25 27 28 26 27 28 29 31
45 46 48 51 51 51 51 52 53 56 59 62 65 67 69 72 75 76 73 70 72 76 77 77 74 72 66 60 54 48 40 33 29 27 26 26 27 26 27 25 25 26 28 31
44 46 48 50 52 52 52 53 56 60 64 66 69 71 72 75 76 72 71 74 77 77 76 74 71 65 59 54 48 42 36 30 28 28 28 27 26 25 23 23 25 26 28 31
44 46 47 46 46 44 49 55 59 64 67 71 71 71 75 75 70 70 75 78 77 75 74 70 64 58 53 48 43 38 35 30 28 28 27 24 22 21 22 24 25 26 28 30
47 48 49 50 46 52 58 61 63 67 68 68 70 74 71 68 71 78 77 75 73 72 68 62 57 51 47 42 39 36 33 29 28 26 23 19 19 20 22 24 24 25 27 28
49 50 52 52 55 57 59 62 63 64 66 70 71 67 69 76 77 74 73 72 69 64 58 54 50 46 41 38 36 32 31 28 25 23 20 20 21 24 25 25 25 25 26 27
54 57 58 59 60 59 57 58 61 66 66 64 67 73 73 73 73 70 68 66 61 55 51 48 45 42 38 37 33 30 28 25 23 21 21 22 25 28 29 27 26 25 25 26
59 59 59 58 55 55 58 61 62 60 66 70 69 69 69 68 67 66 61 55 53 51 47 44 42 38 34 31 29 28 27 26 25 25 26 27 28 29 29 28 27 24 25 25
58 57 55 54 55 58 57 59 64 64 64 66 67 66 65 64 62 59 58 55 51 47 43 41 38 34 30 26 25 25 26 26 27 28 29 30 30 31 30 28 27 25 24 25
48 50 52 52 55 59 59 60 60 61 62 63 62 62 62 61 59 58 55 49 48 43 40 38 35 31 26 24 24 24 25 27 29 30 31 30 30 30 29 29 29 27 25 26
48 53 55 56 55 55 55 57 59 59 59 59 60 60 61 58 56 57 52 45 44 40 36 35 34 28 24 25 27 29 30 32 32 33 33 32 32 32 31 31 29 27 26 27
55 53 51 52 53 54 56 56 55 55 57 57 59 61 60 58 56 55 47 42 42 38 35 34 34 32 31 32 34 35 36 38 38 38 37 37 36 34 33 32 30 29 28 28
48 50 52 53 54 54 54 55 55 55 56 57 59 58 55 55 58 56 43 39 40 37 35 36 36 36 35 36 37 39 40 40 40 40 40 40 38 35 34 33 32 31 29 29
53 53 53 53 54 56 56 56 56 56 58 57 54 52 53 54 57 53 43 39 40 38 37 37 39 39 38 38 38 40 41 40 40 39 38 36 35 34 34 36 34 33 32 31

GFSNGP_500_spd_015.txt.gz
Wind_Speed
14 16 16 17 17 18 18 19 20 22 22 26 27 29 31 33 34 35 35 37 39 41 44 47 50 54 57 59 62 67 71 76 80 86 89 90 92 95 94 98 94 77 59 47
19 20 20 20 21 24 23 25 25 27 27 28 30 32 35 38 40 40 41 43 44 45 47 49 52 55 58 62 66 69 75 80 85 88 89 91 94 94 96 91 72 56 44 35
24 24 26 24 26 29 29 28 31 32 32 32 33 37 40 41 42 43 44 46 48 48 49 51 54 57 61 65 69 74 80 83 86 86 88 90 92 93 88 68 53 42 39 38
29 30 32 28 30 33 33 32 34 36 36 36 38 41 43 44 45 46 47 48 50 50 51 52 55 60 64 68 73 79 84 85 85 87 88 90 91 87 72 55 44 37 37 38
35 34 37 33 31 36 38 37 36 39 39 39 41 45 47 50 50 51 50 50 53 53 52 54 58 63 68 73 79 83 84 83 86 88 89 88 86 74 58 48 40 36 37 37
38 40 42 37 36 40 42 40 41 42 42 43 44 47 48 49 51 51 51 54 56 53 54 58 63 68 73 78 81 82 81 84 87 90 88 86 77 62 49 42 37 34 36 37
41 44 45 40 42 43 44 44 42 43 45 44 44 48 50 51 51 52 54 57 55 55 58 62 68 73 76 81 83 81 83 86 90 88 85 77 66 53 43 38 34 34 37 37
42 44 47 43 45 47 45 44 45 46 47 45 48 52 53 52 52 53 56 57 56 59 63 69 72 76 80 83 81 82 86 89 86 83 77 68 58 45 38 35 33 33 36 36
42 41 42 44 46 46 46 47 48 48 46 48 53 53 53 53 53 55 59 59 61 64 69 73 77 80 83 80 80 84 88 85 81 76 67 60 51 39 36 34 33 34 36 37
41 38 40 45 45 45 47 48 48 48 49 52 53 55 55 55 55 58 60 61 65 69 72 76 79 81 80 79 85 86 83 79 74 67 60 53 43 36 35 33 32 33 35 36
43 40 44 43 43 44 46 47 48 50 52 53 55 56 56 55 57 59 62 65 68 71 75 78 81 78 79 85 86 83 78 74 67 60 53 46 38 35 33 31 30 31 33 33
40 41 44 43 43 44 46 48 50 52 53 55 55 57 56 57 59 63 67 70 73 75 77 79 76 78 86 86 83 79 73 66 60 53 46 39 35 32 30 28 28 30 31 31
41 42 42 43 44 45 48 50 51 52 53 55 56 59 58 59 62 68 71 72 73 76 80 75 78 85 85 82 78 73 66 59 53 47 41 35 31 28 28 29 28 28 29 29
40 42 43 43 46 48 48 49 51 52 53 55 57 57 58 61 64 70 73 73 76 79 74 78 84 83 83 79 72 66 59 53 47 42 37 33 31 30 29 28 29 28 28 29
43 46 46 48 48 47 46 47 49 50 52 55 55 57 59 62 69 72 72 74 77 74 79 82 82 81 78 71 64 58 52 47 42 38 34 32 31 30 28 26 25 25 28 29
46 46 46 46 47 48 49 51 50 55 57 57 58 60 63 69 73 74 73 76 74 79 79 80 80 75 66 61 58 52 47 42 39 35 33 31 30 28 25 22 23 26 28 29
45 44 44 45 47 49 51 52 47 56 58 56 61 67 70 72 75 75 73 74 77 77 78 76 70 63 60 58 54 49 42 38 35 31 30 28 27 24 22 23 25 28 29 28
43 47 49 49 49 50 53 56 57 56 57 60 66 69 71 74 73 70 73 74 75 75 74 68 63 60 57 54 52 45 39 35 31 28 28 26 25 23 24 26 28 30 31 29
48 50 51 49 50 54 53 53 59 59 59 65 71 72 69 67 69 70 71 73 73 70 66 62 62 58 55 51 46 41 36 31 28 26 26 26 26 26 27 28 29 30 30 30
57 59 57 54 51 49 50 55 58 63 68 68 68 65 67 68 69 69 70 69 69 65 61 61 61 54 50 45 40 35 31 28 26 26 26 28 29 30 30 31 31 32 32 31
56 54 55 56 54 52 56 62 66 62 67 61 65 66 66 67 69 69 66 65 63 62 60 62 56 49 44 39 36 32 28 26 25 24 25 27 29 30 32 31 30 30 30 30
54 53 50 49 52 56 60 62 63 62 66 66 65 65 66 66 65 64 63 63 61 60 60 59 49 43 38 34 33 29 27 26 27 28 29 31 32 33 33 34 33 32 31 31
47 48 50 52 55 57 58 61 64 64 62 62 64 65 64 62 61 60 59 61 60 58 60 56 45 39 35 32 31 30 30 31 32 34 36 36 37 37 37 36 35 34 33 33
50 56 59 58 57 59 60 58 58 60 62 63 62 61 61 59 58 62 63 61 57 57 58 50 42 37 34 32 32 32 33 34 36 38 39 39 39 39 39 39 39 36 33 33
57 56 53 52 52 54 56 59 59 59 59 58 59 59 59 61 62 61 58 56 55 55 55 47 40 37 35 33 34 35 35 37 38 39 40 41 40 40 40 39 38 37 35 32
47 50 52 55 57 59 60 59 57 57 59 58 58 59 61 60 60 57 54 53 52 53 51 46 40 38 35 34 34 36 37 38 39 40 41 41 41 39 37 37 35 35 36 36
52 55 56 56 58 59 59 59 61 60 59 59 59 59 58 59 58 55 53 52 51 50 48 43 40 39 36 33 34 35 37 38 39 40 41 42 40 38 36 35 34 34 34 36

GFSNGP_500_spd_018.txt.gz
Wind_Speed
19 18 19 19 20 21 23 23 24 26 26 30 29 29 30 31 34 37 39 41 43 44 46 47 50 54 56 55 55 58 61 65 71 75 80 84 87 89 92 95 98 94 86 70
22 22 22 23 22 24 26 28 30 33 31 34 34 35 35 36 37 40 42 43 45 46 48 50 52 55 55 55 57 60 64 69 76 80 84 88 89 89 95 96 91 84 70 57
27 27 29 28 23 30 31 32 35 36 36 38 37 37 38 39 40 42 43 46 47 50 52 53 53 56 55 55 59 63 69 74 78 83 87 88 89 94 94 90 83 69 57 46
31 32 37 29 30 34 38 38 38 38 41 42 42 42 42 43 44 44 47 48 50 53 53 52 55 57 56 59 63 69 73 78 82 85 86 87 94 92 89 82 71 59 47 40
35 35 38 37 35 37 42 43 41 43 46 47 46 45 43 47 45 48 50 50 53 53 52 53 57 57 58 62 68 72 76 81 84 85 86 93 91 88 82 70 61 50 40 36
36 41 43 42 39 42 46 48 43 47 47 49 49 48 47 49 49 52 53 52 52 52 51 56 58 58 61 66 70 74 80 82 83 85 92 91 88 83 71 61 53 42 37 35
39 42 45 43 44 44 47 47 50 49 50 50 50 50 50 51 51 54 54 53 53 53 54 57 58 61 65 69 74 77 82 82 85 90 92 89 82 71 62 54 46 38 36 34
40 43 45 42 44 45 47 48 50 49 50 50 51 51 52 52 53 56 57 55 54 55 57 58 62 66 69 73 76 82 82 83 90 91 90 82 71 62 54 48 40 36 35 34
42 41 42 44 46 47 47 48 48 48 50 51 52 52 52 53 56 58 58 56 57 58 60 63 67 71 73 76 81 81 81 88 90 91 82 72 62 56 48 42 38 35 34 31
41 39 41 45 47 46 47 47 48 49 50 50 51 52 54 56 56 56 58 60 59 60 62 67 71 74 77 78 81 81 86 88 89 81 72 64 56 48 42 38 36 33 30 28
40 37 42 43 43 44 45 46 47 48 48 50 52 54 55 56 58 60 60 60 61 62 65 68 70 75 79 79 80 84 87 87 79 71 65 58 50 43 38 35 32 29 29 28
39 39 42 40 41 41 43 44 46 48 49 52 54 53 54 57 60 59 60 60 63 66 70 73 75 80 78 78 83 86 85 77 70 66 60 53 45 39 35 33 32 30 29 28
40 41 41 40 41 44 46 47 49 51 53 54 52 52 54 58 59 60 60 63 66 67 72 76 80 77 77 81 83 83 77 71 65 61 56 48 41 37 33 32 31 29 27 25
38 40 40 44 46 48 49 50 51 52 53 54 55 57 59 61 60 60 64 68 71 71 74 77 77 76 79 81 82 78 70 68 61 57 51 43 38 35 31 29 29 27 23 23
42 45 47 49 50 50 49 47 48 50 52 54 57 61 62 61 61 65 69 71 70 70 73 76 75 77 80 81 77 70 68 63 56 52 46 39 35 32 29 27 25 23 23 25
45 46 48 49 49 49 49 50 53 54 54 57 56 58 58 62 69 70 67 67 68 70 74 75 76 78 79 76 70 65 64 56 52 47 41 36 31 28 27 25 23 22 24 27
46 47 48 49 48 48 50 53 55 57 55 55 59 58 63 68 71 65 64 71 75 74 76 77 77 77 75 70 62 62 59 52 48 42 36 32 29 26 25 25 25 26 28 29
46 48 50 51 53 56 58 59 58 56 58 56 54 59 68 69 62 67 73 71 71 74 77 76 75 73 69 63 60 60 54 47 43 37 32 29 27 26 26 27 28 29 30 31
49 51 53 55 56 57 57 58 58 56 52 53 61 59 59 64 69 72 73 71 72 75 74 73 70 67 64 60 60 56 48 43 38 33 29 27 26 26 27 28 29 30 31 30
58 61 63 64 63 62 61 56 50 49 55 53 57 62 65 70 76 74 71 72 73 73 69 68 65 64 61 58 59 52 44 39 34 30 28 27 27 27 28 29 30 31 31 31
67 66 64 62 59 54 50 50 50 54 59 62 65 70 74 72 71 73 70 69 67 67 66 64 64 62 60 57 57 49 41 35 32 30 29 31 32 33 34 35 35 34 34 34
55 54 55 54 50 48 51 55 59 63 66 68 70 70 70 70 67 66 65 66 64 62 62 63 62 60 58 55 54 46 40 35 32 31 32 34 36 37 37 37 37 37 36 36
50 50 51 51 53 55 57 60 63 66 67 68 67 65 65 64 64 64 63 62 61 62 61 61 59 57 56 53 50 44 39 36 34 33 33 35 36 37 37 39 39 39 39 38
48 51 54 57 59 62 59 55 55 57 59 61 64 65 65 64 62 64 64 61 62 61 59 59 55 53 52 50 46 43 39 37 36 35 35 35 36 37 39 39 39 38 37 37
58 53 47 47 48 49 52 54 60 64 65 65 66 65 65 66 65 61 61 62 59 60 58 55 51 50 48 46 44 42 39 37 36 35 35 35 36 37 39 40 40 39 37 36
43 44 46 49 53 56 60 64 66 68 67 64 62 62 61 62 63 63 59 57 58 56 54 52 50 48 47 45 42 41 40 38 36 35 35 36 38 40 41 42 43 42 40 38
45 48 52 56 60 64 67 69 70 68 67 66 64 63 61 61 60 59 59 58 57 56 55 52 50 49 46 45 43 41 40 39 36 35 36 38 40 41 43 43 43 43 43 42

GFSNGP_500_spd_021.txt.gz
Wind_Speed
20 21 21 21 21 21 22 23 25 24 26 32 33 34 35 36 37 38 40 41 43 42 44 46 48 51 51 51 52 55 58 58 59 62 67 71 76 80 83 86 92 97 99 87
22 23 24 24 24 22 24 27 30 32 30 36 38 40 40 40 41 42 44 45 46 46 47 50 53 53 52 52 54 56 59 58 60 65 69 74 78 82 86 90 94 97 87 72
24 25 28 29 22 27 30 32 35 37 37 41 42 44 44 44 45 46 47 47 49 50 50 53 54 53 53 55 56 58 58 59 63 68 73 77 80 85 89 93 94 86 74 64
26 29 32 28 28 32 36 39 41 42 43 45 48 48 46 47 47 48 48 50 52 52 53 54 55 55 57 57 58 59 59 63 67 72 76 80 84 87 91 93 83 76 65 56
27 29 32 33 34 35 40 42 43 46 48 50 51 51 49 51 49 49 51 53 54 55 55 56 56 58 58 58 60 60 64 68 72 75 78 83 87 90 92 82 76 67 58 50
28 31 33 33 34 37 41 43 42 46 48 49 51 52 50 50 51 51 53 55 55 55 56 57 58 57 58 59 61 65 69 71 75 79 82 86 90 94 84 76 70 61 51 44
29 33 36 36 37 39 42 46 47 48 48 49 49 49 49 51 52 53 53 53 55 56 57 58 57 58 59 60 64 67 72 76 79 82 88 88 90 88 77 72 65 55 46 39
33 36 39 40 41 44 45 46 47 47 46 47 47 48 50 51 51 51 51 53 55 57 58 58 59 59 60 63 67 70 75 78 82 87 87 87 89 78 72 66 58 48 40 35
38 37 39 43 44 45 45 45 45 46 46 47 48 49 50 50 51 51 52 55 56 56 55 56 58 59 63 66 70 73 74 78 82 86 86 87 82 73 68 60 50 42 35 31
39 35 39 43 44 43 44 44 44 45 46 47 47 48 50 51 52 55 58 59 56 58 59 60 61 63 68 72 75 74 76 79 83 83 85 86 73 70 61 52 43 37 32 31
36 36 39 39 39 40 42 43 43 44 44 45 48 51 52 54 55 57 56 59 61 60 57 64 65 70 74 74 74 76 77 77 80 84 87 75 69 62 54 44 38 34 31 30
39 36 39 39 39 41 42 42 42 44 47 49 51 53 53 53 55 57 57 59 61 63 63 65 71 73 73 73 76 75 78 80 82 84 75 68 65 55 47 39 35 32 30 27
39 41 41 41 42 42 43 45 48 50 51 52 51 49 50 53 58 58 59 61 64 64 66 71 73 71 73 74 79 78 80 80 77 74 67 63 58 49 40 35 32 30 27 23
40 41 40 42 44 45 47 49 50 50 50 50 50 52 54 56 56 58 59 62 67 72 71 70 68 68 73 77 81 80 77 75 72 67 62 58 50 42 36 31 29 27 23 19
40 42 44 46 47 47 47 48 48 49 51 51 53 55 58 60 58 55 62 68 73 75 73 66 67 71 78 77 77 74 73 69 66 62 58 52 44 38 32 28 26 24 22 21
41 42 42 43 45 47 49 50 52 54 55 56 59 59 61 58 58 57 58 64 71 80 79 73 72 78 76 75 73 72 69 65 62 57 53 46 40 35 30 27 25 24 24 25
40 42 45 48 50 51 52 53 55 56 59 61 61 60 57 54 54 61 71 74 74 74 74 73 74 73 73 71 71 68 63 60 57 54 49 42 37 32 28 25 24 25 27 27
44 46 49 51 52 54 57 60 61 62 60 59 57 52 48 52 63 68 70 67 67 67 72 71 69 70 71 70 66 61 59 57 54 52 45 39 34 29 26 24 24 24 26 27
49 51 53 55 57 58 58 59 59 59 59 55 54 54 54 56 57 59 61 66 72 72 69 67 68 68 65 62 61 59 58 56 53 49 41 36 31 29 26 26 27 29 30 31
57 60 61 61 62 61 60 58 55 52 52 54 54 53 54 60 64 68 71 70 67 69 68 67 64 63 61 59 59 58 57 55 51 48 39 35 32 30 30 31 32 32 32 33
64 62 62 59 58 59 54 49 49 51 55 57 61 65 68 68 67 65 65 65 65 66 65 64 63 62 60 59 58 58 56 53 49 46 38 35 34 32 31 31 32 32 32 32
58 62 61 57 54 52 50 52 54 57 59 58 58 57 55 58 64 67 70 71 70 69 67 65 63 60 59 56 56 54 52 49 47 43 37 35 35 35 34 33 33 33 33 33
56 55 52 49 50 55 60 61 55 51 49 51 54 58 62 68 72 73 71 68 66 64 63 62 60 59 54 53 52 50 49 46 44 40 36 35 35 36 36 35 34 34 34 34
54 56 58 61 61 54 50 48 51 53 54 57 61 67 72 74 72 69 66 65 64 63 61 60 58 56 54 52 49 48 46 43 41 39 37 36 36 36 35 36 35 35 36 36
55 55 52 52 51 49 48 49 53 55 58 64 68 73 76 73 71 68 68 66 64 62 61 61 59 56 54 51 49 48 47 44 41 39 37 36 36 36 37 37 36 37 39 40
51 49 48 48 50 53 54 57 60 61 66 70 74 78 74 73 72 68 64 62 61 60 59 57 56 54 53 52 51 49 47 45 42 40 38 38 37 37 35 35 36 38 39 39
47 48 50 52 54 56 60 61 63 69 75 78 80 78 75 70 66 65 64 64 64 62 60 59 57 55 54 53 51 50 47 45 43 41 39 39 40 39 39 39 41 42 41 41

GFSNGP_500_spd_024.txt.gz
Wind_Speed
16 18 20 20 21 21 22 23 25 24 26 28 35 34 35 37 39 41 43 45 47 49 49 51 52 53 54 55 56 57 58 59 61 62 63 63 65 70 73 78 83 88 92 98
16 17 20 23 23 22 24 26 28 30 29 33 38 41 42 44 45 46 48 49 51 51 52 53 54 55 56 56 56 57 58 59 59 61 62 65 70 73 77 79 85 90 94 97
17 20 22 24 22 25 28 29 33 36 37 40 43 47 48 49 50 51 52 52 51 51 53 54 55 56 55 54 55 57 58 59 60 59 63 68 71 75 77 79 87 89 95 88
19 22 26 22 24 28 32 34 38 41 43 45 48 51 52 53 53 52 51 51 51 52 53 54 55 54 52 53 56 57 57 58 60 62 66 70 74 76 77 82 87 85 82 81
21 22 24 25 26 28 33 34 39 42 45 47 49 50 50 50 51 51 50 50 51 52 54 54 53 52 54 55 56 55 57 60 62 65 69 74 79 77 82 85 85 83 74 73
20 22 23 24 26 29 33 37 38 41 44 46 48 50 50 50 51 50 49 50 52 52 52 51 53 53 55 56 55 57 59 62 65 70 73 77 77 81 83 89 84 79 71 68
21 25 28 30 32 34 38 42 44 45 46 47 47 48 49 50 50 49 49 49 49 50 52 53 54 55 56 57 60 61 63 68 71 73 75 72 77 82 85 87 83 72 67 61
27 31 35 35 39 42 44 45 45 46 46 46 46 46 46 47 47 46 47 48 49 50 53 55 55 54 56 61 62 62 69 76 80 75 73 75 79 83 84 80 80 70 62 53
32 33 39 43 45 46 45 44 43 43 44 44 44 46 46 46 45 47 48 50 53 53 55 54 56 60 64 65 63 64 69 79 78 72 72 77 78 80 82 81 73 65 56 46
37 38 43 45 44 43 42 42 41 42 43 44 44 44 43 46 50 52 53 52 51 51 54 55 56 59 65 67 67 71 79 75 65 68 72 72 77 80 75 69 63 57 50 40
41 40 41 39 40 41 41 43 43 44 44 43 44 46 49 50 51 52 52 52 55 55 56 59 61 63 67 68 73 74 67 63 69 76 73 75 78 74 67 61 56 51 43 36
40 39 39 39 40 42 42 43 42 43 44 45 47 49 49 49 50 50 51 53 56 61 63 63 68 73 76 77 71 62 69 75 77 74 74 74 69 65 62 56 48 43 37 33
38 39 41 42 42 42 42 43 44 45 46 46 46 48 49 51 52 54 56 58 62 61 54 62 72 79 80 74 70 75 82 73 73 74 73 65 61 61 55 49 42 37 32 30
39 40 42 43 44 44 44 45 44 43 44 47 49 51 52 55 55 57 59 62 62 58 57 68 76 77 77 76 79 75 75 74 73 70 62 58 58 54 49 43 38 33 29 28
38 40 43 44 44 45 45 44 45 48 50 52 53 55 57 60 62 63 62 60 56 64 70 72 77 80 82 83 77 72 74 72 65 59 57 56 53 49 46 39 34 30 28 26
41 41 42 42 43 44 45 48 51 53 55 56 59 61 62 62 62 62 58 54 52 56 61 69 75 80 80 75 74 71 67 63 61 58 55 52 49 47 43 35 31 28 26 25
42 43 43 44 45 47 50 52 55 57 60 62 63 62 61 62 61 52 52 55 60 64 67 70 72 71 69 69 67 64 65 63 59 55 52 50 48 46 41 33 30 27 26 25
43 43 44 46 49 52 55 58 60 60 60 60 59 60 59 58 54 57 60 61 63 65 66 69 67 67 68 69 68 65 61 58 55 53 52 50 47 44 39 33 30 29 28 29
43 46 50 53 56 58 59 60 61 65 64 59 54 51 50 51 55 58 61 65 64 63 62 65 69 70 70 67 63 60 57 55 54 51 50 48 45 43 38 33 31 31 31 32
49 53 55 57 59 61 61 61 59 54 52 52 52 54 58 59 59 56 53 53 57 63 67 71 73 70 66 63 62 60 57 55 52 49 49 48 44 42 37 33 33 33 32 32
56 58 59 57 53 50 49 52 55 55 56 59 62 59 52 51 53 54 56 57 64 69 74 74 69 65 64 62 61 58 55 54 51 49 48 46 43 41 36 33 34 35 35 35
54 51 47 46 48 50 53 56 58 60 57 53 54 54 53 53 57 58 63 69 71 76 77 72 68 66 64 61 59 57 55 53 50 47 44 43 41 39 35 33 34 35 36 37
42 45 47 49 52 54 57 58 58 57 55 54 55 56 59 61 63 63 66 73 79 81 76 69 64 61 58 56 54 53 51 49 47 44 43 41 39 38 36 34 34 36 37 37
47 49 51 54 56 57 57 56 55 54 54 56 59 61 64 63 66 74 79 83 82 76 70 67 65 63 62 60 58 56 53 49 47 45 43 42 39 38 37 36 35 35 36 38
52 54 55 56 57 56 55 53 52 53 56 58 61 63 65 69 74 77 84 82 75 72 69 65 62 59 58 58 56 54 52 51 48 46 44 43 41 39 37 36 36 36 37 38
54 55 56 55 54 52 51 51 53 55 58 59 62 66 69 75 80 85 80 74 70 67 64 61 58 55 52 50 50 49 48 48 47 45 44 43 41 40 39 38 37 38 40 40
54 53 52 51 50 51 52 54 56 59 61 64 68 72 77 82 84 77 72 68 66 62 58 55 52 50 48 47 46 46 45 44 44 42 41 41 40 39 39 39 39 40 40 39

GFSNGP_500_spd_027.txt.gz
Wind_Speed
20 20 19 20 20 21 21 20 24 19 27 25 32 37 36 38 39 41 45 46 49 51 53 54 54 54 55 55 56 57 57 56 55 57 59 59 59 62 64 67 70 73 77 81
19 18 18 20 19 20 21 22 25 26 30 30 36 38 42 44 46 49 50 51 52 53 53 54 55 53 54 55 56 56 55 54 56 57 59 59 61 63 66 69 73 77 81 84
18 16 18 16 17 20 23 25 29 32 32 36 42 42 45 49 51 51 52 53 53 53 53 54 54 53 54 55 54 54 54 55 55 56 58 62 64 66 70 74 78 81 80 81
17 18 20 17 19 22 25 28 33 36 37 41 45 45 48 50 52 53 53 53 52 51 51 52 53 53 54 51 52 53 55 55 55 57 61 65 70 75 80 82 83 77 75 77
19 19 19 19 20 22 26 28 35 35 38 41 45 47 49 53 50 52 52 51 50 50 50 51 51 50 51 52 53 55 55 56 58 61 66 68 73 80 82 82 75 70 78 83
16 18 18 18 20 22 26 31 34 37 40 43 46 48 48 52 52 51 49 49 48 48 48 48 49 51 53 51 52 53 56 58 61 66 71 73 77 80 81 68 69 81 81 79
16 17 19 22 25 28 31 36 38 41 43 46 47 47 47 47 49 47 47 46 44 44 48 51 52 52 51 52 57 59 60 61 62 68 75 81 83 79 70 68 75 77 76 75
20 22 27 28 32 34 37 39 42 43 45 45 45 46 47 47 47 47 46 45 45 48 50 52 52 51 51 56 63 68 67 64 65 78 76 83 80 69 71 74 73 77 71 69
25 28 33 36 37 39 41 42 43 43 43 45 46 46 48 47 44 44 46 49 50 50 50 51 52 54 58 62 67 66 69 74 72 73 79 74 68 70 68 72 68 67 68 62
30 33 37 39 41 44 44 44 43 44 44 45 46 46 45 46 45 47 50 50 50 51 53 54 54 55 54 66 70 65 76 78 74 71 67 68 71 77 74 67 62 60 59 55
35 37 40 42 45 44 43 44 44 46 47 46 44 45 46 48 48 48 50 51 53 55 56 58 61 63 65 66 66 74 78 68 60 63 72 76 81 71 65 61 59 56 53 49
39 41 41 43 43 41 44 45 45 46 46 47 47 48 48 47 49 51 53 55 56 58 60 61 62 59 67 72 74 72 65 65 71 75 84 79 71 68 63 57 53 51 50 46
42 41 42 42 44 45 45 45 46 46 47 47 47 46 48 51 53 55 56 58 60 62 63 63 64 60 70 74 77 78 76 79 84 80 78 74 68 61 55 52 49 47 47 41
38 40 44 41 45 46 46 46 46 46 45 45 46 49 52 54 57 59 61 63 64 64 64 62 61 61 63 67 69 74 78 81 77 70 67 63 58 55 53 51 48 46 43 37
40 41 43 45 45 45 46 46 46 47 48 49 52 54 57 60 62 63 64 64 62 61 57 53 55 59 65 71 76 76 71 65 66 66 63 58 55 52 50 49 48 45 41 34
42 43 43 45 47 47 47 48 48 49 51 54 57 60 61 62 63 65 60 57 57 59 59 59 64 68 69 66 64 65 67 70 70 65 60 55 52 50 49 48 46 43 39 33
45 46 46 46 47 47 47 48 50 53 56 59 61 61 63 63 57 56 56 57 57 58 62 66 64 62 62 59 64 68 72 72 67 62 58 54 51 49 47 46 45 42 38 33
44 44 45 45 45 47 50 53 56 57 58 61 60 56 53 55 57 58 59 61 62 60 60 57 56 56 59 64 68 74 76 69 64 62 59 55 51 48 47 46 44 41 38 33
44 44 45 47 49 52 54 55 57 59 55 52 52 54 56 58 59 61 59 58 56 54 54 59 62 63 66 71 77 78 70 65 62 60 57 54 51 48 46 45 42 40 37 33
44 47 49 52 53 54 57 56 49 47 49 52 55 57 59 61 59 56 55 55 58 60 61 63 65 69 73 79 80 73 65 61 57 54 51 50 49 48 46 43 41 38 35 32
49 51 52 54 56 53 46 45 48 52 54 57 59 60 60 58 56 57 58 59 62 64 65 66 70 74 78 82 74 69 66 61 59 55 53 51 47 45 43 41 39 37 34 32
53 55 55 51 45 45 48 51 53 56 58 60 60 60 59 56 57 57 60 62 64 66 68 71 77 81 83 74 69 64 61 60 59 57 54 51 49 46 42 40 39 37 34 32
54 50 45 46 48 51 53 55 56 58 60 61 60 59 58 57 58 59 61 63 67 71 75 79 85 80 72 68 63 60 57 56 55 53 51 49 47 45 43 41 39 37 36 34
45 46 49 51 53 55 57 59 60 61 61 61 60 58 58 58 61 64 67 70 74 78 83 85 77 70 65 61 57 54 52 51 51 49 47 47 45 44 43 41 40 38 38 37
49 51 53 55 57 58 60 61 61 60 59 59 59 59 60 63 65 68 72 75 79 85 80 73 67 62 58 55 53 50 48 46 46 47 44 43 42 41 41 40 40 39 39 39
53 56 57 59 60 60 60 59 59 58 58 59 59 60 62 64 69 73 76 81 82 75 68 64 59 56 56 54 52 50 48 46 44 44 44 43 41 39 38 38 39 39 39 38
58 59 60 60 59 57 56 56 56 57 57 57 59 62 67 70 73 77 79 74 69 65 61 58 57 57 56 55 53 52 50 47 44 43 43 42 41 40 38 37 38 38 38 38

GFSNGP_500_spd_030.txt.gz
Wind_Speed
22 18 24 24 19 19 20 17 21 17 20 21 23 33 37 42 39 40 38 46 50 49 54 55 56 54 54 54 53 51 54 55 55 54 54 54 60 58 59 62 65 69 73 75
21 21 23 21 18 19 19 20 21 20 24 25 32 37 38 41 42 46 48 47 51 51 49 53 56 57 57 53 53 52 54 53 52 54 54 58 58 58 62 67 67 72 75 74
21 22 20 17 15 19 19 21 23 26 27 31 35 40 42 39 43 47 46 48 49 52 52 53 55 53 53 52 51 50 51 53 54 55 55 57 61 63 67 70 75 81 82 81
21 20 20 16 16 18 20 21 26 30 33 33 36 39 41 45 47 48 51 55 53 52 52 51 50 49 50 50 51 54 55 56 55 54 56 62 65 68 74 73 75 85 85 82
22 22 19 17 19 17 21 24 28 29 31 33 36 39 45 48 49 51 52 51 51 49 48 48 48 48 48 52 55 56 56 55 56 57 62 66 72 75 80 91 91 80 70 63
19 20 19 20 18 19 21 25 26 27 32 35 39 42 45 48 49 49 47 48 46 44 46 46 46 49 52 54 54 55 56 59 62 67 71 71 75 88 96 83 74 68 67 77
17 17 15 18 15 20 23 27 30 33 36 39 42 45 47 47 47 47 50 51 48 46 45 48 50 51 51 51 54 55 57 59 60 65 64 74 79 91 81 70 67 69 78 81
15 16 19 20 24 25 28 31 34 37 40 42 43 43 44 45 49 49 45 52 49 48 48 49 50 52 54 56 57 58 54 65 67 64 67 72 82 81 70 66 73 82 79 65
19 21 24 27 27 31 32 34 38 41 43 45 45 45 47 49 50 49 47 49 48 48 47 50 54 56 57 59 59 62 63 64 71 77 74 75 71 73 72 74 79 69 64 59
23 25 30 32 33 36 36 40 43 44 45 45 44 46 48 49 49 48 49 49 47 48 52 55 57 59 61 63 65 66 64 69 73 77 83 77 76 77 82 77 72 63 58 55
29 31 34 38 40 40 42 44 46 45 47 45 46 46 48 49 49 48 47 49 52 55 57 60 62 65 66 66 66 66 65 66 69 74 72 75 80 78 70 68 65 61 56 51
36 37 37 42 43 45 47 47 46 46 46 46 48 48 48 48 47 48 50 53 56 59 62 65 66 67 68 65 65 63 61 65 67 71 75 75 71 66 67 66 60 54 51 50
42 42 45 46 45 45 45 47 47 47 48 48 48 49 48 48 50 51 54 57 61 64 65 66 67 63 61 60 62 63 65 68 71 71 66 64 65 69 69 62 56 51 49 48
43 45 49 48 47 46 46 46 48 49 49 51 49 49 50 50 53 56 60 62 63 65 63 59 61 62 64 65 66 68 69 67 63 60 59 64 70 72 68 60 53 49 48 45
45 45 48 49 49 47 47 49 50 51 50 49 50 50 51 55 59 62 63 63 58 58 62 63 65 65 64 65 65 62 61 61 60 63 63 68 74 70 63 59 55 50 46 44
45 47 47 46 47 48 50 51 50 49 49 49 51 55 58 61 63 63 55 56 60 62 63 64 65 64 63 61 59 60 63 65 65 67 70 73 74 65 59 55 50 48 44 42
47 47 47 48 48 50 50 49 49 50 51 54 58 61 62 63 56 54 58 60 62 63 64 65 61 59 58 61 64 63 65 66 68 72 75 78 68 61 57 53 47 44 42 41
48 49 50 51 52 51 50 50 52 54 56 60 62 63 59 53 55 58 60 62 63 65 65 61 60 59 61 63 65 66 68 71 75 79 79 71 64 60 56 53 49 45 42 40
49 50 51 51 50 50 51 53 55 58 61 62 60 53 52 56 58 61 62 63 65 63 60 59 60 62 63 66 67 70 73 76 80 77 71 66 64 59 56 53 50 46 43 39
49 49 49 49 50 52 53 56 59 61 60 53 51 54 57 60 62 63 65 66 65 62 61 61 62 64 66 68 72 75 80 82 75 68 64 61 63 60 53 52 50 46 42 39
47 49 49 50 52 55 57 60 59 54 50 53 56 59 61 63 64 65 65 64 62 63 62 64 66 67 70 74 76 81 80 72 65 61 58 55 56 57 53 50 46 44 41 39
47 50 51 54 56 58 57 52 50 52 55 58 60 62 64 65 66 66 65 64 64 64 65 67 68 72 75 79 81 74 67 61 57 54 52 51 51 50 48 45 43 42 40 39
52 54 56 57 55 51 49 51 54 58 60 62 63 65 65 66 65 65 65 65 64 64 67 71 73 75 80 76 69 64 59 55 53 52 50 49 49 48 45 42 40 39 39 39
56 56 52 49 49 52 54 58 60 62 64 65 66 66 65 64 63 64 64 63 64 70 72 74 77 78 72 67 61 57 55 55 54 53 51 49 47 47 45 41 39 38 38 37
50 49 50 53 55 58 61 63 65 66 66 65 64 64 62 62 61 62 62 67 72 73 74 77 74 69 65 60 58 57 57 57 56 54 51 49 47 46 45 43 40 38 37 37
51 54 57 59 61 63 65 66 66 64 62 60 60 59 58 60 62 66 70 72 72 75 75 71 66 63 60 58 58 59 58 58 56 52 48 46 45 44 43 43 41 39 37 36
58 60 62 64 65 66 64 62 59 58 56 56 57 58 62 66 69 70 71 73 74 72 67 65 62 59 58 58 59 59 60 58 53 48 45 43 42 42 42 41 40 39 39 37

GFSNGP_500_spd_033.txt.gz
Wind_Speed
22 21 26 21 22 19 18 20 18 12 16 15 23 28 31 33 35 37 40 41 45 48 48 41 47 49 46 47 47 50 49 52 56 52 53 56 56 57 57 58 61 61 66 69
26 25 26 25 21 20 17 15 17 15 17 19 27 31 32 34 36 37 43 47 46 48 49 47 46 45 42 48 48 47 49 52 52 54 56 57 56 58 61 66 67 75 81 82
25 25 24 23 15 21 17 18 19 20 24 27 28 31 33 36 38 39 41 43 45 47 49 51 52 50 45 43 42 46 48 52 56 56 57 56 57 60 64 69 72 75 84 88
23 24 24 19 19 17 18 20 22 25 26 26 28 30 34 38 40 41 44 47 50 49 47 46 46 45 41 41 44 47 52 55 55 56 57 59 62 66 66 71 73 86 87 81
24 24 21 20 19 16 20 23 24 24 25 27 30 33 36 39 41 44 47 49 49 47 45 46 47 45 44 45 49 51 54 54 56 58 61 63 66 66 71 79 82 80 82 75
22 22 22 22 21 19 23 26 22 22 24 27 31 34 37 40 44 46 47 46 43 43 43 44 45 46 47 48 49 50 53 56 59 61 65 64 71 69 71 79 83 80 79 75
20 21 20 20 19 22 22 22 20 24 27 30 34 37 41 44 45 45 44 43 45 45 47 48 48 48 48 48 52 56 59 61 63 65 67 69 72 73 75 80 80 77 72 73
17 17 18 17 17 19 21 22 25 28 32 35 38 40 41 44 45 44 44 43 44 48 50 49 49 48 50 53 56 58 61 65 69 71 71 71 69 69 74 76 72 69 64 61
17 17 18 20 21 21 23 25 29 33 35 39 41 43 44 43 44 45 45 47 47 48 48 47 48 50 53 56 60 63 66 68 68 68 68 68 67 69 71 72 68 62 61 62
20 22 22 24 24 26 28 31 35 38 41 43 44 44 44 45 47 49 50 50 50 49 48 50 52 54 58 62 64 66 64 63 65 67 67 68 68 71 67 61 58 60 63 66
24 26 27 30 32 34 37 39 40 44 45 46 45 45 46 47 49 50 51 51 50 50 52 54 57 61 65 65 61 61 64 65 66 69 71 70 66 61 60 60 63 64 66 69
31 31 32 35 37 40 42 45 48 48 48 48 47 47 48 50 51 53 52 52 52 52 55 60 64 65 62 59 61 62 65 68 69 69 66 64 61 61 62 63 64 67 70 68
37 38 39 39 41 43 47 50 49 49 48 47 47 49 51 53 53 53 53 51 54 58 62 64 65 58 59 60 63 66 68 68 69 67 64 62 63 61 60 62 67 70 71 64
42 43 43 43 45 49 50 50 50 49 48 48 50 53 54 53 54 53 53 56 60 62 65 60 57 60 62 64 66 67 68 68 68 63 63 62 62 64 65 67 69 70 64 57
44 46 48 49 51 51 51 50 48 48 49 51 53 54 55 54 53 55 58 61 63 64 59 58 61 63 66 68 69 69 70 68 65 63 63 64 64 67 69 71 74 70 59 52
47 48 50 52 53 54 52 51 50 51 53 54 55 54 54 55 57 59 62 65 62 58 59 62 65 68 71 71 70 70 69 66 66 66 67 68 71 73 76 78 73 65 58 52
49 50 50 52 53 51 51 52 53 54 55 56 55 55 56 58 61 63 64 60 57 60 62 66 69 72 72 72 71 69 67 66 67 68 69 72 76 79 79 73 67 61 56 52
50 51 51 51 51 51 53 54 54 55 55 55 55 57 59 62 63 61 56 57 61 65 68 71 73 73 72 72 71 69 67 68 69 71 74 76 80 77 69 63 60 57 55 43
50 50 50 51 52 53 53 54 54 53 54 56 58 60 62 61 57 55 59 61 65 69 71 73 73 71 71 71 69 66 66 69 73 74 78 77 70 64 59 55 53 54 51 45
48 50 51 52 52 52 52 53 54 55 57 60 61 61 57 55 57 60 64 67 70 72 74 75 73 72 70 67 65 69 73 74 75 78 72 66 61 55 51 50 50 50 48 45
49 50 50 50 49 50 50 53 56 59 61 60 57 55 56 59 63 66 68 71 73 73 73 70 69 66 64 66 72 74 73 76 76 69 64 59 54 52 51 50 50 49 46 42
45 45 45 47 51 53 55 58 59 58 56 54 56 58 62 65 67 70 72 73 72 70 68 65 65 67 70 73 72 75 76 72 67 62 59 56 54 53 53 52 49 48 43 41
44 47 49 52 55 57 58 57 55 54 55 57 61 64 67 68 70 71 71 68 66 63 63 66 70 72 72 75 77 75 70 66 62 59 57 57 56 55 54 51 48 46 47 42
50 54 57 57 56 54 53 53 54 58 60 63 65 67 68 69 68 67 65 63 61 64 70 71 72 75 78 76 71 68 65 62 59 58 58 57 56 54 51 48 45 45 46 45
57 56 54 51 51 53 56 58 60 63 65 66 68 70 69 65 61 61 61 62 65 70 73 74 76 76 72 70 67 64 62 59 59 59 57 57 56 51 47 44 42 43 43 42
49 50 51 53 56 58 60 62 65 66 67 66 67 64 60 56 59 62 65 68 72 73 76 76 72 71 68 65 62 61 59 58 57 58 59 60 55 48 42 39 38 38 39 39
52 54 57 59 61 64 65 66 66 65 62 59 58 57 55 59 64 67 70 71 74 74 72 71 70 66 61 60 58 56 56 55 56 59 60 56 49 42 36 32 31 31 32 35

GFSNGP_500_spd_036.txt.gz
Wind_Speed
19 22 23 25 22 25 26 22 24 18 24 18 25 28 27 25 25 26 27 29 31 32 36 40 43 45 48 45 44 42 38 41 43 49 52 54 56 58 60 61 62 66 69 70
24 24 26 30 29 23 24 22 20 19 22 23 29 27 24 25 27 29 32 35 36 39 43 46 47 43 47 44 46 41 46 48 48 50 54 56 59 59 61 63 65 68 71 80
31 30 32 35 27 26 25 27 24 23 23 23 25 26 26 27 29 32 36 39 41 43 44 45 47 47 47 44 45 43 44 45 49 51 54 56 58 61 63 66 68 72 75 82
30 30 35 27 27 27 25 24 24 23 23 21 22 24 27 30 33 35 37 39 42 43 44 45 45 46 47 46 40 40 44 48 52 54 54 56 60 64 68 70 72 74 77 79
27 28 29 26 25 24 23 23 23 22 21 22 25 27 30 32 33 36 39 41 43 44 45 46 47 47 46 45 44 46 49 50 51 54 56 59 56 60 74 71 76 77 77 76
25 25 26 22 23 24 23 26 21 21 23 25 27 28 31 34 37 40 42 44 45 45 45 47 46 46 48 47 47 48 48 50 53 56 53 64 66 70 69 71 73 75 77 72
24 25 24 19 22 25 26 21 21 23 25 26 29 32 34 36 39 42 44 45 45 45 47 47 49 49 49 49 48 49 50 55 59 62 64 65 64 66 69 71 74 73 72 68
21 20 18 19 21 22 21 20 19 23 26 29 31 33 36 40 43 44 45 45 46 47 48 50 51 53 52 51 51 52 55 59 62 64 62 62 65 67 70 72 73 72 65 62
19 16 17 17 16 17 18 20 23 26 29 32 34 37 40 43 45 46 46 47 48 48 50 52 54 52 51 51 52 56 60 63 63 60 62 64 68 70 71 72 72 67 62 61
20 17 18 18 18 20 22 25 28 31 34 37 39 42 44 46 46 47 47 48 50 51 54 55 53 53 52 54 58 62 63 60 59 62 66 69 71 72 72 72 68 66 64 61
23 20 22 23 24 27 29 31 34 37 40 42 43 45 47 48 48 48 49 50 53 55 54 53 53 53 55 59 62 61 58 60 63 67 70 71 72 73 73 71 68 66 64 64
28 28 28 30 32 33 36 39 42 44 46 47 48 49 51 51 51 51 52 54 56 56 55 53 54 57 60 62 61 58 61 65 68 70 72 73 74 73 72 70 68 66 67 67
32 33 35 36 37 39 41 44 46 48 49 50 51 53 53 52 52 53 55 57 57 55 55 56 59 61 63 59 58 61 64 68 71 74 76 76 76 74 71 66 67 67 68 71
37 37 39 41 43 44 46 48 50 50 51 53 53 53 53 53 55 56 57 57 56 56 58 60 63 63 61 59 61 65 69 72 75 76 76 76 74 73 71 69 67 66 70 74
45 45 46 46 47 48 50 51 51 53 54 53 54 54 55 56 57 58 58 58 58 59 62 64 64 61 60 63 67 71 74 77 79 80 81 80 75 70 68 68 71 72 74 75
50 50 49 49 50 51 51 52 53 53 54 55 55 55 57 57 58 58 58 59 61 63 65 64 61 61 64 68 72 75 77 79 80 81 78 74 69 68 71 74 73 74 72 65
47 50 51 51 50 51 52 53 54 54 54 55 56 56 57 57 58 58 60 62 65 65 62 60 62 66 70 73 77 79 81 81 81 79 73 69 72 74 73 73 74 68 63 57
48 48 48 49 50 52 53 53 54 54 55 56 57 57 58 58 59 61 64 66 63 61 61 64 68 72 76 79 80 81 81 79 75 70 71 72 72 73 75 71 64 60 55 50
46 47 49 50 51 52 52 52 53 55 55 56 56 56 58 60 63 65 63 61 60 63 66 70 73 75 76 79 79 78 74 71 72 72 73 75 76 73 66 62 58 55 52 51
49 49 49 49 50 51 52 54 55 54 52 53 56 59 62 65 64 60 59 61 65 68 71 73 76 78 79 77 74 70 71 72 73 76 77 74 68 65 61 56 54 51 51 51
44 45 47 50 52 53 53 52 50 52 56 58 60 65 64 60 59 61 64 67 70 73 75 76 76 74 71 69 69 72 73 76 78 74 70 70 66 61 58 55 53 51 50 51
45 47 50 52 51 49 48 51 55 57 58 62 65 60 59 60 62 65 68 71 73 75 74 71 68 67 68 69 71 74 78 76 73 74 71 65 61 58 56 55 52 51 50 50
49 50 48 46 46 49 53 55 56 57 63 59 58 59 61 64 67 69 71 73 72 69 66 64 65 68 70 73 76 75 72 74 72 66 62 61 60 58 55 52 52 53 50 47
47 48 48 50 52 54 57 62 61 58 57 58 61 63 65 67 69 71 70 67 64 61 62 66 70 72 75 75 72 72 72 67 63 63 61 59 57 56 55 58 58 52 46 42
51 52 54 58 61 63 58 56 57 59 61 62 64 66 67 68 65 64 62 61 60 63 67 71 73 74 73 73 73 71 67 63 63 60 57 56 55 58 62 60 52 43 37 34
57 59 58 56 55 55 56 59 61 62 64 65 66 66 63 59 60 59 59 61 65 69 71 74 75 76 77 76 72 67 62 60 58 55 54 54 57 61 56 48 41 36 32 28
56 55 54 55 57 60 61 64 65 66 65 64 61 57 55 57 59 61 64 68 69 71 73 76 79 80 78 71 63 59 57 55 53 52 52 54 57 52 45 38 34 31 29 26

GFSNGP_500_spd_039.txt.gz
Wind_Speed
17 18 22 24 26 29 28 25 26 23 24 23 31 31 30 29 23 21 21 22 26 26 26 29 32 33 33 33 36 39 40 37 47 45 47 53 53 55 56 60 60 60 63 66
22 21 23 27 28 29 25 26 29 28 28 28 30 31 27 25 25 25 24 27 29 30 31 34 36 39 42 44 44 44 44 48 51 46 51 53 54 57 60 60 62 64 65 69
25 26 28 31 29 30 31 31 32 34 30 28 27 29 27 26 25 27 29 30 31 33 35 38 41 44 47 46 46 47 47 50 50 48 52 57 59 57 56 59 62 67 69 69
30 31 35 28 30 32 34 33 32 35 28 25 25 25 26 26 27 29 30 32 33 36 39 42 45 47 46 46 48 48 50 51 50 53 54 55 56 56 59 63 64 65 73 73
33 32 31 29 28 29 29 31 28 27 26 25 24 24 26 27 29 30 31 33 36 39 42 45 47 47 46 47 47 49 52 53 53 52 52 53 50 55 65 70 68 66 69 72
33 33 32 24 28 25 28 30 25 23 22 23 25 28 28 29 29 31 33 36 39 42 45 46 46 46 46 47 49 52 53 53 51 50 49 51 58 65 66 63 66 68 70 73
33 33 30 24 25 28 29 20 21 23 25 27 27 28 27 28 31 34 37 39 43 45 46 46 46 46 47 49 52 54 53 51 51 51 55 59 62 63 62 65 67 70 74 77
31 30 28 22 25 24 20 20 20 23 25 26 27 27 29 32 34 37 40 43 45 46 46 47 47 48 50 52 54 53 52 51 53 56 60 62 60 60 63 67 71 75 77 76
29 26 24 20 20 19 18 19 20 22 24 26 27 29 32 34 37 40 42 44 47 48 49 49 49 51 53 55 56 54 53 55 58 61 62 59 60 63 68 72 76 77 76 76
28 23 20 18 17 18 19 21 23 24 26 28 31 33 36 38 41 43 46 47 49 49 50 51 52 54 56 57 57 57 57 60 62 63 61 61 64 69 73 76 77 78 78 77
29 25 22 22 22 22 22 24 26 29 31 33 36 38 40 42 44 47 49 50 51 50 51 53 55 58 59 59 58 59 61 63 64 62 62 64 69 74 77 78 79 80 79 77
30 30 30 28 28 27 28 31 33 35 37 39 42 44 46 48 49 50 51 52 52 53 54 57 58 59 59 58 60 63 65 66 65 64 66 70 74 76 78 79 80 79 77 73
35 35 34 34 34 35 36 37 39 41 43 45 47 50 51 51 52 53 54 54 54 56 58 59 60 60 60 62 64 67 67 64 63 66 71 75 78 80 81 80 79 73 67 67
41 40 40 40 40 41 42 44 47 48 50 50 52 52 52 53 54 54 55 56 58 59 60 61 61 61 63 66 68 66 64 65 67 71 75 78 81 84 86 85 79 69 65 68
43 44 44 44 45 46 48 50 51 52 53 53 53 53 53 54 55 56 57 58 59 61 61 61 62 64 68 68 65 65 66 69 73 76 80 84 86 85 80 75 73 71 68 68
43 45 47 47 49 50 50 51 52 52 53 53 52 53 55 56 57 58 59 60 61 60 61 63 66 70 69 66 65 68 71 74 78 81 84 84 81 76 75 74 73 75 74 69
44 45 46 47 48 48 51 51 50 51 52 53 54 55 56 57 58 59 60 59 58 61 64 68 70 67 64 66 69 72 76 79 82 83 82 78 75 74 74 76 77 71 66 64
46 46 47 47 47 49 50 50 52 53 54 55 56 56 57 59 59 58 57 59 62 65 70 69 65 66 68 71 74 77 80 82 82 78 75 74 74 77 78 73 71 69 64 57
41 43 42 44 48 50 52 53 54 54 55 56 57 58 59 59 57 58 61 64 66 71 68 66 68 70 73 75 78 80 80 77 73 73 73 76 76 72 72 72 66 60 56 53
42 44 46 48 50 52 52 51 52 53 55 57 58 58 57 57 60 63 66 68 71 68 67 69 71 73 76 78 78 75 71 71 72 74 76 72 71 71 68 64 62 60 57 52
42 43 45 47 49 48 48 51 53 56 57 57 56 57 58 61 64 67 70 71 68 68 70 73 75 77 77 74 69 68 69 72 76 75 73 74 71 69 64 63 62 58 52 48
43 44 44 45 47 50 52 54 55 55 54 55 57 60 63 65 68 68 67 67 69 72 74 76 76 74 70 66 67 70 74 74 75 77 77 73 67 62 61 61 59 55 53 54
40 44 49 51 51 52 53 53 53 54 56 59 62 64 67 67 66 65 68 69 71 73 74 72 69 65 64 68 71 73 74 76 78 78 72 65 60 58 57 57 56 55 58 57
49 52 52 53 51 52 53 54 55 59 61 65 67 68 65 65 67 68 70 71 71 71 68 66 62 64 68 72 72 74 77 78 74 70 63 58 57 56 55 54 54 54 52 48
53 52 52 53 54 55 57 60 62 65 66 65 63 64 66 67 68 70 71 69 67 64 61 62 65 68 70 70 74 76 76 69 65 62 57 54 53 52 51 52 49 46 44 41
53 53 55 56 59 61 63 65 63 61 61 62 64 66 66 67 69 67 63 61 57 58 62 65 68 68 69 73 75 74 66 64 63 58 53 51 49 49 49 47 44 42 40 37
54 56 59 62 63 61 60 59 61 63 65 66 67 67 68 66 62 58 56 59 61 63 65 68 66 68 72 75 74 67 63 62 59 54 50 46 46 45 45 42 41 39 36 34

GFSNGP_500_spd_042.txt.gz
Wind_Speed
20 25 28 31 32 30 28 25 25 19 22 20 24 27 29 32 26 23 23 23 24 26 29 33 33 33 32 33 34 34 37 37 40 42 47 49 51 55 57 59 60 63 67 63
22 23 24 26 25 27 29 29 25 27 25 23 25 28 28 28 26 24 24 26 27 29 31 33 32 30 33 36 38 41 42 42 43 46 48 51 54 55 55 56 63 58 61 64
25 25 26 26 22 26 29 28 30 30 26 28 29 27 28 29 28 26 27 28 30 30 32 32 31 33 36 39 42 44 46 46 47 48 50 53 55 57 55 56 55 55 62 62
28 27 29 21 22 27 31 31 34 34 32 30 31 26 27 27 25 28 29 31 31 31 30 31 34 36 40 43 45 47 47 48 48 50 53 55 56 56 55 52 59 59 66 75
31 27 29 25 24 26 30 31 32 33 33 30 28 26 26 25 27 28 29 30 30 30 32 34 37 40 44 46 47 48 48 49 50 53 55 57 57 56 54 54 57 63 71 73
30 29 29 27 27 29 33 30 26 28 27 26 24 25 26 27 28 29 30 30 31 33 35 38 40 43 45 46 47 48 49 51 53 55 56 57 56 55 57 60 64 66 68 69
29 30 30 29 30 31 33 22 26 25 25 25 27 28 28 29 29 28 29 31 33 35 38 40 42 44 45 46 48 50 51 53 54 56 56 55 56 58 61 64 66 67 68 70
30 32 29 28 30 29 27 26 26 25 26 27 28 28 28 26 27 28 30 32 35 38 40 42 44 46 48 50 51 52 53 54 55 55 56 57 59 62 65 66 66 67 69 72
32 29 29 28 26 26 25 23 22 23 24 25 24 24 25 26 29 31 34 36 39 41 44 46 48 49 51 52 52 53 55 56 57 58 58 60 63 66 68 67 67 69 72 76
32 29 27 26 24 23 22 20 20 19 20 21 23 25 28 30 33 36 38 41 43 46 48 50 51 53 53 54 55 56 57 59 60 60 61 64 68 69 68 67 69 73 77 81
36 31 27 25 25 26 23 22 22 22 23 25 27 29 32 35 37 40 43 46 48 50 52 53 54 55 56 56 58 59 61 61 61 63 66 69 69 67 68 70 75 78 82 85
33 27 33 29 28 28 28 27 28 29 30 31 33 35 38 41 44 46 49 51 52 53 55 55 56 57 58 59 60 61 60 61 64 68 70 70 68 68 72 75 78 82 84 86
38 36 37 35 33 32 33 33 33 35 37 39 42 44 47 49 50 51 52 54 54 55 57 58 58 59 60 61 61 60 62 66 70 71 69 69 71 73 74 77 81 82 82 79
37 42 42 40 37 39 40 40 41 42 45 47 49 50 52 52 52 52 53 54 55 57 58 59 60 61 62 60 61 64 68 72 71 69 70 73 76 80 83 86 86 83 79 76
40 41 42 43 45 44 46 48 48 49 50 51 52 51 51 51 52 53 54 56 58 59 60 61 62 62 60 62 65 68 73 72 71 72 75 78 82 84 86 86 83 82 79 76
43 38 38 42 45 44 44 47 50 50 54 50 50 51 51 52 54 55 57 58 58 60 61 63 62 61 64 67 70 74 74 72 74 76 79 82 84 85 83 82 81 81 79 73
47 48 42 41 42 43 45 47 47 49 38 45 53 54 54 55 57 58 58 59 61 63 65 64 62 65 69 72 75 75 73 74 77 80 83 84 83 81 81 82 81 78 76 73
49 47 46 42 42 45 47 48 48 43 56 59 58 58 57 57 58 58 60 61 64 65 64 64 66 69 72 76 74 74 76 77 80 82 82 80 79 80 81 80 79 77 73 66
45 48 50 45 42 43 43 49 44 45 52 58 57 56 56 57 59 60 62 64 64 64 65 67 70 74 76 75 75 76 78 80 81 79 77 77 79 80 79 79 76 71 64 58
35 38 41 42 43 42 41 46 54 54 55 55 53 55 58 59 61 62 64 64 65 66 69 72 75 75 74 74 76 78 80 78 75 74 76 76 76 77 76 70 66 63 57 54
38 39 35 38 38 43 46 51 53 51 50 53 57 58 58 59 61 63 65 66 67 69 73 74 73 72 74 76 78 77 74 71 72 74 73 72 74 73 67 67 64 58 54 54
36 36 37 41 45 48 48 46 47 52 56 57 57 58 60 62 63 65 66 68 70 72 72 71 72 74 76 76 73 69 68 70 72 69 70 72 72 67 67 64 60 56 54 53
39 40 41 41 41 42 44 49 56 58 59 58 59 61 62 64 65 67 70 71 71 70 71 72 74 75 72 69 65 67 69 69 66 68 71 73 70 65 63 61 57 53 51 50
41 41 42 43 46 51 56 59 61 60 60 61 62 64 65 67 69 71 70 69 70 71 73 74 72 68 64 64 67 68 68 64 66 69 72 72 67 63 62 58 53 50 49 47
45 47 49 52 55 58 61 61 61 61 62 63 65 67 69 70 70 69 70 70 71 72 72 68 64 64 66 67 67 68 65 63 67 70 72 70 64 61 58 54 49 46 45 43
50 53 56 58 60 62 62 62 62 63 64 66 68 69 68 68 69 71 71 72 71 70 66 65 66 66 66 67 68 68 65 65 69 72 71 67 61 58 54 49 46 44 41 39
57 58 58 59 61 61 62 64 65 67 67 66 66 68 69 71 71 71 71 70 67 67 67 67 67 67 68 69 70 68 67 68 70 70 67 63 58 54 50 46 42 40 37 36

GFSNGP_500_spd_045.txt.gz
Wind_Speed
19 20 27 29 33 33 31 30 31 25 25 19 19 22 24 23 21 21 23 25 25 27 29 30 30 32 32 33 33 32 33 34 35 35 37 39 42 45 48 50 53 55 57 59
21 24 25 28 31 30 30 29 29 29 23 22 23 24 25 23 23 22 21 25 28 29 29 28 30 31 32 32 32 33 34 36 39 40 42 44 46 48 50 52 55 58 58 58
23 23 25 25 19 18 22 22 23 24 23 27 26 27 29 27 25 24 24 25 27 29 29 29 30 32 32 33 33 34 36 39 41 43 45 47 49 51 53 54 56 57 58 58
26 26 29 14 17 19 18 21 26 25 26 30 31 29 28 30 28 26 25 26 27 28 29 29 31 31 32 33 35 37 39 42 44 46 48 49 51 53 54 56 57 57 58 58
31 30 28 22 16 19 21 18 24 26 29 30 29 31 30 30 28 28 27 25 26 27 27 28 29 31 32 35 37 40 42 44 46 48 50 52 53 55 57 57 59 60 61 63
36 35 31 16 19 20 21 17 20 28 30 31 30 28 26 28 29 26 24 25 26 27 27 29 30 32 35 37 40 42 45 47 48 50 52 53 55 57 57 59 59 60 62 66
32 35 30 21 21 21 22 23 24 27 29 30 27 27 28 27 25 24 25 26 26 27 28 30 33 35 38 41 43 46 47 50 52 53 54 56 57 58 59 59 60 62 65 69
32 33 32 21 23 24 24 23 24 25 25 26 25 25 25 24 24 25 25 25 27 29 31 34 37 40 43 45 47 49 51 52 53 54 56 57 58 59 58 59 62 66 68 70
33 29 27 25 23 23 22 24 23 22 22 21 21 21 21 21 22 23 25 27 30 32 35 38 41 45 47 49 50 51 53 55 56 57 58 59 58 58 61 65 67 69 70 71
34 33 29 28 27 25 25 23 22 21 20 19 18 19 20 21 24 26 29 31 34 38 41 45 47 49 51 52 53 55 57 59 59 59 60 60 60 62 66 70 71 71 73 75
36 29 27 30 30 33 27 25 23 23 23 23 24 24 25 27 29 32 34 37 41 44 48 50 51 53 54 54 57 59 61 61 61 61 60 60 62 66 70 73 74 76 78 81
36 25 28 27 32 34 30 27 26 27 27 28 29 31 32 34 36 39 41 44 47 50 52 53 53 55 57 58 60 61 61 61 61 60 60 63 67 72 76 77 77 79 81 84
42 36 32 33 36 38 35 33 32 32 33 34 35 38 40 42 44 47 48 50 51 53 53 54 55 57 59 60 61 61 61 62 59 60 64 68 72 75 77 77 78 81 84 85
43 42 37 34 36 41 40 39 36 37 39 42 42 43 46 49 51 52 53 51 50 53 55 57 58 59 60 60 61 63 64 62 62 65 70 73 78 80 81 81 82 84 85 86
45 43 46 36 37 36 41 44 45 42 43 45 47 48 48 51 56 56 47 48 53 55 57 58 59 61 62 64 66 66 65 65 69 72 75 80 82 82 82 83 84 85 85 85
42 44 42 36 39 39 44 47 46 45 44 46 48 48 47 52 49 45 48 53 54 56 57 59 62 63 66 68 68 67 68 71 74 77 80 81 81 82 83 84 83 84 85 84
51 51 49 47 40 44 44 47 52 44 44 45 45 44 41 55 54 43 54 57 59 59 60 62 65 68 69 68 68 70 72 75 78 79 80 80 81 82 82 80 81 82 80 77
48 51 52 47 48 45 47 50 46 42 43 44 45 43 44 49 47 57 60 61 60 60 63 67 68 68 68 70 72 74 76 79 79 79 79 80 81 78 77 79 79 75 74 73
49 51 44 39 42 41 47 47 42 40 42 42 45 49 50 52 63 59 58 58 61 66 69 68 68 69 71 73 75 78 79 78 78 77 79 78 74 74 77 76 72 72 72 71
38 44 49 42 40 34 36 38 39 43 47 45 51 53 55 61 64 59 59 63 66 68 69 70 71 72 74 76 78 77 76 75 77 77 74 70 72 75 74 69 69 70 71 68
33 34 34 30 31 34 36 36 43 46 46 50 54 57 61 58 56 60 63 65 68 69 70 72 73 75 78 78 76 75 75 77 75 71 69 70 73 73 69 66 68 70 71 66
28 30 30 32 34 35 38 43 46 51 56 58 58 55 55 58 63 66 67 68 69 71 72 74 75 77 76 76 75 75 76 72 67 68 70 72 72 69 66 66 68 70 70 65
31 33 35 37 39 42 46 49 52 53 53 53 55 58 62 65 67 67 69 69 70 72 74 75 75 75 75 75 75 73 69 66 68 70 71 71 70 68 65 65 67 69 67 63
36 37 39 41 43 45 47 49 50 52 54 57 61 65 67 67 67 68 70 71 72 73 74 74 75 75 76 75 74 69 68 69 71 71 70 71 70 67 64 65 66 66 63 58
41 42 43 45 49 52 52 53 54 57 61 63 65 65 66 68 68 70 71 71 72 73 74 75 75 75 75 74 73 71 72 72 72 71 72 71 68 65 66 66 65 62 57 52
45 48 50 52 54 54 54 57 61 63 64 64 64 65 67 68 70 72 72 73 73 75 76 76 76 76 76 76 75 75 74 73 72 72 71 68 66 67 67 64 61 56 51 48
50 51 52 53 54 56 59 61 61 62 64 65 67 69 70 70 71 71 72 73 75 75 76 76 77 78 78 77 78 75 75 74 73 71 68 68 68 67 64 59 53 49 46 43

GFSNGP_500_spd_048.txt.gz
Wind_Speed
22 21 25 27 29 29 32 33 33 28 26 20 22 24 22 25 24 22 24 25 24 25 29 32 33 34 33 34 35 35 36 37 37 37 37 37 37 39 40 43 45 48 50 55
26 23 25 28 30 32 32 31 28 28 25 25 25 28 27 27 26 24 24 25 25 25 29 31 31 30 30 32 33 34 34 34 35 36 37 38 40 43 45 47 49 52 54 57
26 24 26 30 28 28 24 23 22 20 16 20 22 24 26 27 29 30 30 28 27 26 27 29 30 30 31 31 32 33 33 34 35 37 39 41 43 45 48 50 53 54 57 59
29 27 31 21 20 21 22 21 22 21 19 22 23 25 27 28 30 32 33 31 29 27 28 29 30 31 31 31 32 32 33 35 37 39 41 43 46 49 51 53 54 57 58 59
33 28 27 24 22 21 21 17 21 21 22 23 24 27 28 29 30 32 31 29 28 27 27 27 27 29 31 31 31 32 35 37 39 42 45 47 50 52 54 55 57 59 61 62
34 33 30 19 21 22 23 13 20 21 20 22 23 26 26 27 28 29 27 26 25 24 24 26 28 28 29 30 32 34 37 40 43 46 49 51 53 55 56 58 59 60 61 61
32 33 26 17 22 22 28 16 24 22 22 22 23 24 24 23 24 24 25 24 23 24 26 26 27 28 29 32 35 38 41 45 48 50 52 53 56 58 59 59 60 60 60 60
34 34 28 13 20 27 22 26 25 24 22 22 22 21 20 20 21 21 23 24 25 25 25 26 28 30 32 36 40 44 47 50 52 53 54 56 58 59 60 61 61 60 60 63
36 34 27 21 20 23 27 26 28 25 23 21 21 20 19 19 20 21 22 22 24 26 28 30 32 35 39 43 46 50 52 53 54 55 58 60 61 62 62 62 61 61 63 66
39 34 27 24 23 25 28 30 31 27 25 22 21 21 20 20 21 22 24 25 28 30 32 36 39 42 46 48 50 51 53 54 57 60 62 63 63 63 64 62 62 64 68 72
40 35 28 26 23 26 30 35 32 29 27 26 24 23 24 24 25 27 29 31 34 37 40 43 47 49 50 51 52 53 55 58 60 61 62 62 63 66 65 64 66 70 74 78
41 31 31 27 27 32 33 35 35 34 32 31 30 30 29 29 30 33 35 38 40 43 47 50 51 53 53 51 53 55 58 60 61 61 62 64 66 65 65 69 72 77 80 84
45 41 38 38 33 30 34 36 34 35 35 37 37 37 36 36 37 38 41 44 48 50 51 53 56 53 51 53 55 56 59 60 61 62 66 67 67 67 71 73 77 81 85 88
39 42 42 40 39 39 39 38 35 36 41 45 44 44 44 44 45 45 46 48 50 52 56 59 50 46 51 55 57 60 60 61 63 67 68 68 69 71 75 79 83 86 88 88
35 42 44 46 42 40 40 35 37 35 34 40 42 45 52 55 52 50 49 49 49 53 57 54 50 51 57 59 60 62 63 64 67 67 70 70 73 76 79 83 86 87 88 88
34 33 41 42 42 43 43 40 40 34 34 36 42 48 50 54 55 51 51 49 49 54 67 56 51 62 61 60 62 64 68 68 68 69 72 74 77 80 83 85 86 86 86 84
40 43 39 40 45 45 52 52 44 41 47 49 44 45 56 52 51 50 51 48 49 58 59 54 57 55 62 62 66 69 69 70 72 74 76 79 81 83 84 83 84 83 81 80
37 41 44 43 44 49 51 52 50 50 48 49 50 52 43 44 50 46 54 52 57 53 53 52 57 62 64 68 70 72 73 74 75 77 80 82 83 82 81 82 80 77 77 78
42 41 40 45 47 47 48 49 49 49 48 52 45 43 42 45 49 58 51 55 53 57 59 60 63 66 70 74 75 75 76 77 79 81 83 82 81 80 80 77 74 74 77 76
34 39 41 39 39 39 38 38 39 50 37 36 37 45 48 51 54 50 55 58 60 62 61 64 69 74 77 77 76 77 79 80 81 81 81 80 80 78 74 72 73 75 75 74
41 39 36 40 44 49 54 46 41 33 35 37 40 49 52 56 54 54 57 60 61 63 67 71 74 76 76 78 78 80 81 81 80 80 80 79 77 74 72 73 75 75 74 73
41 39 39 37 36 33 33 32 35 38 41 47 50 53 53 55 58 59 62 64 66 69 72 75 76 77 79 81 81 81 81 80 81 81 79 77 75 74 75 76 75 74 73 69
24 27 27 25 27 30 37 38 40 43 46 50 53 55 58 60 61 63 65 67 69 72 75 76 78 79 79 80 80 80 80 80 80 79 78 77 77 76 76 75 74 72 70 67
27 23 32 37 38 41 45 47 48 49 51 53 55 58 61 63 65 66 67 71 74 76 77 77 78 79 79 80 80 80 80 79 79 80 80 79 78 78 75 75 73 70 67 67
34 36 40 44 47 47 47 49 51 53 55 59 61 63 65 67 68 71 73 75 76 77 78 79 79 79 79 80 80 80 80 82 82 82 82 81 78 76 75 72 70 67 67 67
39 41 43 46 48 50 53 55 57 59 61 63 65 67 69 70 72 74 76 77 77 78 78 78 79 79 80 81 82 84 85 85 85 84 81 79 77 74 71 69 68 68 66 61
46 48 50 52 54 55 57 59 61 63 65 66 68 70 71 73 74 76 77 77 76 76 77 78 80 82 84 85 86 87 87 86 84 82 79 75 73 71 70 70 68 63 57 53

GFSNGP_500_spd_051.txt.gz
Wind_Speed
34 29 23 21 21 25 28 29 31 28 24 20 21 21 20 21 30 22 23 25 24 25 27 30 33 36 38 37 39 38 38 39 39 39 39 40 40 41 42 42 43 45 47 50
37 35 32 30 28 27 25 28 30 28 26 25 27 32 30 32 33 30 27 26 27 28 28 29 32 36 36 35 34 33 36 37 38 38 39 39 39 40 41 43 45 48 51 54
41 34 32 37 29 29 25 28 27 30 24 21 23 24 25 26 28 29 29 30 30 31 31 32 31 32 33 33 33 33 34 34 36 36 36 37 39 41 43 46 49 52 55 57
40 37 43 28 27 23 25 23 26 25 21 21 23 26 26 26 27 28 30 33 36 37 35 34 34 33 33 33 32 33 34 35 35 36 37 39 41 44 47 50 53 55 57 59
44 41 36 30 31 23 23 21 24 22 22 26 28 21 25 28 29 29 30 31 33 35 37 35 35 34 31 31 33 34 34 34 35 37 38 41 44 47 51 53 55 57 60 62
42 42 42 27 26 22 24 25 23 25 28 27 29 24 26 25 27 27 28 27 29 30 31 31 31 31 32 32 33 32 33 34 36 39 42 45 48 51 53 55 57 61 63 64
45 45 37 28 23 25 32 8 22 26 27 29 29 27 26 26 27 26 26 25 24 25 26 27 28 30 31 30 31 33 35 37 40 44 47 49 51 52 55 57 60 63 63 63
41 41 40 30 22 26 17 27 34 31 32 30 31 27 27 26 26 25 23 22 23 24 26 28 29 29 29 31 33 36 39 43 46 49 50 51 52 55 58 60 61 61 62 64
42 40 33 26 26 23 23 24 30 33 35 34 31 30 26 26 24 24 23 23 24 25 27 28 29 31 33 35 38 42 46 49 51 52 52 52 55 58 60 61 60 60 63 64
48 45 38 32 30 29 25 27 31 32 37 34 31 31 28 27 26 26 25 25 25 27 28 30 32 35 38 41 45 48 52 53 54 53 53 56 58 60 62 63 63 64 64 64
47 46 41 39 31 33 34 36 35 35 38 35 33 33 32 31 30 30 29 30 31 32 34 36 38 41 44 48 51 54 56 57 56 54 55 57 59 61 61 62 64 66 68 69
42 38 41 37 37 38 31 33 38 35 34 33 34 37 36 36 36 36 35 35 38 39 41 44 46 48 50 53 54 56 59 57 52 52 56 60 62 62 63 65 67 70 73 75
44 39 44 44 41 41 40 32 36 35 34 33 34 38 39 40 41 42 42 43 44 46 48 50 52 53 53 55 58 58 62 57 55 58 62 63 63 65 66 67 71 73 76 78
40 40 41 41 46 49 45 38 39 36 35 38 40 44 44 44 46 47 47 48 48 51 55 58 58 57 57 55 60 58 69 65 63 65 64 64 67 69 69 71 73 75 77 80
33 35 38 34 34 37 41 41 40 39 42 40 41 42 45 46 45 46 47 50 53 58 57 60 59 58 58 61 58 63 73 69 64 65 67 69 70 71 72 75 76 79 82 84
31 34 38 37 37 39 38 38 42 42 45 45 47 48 43 42 41 43 50 52 56 54 58 58 59 54 51 57 64 67 70 64 67 67 72 73 72 73 74 77 80 83 84 84
33 34 34 34 37 38 39 38 42 46 47 48 51 52 48 45 51 54 54 56 60 62 60 57 60 59 59 64 70 55 60 69 71 76 76 77 74 74 78 80 82 82 84 85
31 35 37 39 39 40 43 47 47 46 47 48 48 48 49 52 52 52 54 59 58 57 57 51 53 56 62 58 60 65 69 70 74 78 79 77 78 80 82 83 83 83 84 84
35 38 41 41 40 39 40 39 44 48 48 47 48 46 48 54 56 53 52 55 56 51 54 58 60 63 62 63 68 70 72 74 77 79 79 80 81 83 83 83 84 84 83 80
35 34 35 35 36 36 38 39 42 41 41 38 47 48 45 47 48 53 54 50 52 55 57 62 67 64 64 69 72 74 76 77 78 79 81 83 84 85 84 84 83 82 81 80
27 30 32 34 35 37 39 40 41 42 43 49 48 47 50 50 49 49 51 53 55 60 65 64 65 68 70 73 74 74 75 77 79 81 83 84 84 84 84 84 83 82 82 82
31 31 37 43 45 44 44 38 38 38 39 37 39 40 41 44 50 53 58 61 62 64 65 67 70 71 73 75 75 76 78 79 81 83 84 85 85 84 84 84 84 84 84 83
29 32 36 38 38 38 37 37 38 39 39 42 42 44 48 53 56 58 61 64 66 67 70 73 74 76 76 78 80 81 82 84 85 85 86 86 85 85 86 86 86 85 84 80
28 29 30 31 33 33 36 40 42 48 50 49 51 53 56 58 61 62 64 68 71 74 75 76 77 79 81 83 84 86 86 86 86 86 86 86 87 88 87 87 86 83 79 77
31 33 37 39 38 41 43 46 45 48 52 55 56 57 60 63 66 68 70 72 74 76 77 79 81 83 85 86 86 86 86 86 87 88 89 89 89 88 87 86 83 81 78 74
39 41 43 45 46 47 50 52 55 58 61 63 65 66 67 68 70 71 73 75 76 79 81 82 83 83 83 84 85 87 88 89 89 89 89 88 88 87 86 83 79 74 70 65
44 46 48 50 52 54 56 58 60 62 63 65 67 68 69 71 73 74 76 78 78 78 79 80 82 84 85 87 88 88 87 86 85 85 84 84 83 81 77 73 68 63 58 53

GFSNGP_500_spd_054.txt.gz
Wind_Speed
43 39 26 28 24 30 32 35 35 28 31 32 19 26 26 21 23 23 25 22 24 26 25 26 27 28 31 34 37 39 38 36 40 40 41 40 38 39 40 42 42 43 43 44
49 44 40 35 33 28 27 23 31 26 22 17 23 23 25 23 37 29 31 32 31 31 29 27 27 29 29 30 33 36 37 39 38 37 37 38 38 40 41 41 41 41 43 46
51 45 40 46 39 29 31 27 29 25 25 25 27 30 28 38 39 41 33 31 28 33 36 31 30 31 29 30 32 32 31 33 34 36 36 37 38 38 38 39 41 43 46 50
49 42 51 45 44 41 45 36 32 32 30 26 27 28 29 33 25 24 27 24 29 33 37 38 35 35 35 35 33 33 33 34 33 34 35 36 36 37 39 41 44 47 50 52
54 52 49 46 39 39 39 31 28 28 27 24 19 29 35 27 24 29 28 28 33 34 37 39 39 38 37 35 35 35 34 34 35 37 36 37 38 40 42 46 49 51 52 54
50 52 54 45 38 36 33 35 24 25 24 28 33 38 28 31 26 29 31 31 31 33 34 34 34 34 34 34 35 35 35 36 38 37 37 39 41 44 47 50 52 53 55 57
51 49 46 43 34 35 37 23 16 26 26 29 39 33 33 32 31 31 32 32 31 32 31 31 31 31 31 32 33 34 36 37 37 38 40 42 46 49 52 55 56 56 58 60
44 49 46 37 40 41 29 17 20 30 30 33 36 36 33 32 32 32 33 33 31 30 30 30 30 30 30 31 33 35 36 37 39 42 44 48 51 55 57 57 58 58 61 63
48 46 47 43 40 32 23 27 27 24 27 37 40 36 35 33 33 34 34 33 31 29 30 30 30 30 31 33 34 36 38 41 44 47 50 54 57 57 60 61 59 59 60 62
42 47 41 39 34 34 40 37 27 33 38 35 39 38 38 34 36 36 36 35 33 32 32 32 32 34 33 36 38 40 43 46 50 53 56 58 59 57 62 60 58 58 61 64
39 43 46 45 36 23 39 42 39 35 38 37 37 33 34 35 37 37 37 37 36 36 37 37 38 39 41 43 45 46 48 51 54 57 59 60 58 61 67 64 63 64 63 65
41 33 38 36 35 41 35 38 38 39 41 43 44 39 35 36 38 39 40 39 40 41 42 42 43 45 48 50 50 53 55 57 61 62 62 63 63 64 65 69 71 71 70 71
40 37 40 42 38 42 44 45 42 45 39 37 40 37 36 36 36 38 40 41 43 44 46 47 49 51 52 54 55 58 62 65 64 63 63 66 67 68 71 77 73 70 73 76
41 43 44 41 43 41 44 44 46 46 44 45 44 40 39 37 38 40 44 46 48 47 50 52 54 56 57 59 60 63 64 65 63 60 56 63 70 73 74 74 69 73 78 78
46 46 40 35 38 37 36 38 42 44 51 54 46 40 39 41 45 46 42 45 48 50 52 52 53 54 58 63 64 63 64 62 62 62 69 69 72 70 69 75 79 82 85 85
31 30 32 31 34 34 38 43 43 41 41 44 41 46 47 45 45 45 49 50 49 48 50 49 56 59 61 61 61 64 63 64 57 61 69 71 71 68 71 77 81 84 85 86
28 28 29 32 29 32 36 35 33 34 36 35 37 40 43 44 47 50 52 51 52 50 52 53 55 56 66 66 64 63 68 66 66 66 70 70 71 73 77 81 82 83 85 86
30 28 30 33 34 36 41 43 43 46 47 47 47 49 49 47 49 51 50 50 49 51 56 63 69 67 67 66 66 66 61 64 70 73 72 72 74 78 81 81 82 85 86 87
28 29 31 35 40 42 45 45 44 44 42 42 42 43 47 51 53 52 50 49 52 59 62 63 61 58 58 59 61 62 66 69 71 72 74 76 79 82 83 83 84 87 88 88
34 38 41 44 46 47 47 46 45 45 43 43 46 47 50 50 48 49 51 55 55 56 57 58 58 58 56 57 62 66 68 70 72 75 77 80 82 83 84 86 87 88 88 87
33 31 35 38 40 41 42 41 42 43 44 44 45 48 50 52 50 49 51 55 56 55 54 55 54 57 59 62 66 69 72 74 78 80 81 82 83 86 88 90 90 89 88 87
29 29 32 33 35 36 39 41 43 48 49 50 50 50 47 47 48 50 52 52 55 54 54 58 62 65 67 70 73 75 78 81 83 83 84 86 89 90 90 90 90 89 90 89
28 30 31 33 35 37 38 40 40 40 41 40 40 43 47 49 52 52 51 52 55 58 62 65 67 70 71 75 78 81 83 84 86 88 90 92 91 91 92 92 92 90 89 87
32 32 32 33 35 37 39 40 40 41 42 43 45 48 50 52 54 55 57 59 62 65 68 71 73 74 77 79 82 84 87 89 91 92 92 92 93 93 92 90 87 85 84 82
34 34 36 37 39 40 42 44 47 47 47 49 51 53 56 58 60 62 65 67 69 71 72 75 77 79 82 85 87 88 90 90 90 91 91 90 89 88 85 83 82 82 82 82
37 39 42 43 45 46 47 48 50 52 53 56 59 62 64 66 68 70 73 74 76 78 80 81 83 84 84 86 87 87 88 88 88 86 84 83 82 82 82 83 83 83 82 79
44 45 47 49 50 52 54 56 58 60 62 62 64 66 67 69 71 73 75 76 78 80 81 81 82 83 83 82 82 82 81 80 79 79 79 80 81 81 81 82 82 80 75 68

GFSNGP_500_spd_057.txt.gz
Wind_Speed
40 46 46 39 34 35 39 34 35 26 27 26 32 28 27 30 29 30 32 26 19 12 16 18 23 26 27 30 30 30 29 32 30 32 33 38 39 39 37 36 36 36 39 40
43 41 47 49 39 40 28 28 37 35 32 26 28 26 34 29 32 32 34 30 30 36 30 25 27 28 27 30 32 31 32 32 34 35 34 35 36 36 36 37 37 39 41 41
49 40 51 54 46 38 35 32 31 35 31 21 25 23 25 33 30 29 32 36 26 25 31 23 18 20 27 29 33 34 34 34 33 35 34 34 35 36 37 38 39 40 40 42
50 42 51 47 53 43 38 36 37 36 34 25 29 30 32 35 38 38 36 23 22 23 31 30 27 26 28 31 33 34 36 36 36 35 33 33 35 37 37 38 39 40 42 44
52 53 54 51 46 48 49 44 41 42 37 31 35 32 35 39 43 40 32 26 28 27 31 35 35 33 35 34 32 33 34 34 34 35 36 36 37 38 38 39 41 43 46 49
47 51 51 47 45 44 52 53 48 42 40 40 39 39 36 36 37 34 31 31 30 31 33 32 35 35 34 35 36 34 34 35 36 36 38 38 39 40 41 43 45 48 51 55
47 39 40 50 40 40 50 46 40 36 30 38 38 40 38 39 39 34 33 32 32 33 33 34 34 33 33 33 34 36 36 36 37 39 39 41 41 42 44 46 50 53 56 59
45 46 45 40 33 41 44 36 36 28 32 39 40 41 40 39 38 35 34 35 36 37 35 35 35 34 32 31 32 33 35 37 38 39 41 43 44 46 48 51 55 58 60 61
33 45 49 46 43 44 40 43 38 35 43 44 40 36 37 38 40 38 36 36 37 37 36 37 37 35 34 32 33 35 36 39 39 40 43 46 48 50 53 58 60 63 64 66
30 35 46 40 44 34 39 37 40 45 43 38 39 40 37 47 42 41 40 40 40 39 38 39 38 36 36 36 37 39 40 41 42 44 47 50 53 56 60 65 69 69 68 67
42 25 43 34 41 47 37 42 45 50 52 48 47 47 34 32 34 36 38 41 42 40 39 39 37 37 38 40 42 43 44 45 46 50 52 55 58 62 67 69 69 68 63 64
42 37 18 29 38 45 47 44 40 48 49 47 44 45 43 39 42 42 39 40 41 43 44 42 41 41 42 43 44 47 49 51 53 56 59 60 63 68 67 65 67 68 66 69
42 39 47 33 38 45 50 47 41 35 40 46 48 49 50 47 45 48 49 45 42 43 41 38 41 44 45 46 48 51 54 57 61 63 63 64 69 69 63 61 63 66 72 75
42 43 46 49 44 39 38 39 37 41 42 43 44 48 47 47 48 49 48 46 44 41 43 44 42 41 45 52 55 57 59 62 64 63 63 66 66 64 64 65 68 71 74 72
33 39 37 37 39 40 36 35 37 38 42 48 50 51 56 54 53 53 44 45 44 46 44 47 50 47 49 49 51 53 58 59 63 65 66 69 70 72 74 77 78 77 76 77
27 28 28 30 34 36 36 32 34 36 38 41 42 45 49 46 50 42 45 53 50 52 53 48 53 51 51 53 53 61 64 64 67 69 72 75 76 76 77 77 77 76 77 79
27 30 29 30 30 29 29 30 32 39 38 40 43 46 46 44 39 40 42 39 47 44 45 55 53 53 57 59 58 62 66 73 70 70 72 73 74 75 75 75 75 77 78 81
20 21 24 26 25 25 31 35 37 35 38 41 41 40 42 44 47 51 52 52 50 51 52 63 64 60 62 59 62 68 71 70 68 69 70 71 71 71 72 74 76 79 82 83
23 28 33 35 36 37 37 40 43 46 47 48 48 50 50 48 48 50 52 54 51 56 59 62 61 59 62 66 69 68 67 67 67 66 65 66 69 72 75 78 79 80 82 85
29 32 35 38 41 43 44 46 48 47 46 45 45 45 46 47 52 55 52 55 54 58 62 62 61 65 65 63 62 62 61 61 61 64 68 71 73 75 77 79 82 85 87 89
33 35 36 37 37 40 42 43 44 42 41 42 43 44 44 46 49 52 56 58 62 63 61 60 58 58 57 57 60 61 62 65 68 71 73 75 77 81 84 86 88 90 92 93
35 37 38 39 38 38 38 37 37 38 40 42 44 45 47 48 48 48 50 52 53 54 55 56 58 60 61 61 62 64 68 71 73 76 78 81 85 87 89 91 92 93 94 94
25 27 28 30 32 34 35 37 38 39 40 41 42 43 44 44 46 47 50 52 54 56 58 60 62 64 66 68 69 72 74 77 79 82 85 88 89 91 92 93 93 93 92 89
28 31 32 34 35 36 37 39 40 41 43 44 45 46 48 50 52 54 56 57 58 60 62 64 65 68 70 73 76 79 82 84 86 88 89 89 90 92 92 90 88 85 83 82
31 33 34 34 36 38 40 41 42 44 47 49 50 53 55 57 58 59 60 62 64 65 67 71 74 76 79 81 83 85 86 87 87 87 87 86 85 84 82 81 81 81 81 81
31 33 34 36 39 41 43 46 47 49 52 54 57 59 61 63 65 67 70 71 73 74 75 76 77 78 79 81 82 83 83 82 80 79 77 76 76 77 79 80 80 80 80 80
39 41 44 46 47 49 52 54 56 57 59 61 62 63 65 66 68 69 70 71 72 74 76 76 76 77 76 75 74 73 72 71 70 70 71 73 75 75 76 77 78 77 76 73

GFSNGP_500_spd_060.txt.gz
Wind_Speed
44 39 42 45 46 44 46 44 42 37 31 32 37 31 26 29 29 29 30 30 16 13 23 22 20 22 25 27 27 29 29 28 25 24 29 29 27 29 32 34 31 31 30 33
48 42 40 46 48 49 46 45 45 44 40 30 26 30 37 32 30 33 35 37 30 26 27 23 30 35 33 32 31 29 29 29 27 26 28 28 29 30 33 34 33 33 35 36
49 46 40 46 47 52 49 49 44 44 41 31 33 37 35 33 37 33 33 36 33 26 23 34 35 26 23 27 31 31 31 33 33 33 32 32 34 35 35 36 35 35 37 39
51 50 50 46 47 45 52 50 47 40 36 34 34 34 36 37 33 35 37 38 34 35 29 22 20 18 18 22 28 31 32 33 36 36 37 36 36 37 37 38 38 38 39 40
45 52 51 53 46 41 48 46 47 41 41 39 33 33 38 37 39 36 37 36 33 28 26 22 22 23 25 25 26 29 32 34 35 36 38 39 39 41 41 40 40 41 42 43
25 35 47 46 49 43 37 48 46 45 42 43 39 45 40 41 34 37 40 42 40 30 29 27 26 26 26 27 28 28 29 29 30 32 36 38 41 41 42 42 43 46 46 47
41 22 41 47 49 52 49 43 45 48 51 49 42 44 39 40 41 44 50 41 39 32 33 32 33 33 33 32 32 31 31 31 32 34 37 39 41 42 42 44 47 48 49 51
60 37 32 53 50 45 47 52 45 46 51 54 52 50 41 40 42 44 50 44 40 40 38 37 37 37 39 36 34 35 36 36 36 36 39 40 42 43 45 47 49 51 53 55
63 22 19 37 48 41 39 41 47 44 46 45 48 48 46 45 43 45 43 43 43 40 41 41 41 41 41 38 37 38 39 40 39 40 41 43 44 46 48 50 53 54 56 60
52 41 17 12 37 33 25 30 34 37 38 39 47 51 46 43 42 43 46 46 43 41 42 44 44 44 42 41 41 41 41 42 42 43 44 45 48 50 53 56 58 59 61 63
53 42 30 20 18 30 47 44 38 36 38 40 45 48 52 48 43 42 45 43 39 42 42 42 44 46 45 45 45 44 44 43 44 46 48 49 52 55 59 62 63 65 66 69
43 38 35 28 23 21 35 41 37 41 36 39 41 44 50 49 47 48 46 42 42 42 42 40 41 43 44 45 47 48 49 49 50 51 52 55 57 60 63 66 68 70 70 68
45 38 34 33 30 32 27 32 37 44 46 45 45 45 49 49 51 55 52 48 46 47 45 41 42 45 47 47 47 46 48 48 48 52 57 61 64 67 69 67 66 67 67 71
40 46 41 39 37 33 30 35 36 37 44 49 46 44 55 62 56 51 47 48 50 49 48 49 48 48 50 47 51 53 53 51 49 51 56 58 60 65 67 68 70 74 77 78
32 41 40 36 32 30 31 34 37 41 44 46 42 48 47 59 63 56 54 56 56 55 54 46 51 55 53 51 48 51 49 57 55 56 53 56 61 65 68 72 75 77 78 79
27 27 26 26 27 29 31 35 36 39 43 44 43 39 48 45 46 48 47 49 51 54 52 49 46 54 44 47 47 50 56 59 57 56 61 65 68 71 74 77 79 79 78 79
32 33 29 27 26 27 28 31 33 37 40 37 38 39 38 40 42 43 45 47 53 44 49 49 50 52 53 55 54 56 57 64 73 71 69 71 71 76 78 76 75 74 75 76
30 35 34 30 27 29 31 32 35 38 40 38 35 37 40 43 46 48 44 45 46 47 50 52 52 52 55 58 63 63 65 70 69 72 69 71 76 75 72 72 72 72 73 75
28 33 36 32 34 31 31 31 34 34 37 42 45 47 47 48 49 50 51 51 52 52 52 52 52 56 64 62 65 66 69 73 73 72 74 72 70 70 69 70 72 74 76 78
34 37 38 39 36 35 39 43 45 45 44 44 44 45 46 45 46 47 49 51 51 53 54 59 62 68 69 71 73 72 73 73 71 68 67 68 69 71 73 74 76 78 82 85
31 35 39 38 33 37 41 40 37 35 36 38 38 39 40 41 43 45 46 48 50 53 56 59 63 64 63 63 63 63 64 65 66 67 69 70 71 73 76 79 82 86 90 93
33 32 33 33 32 32 33 35 38 39 41 44 42 41 41 42 42 43 45 47 50 52 53 55 55 56 58 60 62 63 65 67 69 71 73 75 78 81 85 88 91 92 92 93
29 34 44 43 36 33 34 36 36 36 35 35 36 37 38 40 42 44 46 48 50 52 54 56 59 61 63 65 67 69 70 72 75 78 81 83 86 88 90 91 92 92 92 91
33 29 27 24 24 26 29 32 33 35 38 39 41 42 43 45 46 48 50 52 54 57 59 62 64 66 68 71 73 75 78 80 81 83 85 88 88 88 89 89 87 86 84 82
21 22 23 25 27 29 32 34 36 38 40 42 44 45 47 50 52 54 56 58 60 63 65 68 71 73 75 77 78 80 81 83 84 84 84 83 82 81 78 76 75 76 77 79
24 25 27 29 31 34 38 40 43 45 46 48 50 51 53 56 58 61 63 65 67 68 70 72 74 75 77 78 80 80 80 79 78 76 74 71 69 69 70 71 73 74 74 76
35 37 39 42 44 45 47 49 50 51 54 56 58 60 62 63 65 67 69 70 71 73 74 75 75 74 73 72 71 69 67 65 63 62 62 63 65 66 68 68 68 70 72 73

GFSNGP_500_spd_063.txt.gz
Wind_Speed
50 49 48 46 47 45 47 44 48 42 41 31 32 32 30 28 31 30 30 38 29 28 26 20 18 19 24 24 24 27 32 30 29 29 28 24 24 25 21 23 25 27 26 27
49 50 50 45 47 48 47 47 45 45 41 36 33 33 34 35 33 34 30 31 35 30 28 26 25 25 26 28 32 35 35 31 28 27 28 27 26 27 27 28 29 32 31 32
48 44 46 48 46 49 52 50 47 47 45 38 36 39 37 34 31 37 38 36 40 41 34 24 24 24 29 30 28 26 26 26 27 27 29 29 29 31 31 34 34 36 36 36
51 35 37 46 47 43 48 47 50 50 48 42 39 38 41 42 37 37 36 37 39 38 30 31 31 29 36 30 25 25 27 28 28 28 29 31 33 33 36 37 37 38 38 41
59 62 40 46 49 44 43 43 40 48 48 44 46 45 40 43 41 40 36 32 34 35 34 37 32 34 34 29 25 27 28 30 30 29 30 31 32 33 35 36 37 39 42 45
49 58 57 38 29 42 48 51 42 43 44 50 48 50 40 40 42 39 38 35 32 35 35 38 37 31 35 28 27 28 31 32 34 35 35 35 34 34 37 39 39 43 46 47
46 52 64 43 30 30 45 43 44 46 48 43 49 47 45 42 43 44 39 38 41 38 40 41 38 33 35 33 34 34 35 35 37 39 40 39 38 40 41 42 44 45 46 47
46 44 63 59 47 28 37 46 41 41 41 39 42 46 50 46 43 40 41 40 44 43 44 42 38 39 38 39 40 40 40 39 40 41 41 41 41 42 43 45 46 48 50 52
46 42 41 51 47 34 38 48 41 38 42 48 49 47 48 48 47 47 44 46 45 46 46 42 42 44 45 41 42 43 43 43 44 44 44 43 43 44 45 47 49 52 54 56
46 39 39 41 57 46 21 40 44 35 41 43 48 48 44 43 45 47 48 51 52 48 46 48 46 45 45 43 44 44 45 46 47 47 47 48 49 50 51 52 53 57 59 61
46 35 31 33 43 51 38 20 24 42 36 37 35 40 37 42 43 45 48 50 50 52 49 43 44 44 41 41 40 40 40 43 46 48 50 52 53 55 56 58 60 61 63 65
41 38 32 31 34 41 40 16 14 26 27 32 36 33 36 40 45 48 49 47 48 51 47 44 43 43 41 40 43 44 48 49 50 51 52 54 56 58 59 59 60 61 63 64
33 34 30 33 32 35 40 23 15 21 24 34 40 38 47 41 46 47 47 47 46 51 52 51 53 52 51 47 45 48 47 51 53 52 53 54 57 59 58 59 60 61 63 66
23 21 23 28 33 30 35 28 25 21 24 32 39 42 45 47 50 49 47 54 54 57 56 57 56 56 53 52 51 49 50 48 47 51 56 54 55 60 65 67 68 67 68 68
19 22 27 31 32 33 33 32 32 31 28 27 29 37 41 40 42 43 45 44 51 54 57 60 56 56 60 60 53 51 52 54 56 52 55 56 59 63 63 64 64 69 71 71
29 24 20 26 29 33 37 33 34 30 29 34 36 36 42 42 44 43 44 48 51 54 63 64 64 66 61 50 50 50 59 61 64 61 56 56 57 61 66 70 73 76 78 78
29 29 25 25 28 32 34 36 34 34 33 35 39 41 43 44 42 42 40 46 51 46 46 47 51 49 49 51 57 56 50 53 51 58 60 61 62 64 68 72 77 80 80 79
31 32 35 34 32 36 38 37 35 35 36 37 39 40 40 43 45 45 44 40 42 44 48 43 53 49 46 50 53 56 58 59 58 60 65 68 73 75 77 79 79 79 79 77
25 29 30 30 29 37 40 41 40 39 40 40 41 39 39 44 42 41 42 43 43 47 49 50 53 55 56 56 58 60 63 65 70 72 74 76 78 80 77 73 73 73 74 76
34 37 35 34 35 36 41 47 43 40 38 40 40 41 43 43 41 42 43 45 47 49 52 53 55 56 58 59 60 63 66 68 70 73 73 71 70 71 72 73 74 76 79 81
25 31 37 39 39 36 41 42 42 36 37 41 42 42 41 41 43 44 45 46 47 50 52 53 55 57 59 62 63 64 65 66 66 66 67 69 71 73 75 77 79 81 83 86
27 26 26 26 32 34 35 34 37 41 41 38 38 39 41 44 45 48 50 50 49 50 51 52 53 54 56 58 60 62 64 66 68 70 72 74 76 78 80 83 85 87 88 89
28 30 31 32 35 37 39 40 40 37 39 39 38 39 39 38 40 41 43 45 47 48 51 53 56 58 60 62 64 66 68 70 72 75 77 79 81 83 84 84 85 86 86 85
21 23 24 24 27 29 27 28 28 31 31 33 35 35 37 39 42 44 45 47 49 51 54 56 59 62 65 67 70 72 74 75 77 78 80 82 82 82 82 82 81 80 78 76
16 17 18 19 21 24 26 29 30 32 34 36 38 41 43 45 47 48 50 52 54 57 59 62 65 68 70 72 74 75 77 79 80 80 80 79 78 77 74 72 70 70 71 72
23 25 26 28 30 32 34 37 39 41 43 44 45 47 49 51 53 55 58 61 64 66 69 71 72 74 74 75 75 75 74 73 71 70 68 67 66 65 65 65 66 67 68 68
30 32 35 38 41 43 45 47 49 50 52 53 55 57 59 61 63 65 67 68 69 69 70 69 68 67 66 65 63 62 61 60 60 60 60 61 62 62 63 63 62 62 60 61

GFSNGP_500_spd_066.txt.gz
Wind_Speed
49 50 49 48 48 50 51 50 50 45 44 40 35 34 30 29 31 31 31 25 25 24 26 28 32 36 29 25 24 26 28 27 24 28 31 30 25 26 23 20 19 19 22 22
52 49 49 47 49 52 52 51 52 50 47 45 38 33 34 34 34 35 36 32 32 25 25 29 30 28 32 34 30 30 33 34 34 36 33 29 27 27 25 25 26 25 24 26
51 44 48 49 47 49 53 53 53 53 49 48 41 35 36 37 35 37 33 34 33 33 26 29 33 35 33 31 31 31 34 35 38 32 29 29 29 29 28 27 28 31 30 30
50 46 50 45 35 43 52 52 52 54 53 51 46 38 35 37 38 39 37 36 35 28 28 30 30 35 29 29 33 31 32 33 31 29 28 30 31 31 31 32 32 34 33 35
55 57 54 45 45 37 38 48 49 54 50 48 50 46 38 37 39 40 39 37 37 35 30 27 26 25 27 29 31 36 38 35 33 30 29 29 31 32 32 34 35 36 37 37
28 35 52 52 55 54 51 42 31 49 50 50 45 50 43 41 39 44 42 41 38 35 31 30 29 31 26 26 31 32 35 38 36 33 32 32 32 34 35 36 37 39 41 43
29 29 26 24 28 37 47 45 41 38 48 45 46 43 39 36 40 44 45 43 39 37 36 33 33 31 33 31 28 32 36 40 39 37 37 37 38 37 38 38 40 42 44 45
33 32 26 31 33 35 35 42 46 33 42 45 44 48 45 41 38 39 40 40 43 42 41 39 39 38 38 38 33 33 37 39 43 43 42 41 42 42 43 43 44 45 46 47
40 36 34 35 38 38 35 33 49 39 33 42 43 36 36 40 34 34 38 46 49 43 41 40 40 38 40 40 42 45 40 42 43 43 44 45 45 45 46 46 47 49 49 51
45 38 41 41 39 41 39 37 34 49 37 42 46 43 45 45 47 42 38 38 44 45 45 42 42 43 44 45 48 49 48 44 44 43 45 45 45 45 46 47 48 51 52 54
46 45 48 44 40 43 36 32 36 49 41 30 46 41 40 40 37 39 42 42 44 44 42 44 44 44 43 48 50 48 48 46 45 44 43 44 46 48 49 51 53 54 56 58
49 49 50 47 43 42 35 32 29 36 47 30 38 41 36 39 39 40 41 42 42 42 40 41 40 45 46 42 47 48 47 48 44 46 47 50 46 47 50 53 56 57 59 61
35 37 37 37 35 37 35 31 28 31 34 36 16 27 51 50 46 34 34 41 42 46 49 51 52 47 45 49 49 47 52 52 55 53 53 51 54 59 54 55 58 61 63 64
34 31 34 33 31 36 33 30 29 32 30 28 24 22 24 30 31 33 38 37 50 43 41 45 47 49 59 60 54 52 58 62 56 53 50 55 58 58 55 55 59 61 62 59
31 32 32 35 30 33 33 35 34 35 30 30 31 25 22 23 26 31 33 40 40 52 46 47 55 63 64 56 59 62 63 62 61 57 57 59 62 65 64 64 63 63 60 62
29 31 34 32 26 23 28 31 33 35 34 33 32 32 31 31 31 31 31 33 40 42 45 48 51 52 53 57 59 59 51 50 57 54 53 51 53 58 61 63 65 64 65 67
29 31 37 30 30 30 18 20 25 33 37 37 37 37 37 37 37 37 37 38 42 42 44 47 49 54 51 42 48 44 47 48 52 56 54 56 56 61 61 64 66 67 72 77
24 28 32 32 30 31 27 27 29 35 37 40 42 41 42 43 43 43 43 43 47 49 47 46 48 47 41 45 47 51 56 55 54 58 61 62 63 67 69 71 72 74 77 79
32 29 32 34 35 36 37 36 36 38 40 43 47 48 47 47 47 45 44 44 46 50 43 42 42 44 47 50 53 56 58 61 64 65 65 66 67 67 70 72 75 76 76 76
31 27 25 36 33 33 31 32 30 35 41 44 47 46 50 42 44 43 44 44 45 46 48 53 52 52 54 57 60 62 63 63 64 65 67 68 70 72 72 73 73 74 76 79
29 29 30 31 27 27 33 37 41 40 37 38 40 41 44 47 44 44 46 47 49 48 51 53 55 54 56 60 61 61 63 65 66 67 67 67 67 69 71 74 77 80 83 85
30 30 31 31 31 32 30 30 32 32 33 35 34 37 38 40 44 50 51 51 52 53 53 53 54 56 57 57 59 59 59 60 62 65 68 70 73 75 77 80 82 85 87 90
20 21 25 30 34 35 36 36 38 37 38 37 39 40 39 38 41 43 43 44 45 45 46 48 50 52 54 56 59 62 64 66 68 70 73 76 78 80 82 84 85 88 89 89
21 24 28 28 28 28 29 30 29 28 28 29 30 31 33 34 37 39 40 42 45 48 50 52 55 56 59 61 63 66 68 70 72 75 78 81 82 82 83 83 82 81 79 77
23 21 23 26 27 26 27 28 30 31 32 32 34 36 38 41 43 44 47 49 52 55 56 58 60 62 66 69 71 74 76 77 78 78 78 77 75 74 72 70 69 69 69 70
22 24 27 30 32 33 33 35 36 38 40 42 44 46 48 50 52 55 57 58 60 63 65 67 69 70 71 72 72 72 71 69 67 65 64 62 62 62 63 64 65 65 65 63
32 34 36 38 40 41 42 44 47 49 51 52 53 54 55 57 58 60 62 64 66 67 68 67 66 63 61 59 56 54 53 53 53 54 55 56 57 57 57 57 57 55 51 48

GFSNGP_500_spd_069.txt.gz
Wind_Speed
46 44 41 41 43 42 44 44 45 45 46 45 39 33 33 32 28 29 29 30 31 33 31 31 29 29 31 31 34 35 30 29 31 32 29 28 26 27 28 28 28 26 24 20
42 41 45 44 44 44 46 47 49 52 49 49 47 40 36 37 34 31 31 34 34 30 33 32 32 34 38 38 36 34 32 34 33 33 33 34 36 36 32 29 29 29 29 27
47 41 39 45 41 43 44 47 49 52 53 54 50 47 38 38 37 36 33 35 35 33 34 36 35 36 40 38 38 37 38 32 31 30 33 37 36 32 31 31 29 28 31 32
42 43 47 46 42 37 41 44 47 52 53 55 56 52 42 38 40 38 36 36 34 33 31 28 30 35 36 39 39 40 38 31 34 35 30 28 27 27 31 31 29 28 29 31
41 47 43 42 38 38 39 40 40 43 46 51 55 57 46 40 41 43 40 38 35 36 33 31 30 28 30 38 35 37 35 34 34 36 36 31 34 32 31 32 31 30 30 30
22 20 19 23 35 43 46 41 44 49 46 45 50 55 57 48 41 41 44 41 38 36 34 33 31 35 32 32 30 32 29 30 33 36 35 32 35 36 32 32 32 33 33 33
20 16 11 14 20 22 24 29 42 44 49 48 48 50 51 44 37 38 42 46 43 40 39 36 31 34 35 34 32 32 33 30 31 34 37 34 34 35 37 36 35 36 37 38
23 20 16 21 25 27 24 21 27 30 29 40 52 49 50 42 38 36 36 41 41 42 38 39 37 37 38 37 35 36 36 35 35 39 37 37 39 40 40 40 40 41 41 42
27 24 24 25 30 34 31 26 30 31 30 26 33 43 41 41 37 35 40 43 44 38 38 42 39 42 45 43 42 44 40 40 42 44 44 44 43 42 42 42 43 45 46 46
31 30 31 32 37 38 36 35 34 34 33 31 30 39 39 39 40 35 32 35 42 42 39 39 40 40 40 42 39 43 44 48 45 47 46 49 46 41 43 44 44 44 46 47
36 36 36 37 42 42 42 41 40 40 41 35 33 30 38 47 50 43 42 42 42 45 43 39 39 39 38 38 40 42 44 45 50 50 43 42 45 47 45 45 48 52 52 49
40 41 42 42 45 46 47 47 47 45 41 39 29 30 35 42 43 51 47 41 37 37 39 41 43 44 43 40 42 42 40 42 47 47 42 44 48 48 49 49 53 52 52 54
42 43 43 44 47 47 48 47 45 40 38 35 31 35 30 32 30 52 47 41 41 36 44 47 44 41 40 41 45 48 55 50 52 48 52 53 50 53 58 58 56 54 55 57
41 40 42 43 41 39 39 38 37 37 39 33 25 25 29 32 34 32 49 42 41 39 41 38 50 47 44 43 46 51 53 48 50 47 55 52 54 57 59 61 62 60 59 58
34 36 35 32 34 33 33 35 35 36 34 33 31 32 27 31 27 31 27 36 52 47 41 42 41 47 58 56 57 56 52 56 51 57 61 54 53 54 56 59 60 64 62 59
38 38 35 30 33 33 34 34 35 33 32 37 32 33 38 42 35 31 28 28 30 37 41 40 41 43 50 47 42 48 48 45 46 52 57 58 50 57 63 56 55 57 60 63
32 28 32 34 33 31 33 32 26 31 16 22 31 26 33 36 37 38 37 39 39 35 36 38 39 40 43 43 41 45 55 57 51 42 46 51 56 61 58 61 61 62 64 67
28 31 30 22 25 26 28 34 32 29 24 23 27 32 35 35 39 42 44 43 44 45 43 45 43 41 43 41 43 46 48 51 50 53 52 56 59 62 66 68 69 71 72 73
25 25 28 25 26 27 29 31 32 32 33 34 33 33 34 36 38 40 44 47 48 50 50 49 47 46 48 50 46 48 49 51 54 57 59 64 66 68 71 74 73 73 74 77
29 28 29 29 25 25 23 29 28 28 31 33 34 37 35 36 38 41 44 44 47 48 46 44 45 46 49 51 53 56 58 60 62 64 64 66 69 70 70 71 73 74 74 74
28 32 33 30 27 28 26 27 31 28 31 38 40 42 43 43 41 38 36 37 40 43 48 47 48 50 53 55 57 58 62 62 62 64 65 65 66 67 68 68 70 72 75 79
31 32 35 35 35 34 31 33 35 36 35 34 35 37 38 41 42 42 43 44 45 48 49 49 50 51 53 54 56 57 56 56 58 59 61 63 65 68 70 73 75 78 81 84
27 27 28 29 33 36 35 35 36 38 39 39 41 41 42 41 41 41 41 42 43 42 43 43 44 45 46 48 50 53 56 58 60 63 65 68 70 73 76 80 83 86 88 89
23 26 30 32 29 31 30 30 30 31 31 31 33 34 35 36 37 38 39 41 42 43 45 46 48 50 51 54 57 60 62 65 67 69 72 76 79 82 83 84 85 83 81 77
26 30 31 32 31 31 31 32 32 32 32 33 35 37 40 41 41 43 45 48 50 52 54 56 58 59 60 62 64 67 68 71 73 75 78 79 79 76 73 70 67 65 65 64
28 29 31 32 33 34 34 35 36 38 39 41 44 46 48 49 51 53 55 56 57 59 61 62 63 65 66 67 68 68 68 68 67 65 63 61 59 58 58 58 57 57 57 56
32 34 36 38 39 40 41 42 43 44 46 48 50 52 54 56 57 58 59 60 61 62 61 59 57 56 55 54 54 53 53 54 54 54 54 54 53 52 52 51 51 50 49 47

GFSNGP_500_spd_072.txt.gz
Wind_Speed
32 30 29 30 32 33 36 36 38 36 38 36 35 31 29 27 28 32 29 34 33 32 37 36 34 33 31 34 33 35 34 31 30 32 29 31 28 29 29 30 30 31 32 32
34 35 36 36 36 37 37 38 38 39 40 43 42 38 36 34 32 31 31 31 37 36 36 39 39 38 37 34 36 38 37 36 36 32 31 33 33 33 34 34 35 37 36 33
37 32 30 37 34 33 34 36 36 39 43 45 46 45 43 41 36 36 36 36 35 39 40 39 40 40 40 40 40 42 43 41 40 37 37 35 34 33 33 34 34 33 31 31
42 39 42 42 38 32 30 29 34 41 44 48 49 46 47 48 44 39 38 39 35 37 39 42 41 42 42 40 41 46 47 44 43 42 39 38 37 37 35 34 32 32 33 32
39 39 38 39 37 36 39 41 41 45 47 47 49 43 42 48 48 43 38 41 40 37 36 39 38 40 42 44 42 43 50 48 47 45 42 41 39 34 38 37 35 34 35 35
31 29 22 24 27 31 36 41 42 43 44 44 46 48 46 45 45 43 38 40 42 41 39 38 40 41 40 42 40 45 49 52 52 44 43 41 39 35 39 38 38 38 39 39
19 17 17 16 15 13 19 25 26 30 36 39 44 49 49 46 48 46 41 35 40 43 41 39 41 41 41 39 40 44 48 46 44 43 44 42 39 34 33 36 39 41 42 43
22 20 20 18 18 17 18 17 18 18 19 21 25 29 37 42 45 46 46 36 36 42 44 38 43 46 45 40 37 38 42 45 47 46 47 46 42 42 45 38 42 45 48 46
22 22 23 22 21 20 20 21 23 23 24 23 23 28 31 32 36 40 39 41 39 41 42 36 38 41 46 47 43 46 47 48 50 48 49 49 51 53 52 51 52 49 46 45
24 24 25 27 27 26 27 26 27 28 31 32 32 34 32 34 34 36 39 35 38 43 45 44 44 44 43 44 45 51 51 54 54 56 55 56 53 53 51 51 57 49 43 44
27 28 29 30 31 31 32 33 34 35 36 38 39 39 41 36 37 36 41 41 37 40 40 41 42 43 45 47 50 50 47 52 61 51 52 63 54 55 56 63 51 46 47 48
29 30 31 32 33 34 36 39 40 39 41 42 45 47 48 43 43 35 38 40 42 42 48 48 46 47 46 45 46 46 45 45 45 46 46 47 50 51 47 56 49 48 48 50
30 31 33 35 37 38 40 41 43 47 49 50 51 53 53 47 42 39 40 38 38 41 47 49 41 44 46 46 48 48 45 50 48 45 50 54 58 59 54 55 53 60 55 53
31 33 36 37 38 38 41 42 44 45 45 39 40 43 44 40 41 42 38 32 35 36 45 59 52 55 40 54 59 60 56 51 49 51 48 61 67 56 57 57 59 56 60 60
32 36 38 38 37 37 40 40 39 37 35 36 37 39 39 41 36 25 25 28 36 38 40 59 61 53 53 57 45 32 57 55 54 57 63 60 56 58 59 50 48 48 47 52
33 36 37 36 38 38 37 36 36 38 36 33 33 28 26 36 43 33 33 38 37 38 33 37 35 51 52 55 58 55 50 51 45 42 40 41 42 41 41 45 49 49 53 57
36 38 38 41 42 37 38 38 37 37 29 32 28 27 21 29 38 41 38 37 36 37 36 36 35 35 37 40 46 49 50 52 44 41 45 48 44 52 47 47 48 54 57 60
35 34 36 36 28 31 26 27 27 32 30 35 29 26 28 22 22 30 33 35 37 37 38 38 36 38 43 42 44 46 46 46 47 48 49 51 53 55 58 60 60 62 64 68
38 32 31 31 29 25 29 27 28 29 31 27 28 29 28 29 30 31 33 33 34 37 38 40 41 40 42 45 48 53 53 52 52 54 55 54 57 59 62 63 64 66 71 73
29 32 30 30 30 26 27 28 27 28 28 29 31 30 31 34 36 37 39 40 39 40 40 39 41 44 46 48 48 48 48 50 52 55 59 62 63 64 66 68 69 70 70 72
25 28 32 34 31 32 32 30 31 29 32 31 32 32 33 35 39 44 47 47 47 48 45 43 43 43 44 47 49 53 56 58 58 60 61 64 66 65 64 64 64 65 66 69
29 30 30 32 32 31 32 35 37 38 37 38 38 40 41 40 42 42 43 44 45 47 49 51 51 51 54 53 53 54 54 55 55 56 58 59 60 61 62 64 66 69 71 74
24 26 28 29 31 34 33 32 34 35 39 41 40 41 42 45 46 46 45 45 46 46 46 47 47 48 49 49 50 51 52 54 55 57 60 61 64 66 69 71 73 76 78 81
24 26 28 29 31 32 33 33 33 33 33 34 36 38 38 39 40 40 41 42 42 43 45 47 49 50 51 53 55 57 60 62 64 66 68 71 73 76 77 79 80 80 80 78
28 28 28 28 30 32 32 33 34 35 36 37 38 40 41 41 43 43 45 46 48 49 50 52 55 58 60 62 64 66 67 69 70 72 73 73 74 73 72 70 68 67 65 64
27 28 30 32 33 34 35 36 37 39 40 42 43 44 46 47 48 50 51 53 54 56 58 60 62 64 65 66 67 67 66 65 63 62 61 61 61 61 61 61 60 59 58 57
33 35 37 39 40 42 43 44 45 46 47 49 50 52 53 55 56 57 58 58 59 58 57 55 54 52 50 49 48 47 46 46 47 48 49 51 52 52 51 50 50 50 50 50

GFSNGP_500_spd_078.txt.gz
Wind_Speed
23 22 18 11 19 14 23 24 35 31 29 25 29 18 25 34 30 32 36 37 34 35 40 40 39 39 35 34 32 33 34 33 30 30 30 31 32 31 30 29 28 29 28 29
24 24 27 23 23 14 32 18 18 26 22 24 16 9 29 33 29 31 29 27 29 31 30 40 41 39 39 40 39 39 38 35 34 35 35 34 34 34 33 33 33 32 32 31
27 33 33 30 24 21 22 24 23 25 20 29 23 28 36 24 28 25 28 28 29 29 29 27 31 32 43 40 40 41 38 38 38 38 38 38 38 38 38 36 37 38 38 37
37 35 34 28 26 27 28 23 23 23 19 21 29 34 30 29 35 28 28 30 30 31 31 32 32 33 30 32 36 42 43 42 43 42 40 41 41 41 41 38 38 39 39 41
42 44 41 31 31 34 29 24 24 24 25 35 35 35 32 37 36 30 28 33 33 31 30 32 34 35 35 35 36 40 41 43 47 48 47 44 48 44 43 45 44 42 42 42
37 38 42 41 37 38 30 27 37 35 33 38 37 30 33 36 37 37 35 35 31 28 34 32 31 34 39 40 41 41 40 43 42 44 51 54 50 49 50 48 51 47 44 46
32 34 35 31 34 29 27 32 37 40 42 39 37 37 35 37 35 39 32 34 29 32 33 36 36 36 39 41 44 46 48 49 50 50 49 52 54 56 57 58 54 50 56 52
27 28 30 25 18 20 18 21 29 33 30 23 28 28 24 24 26 24 22 24 24 26 27 28 31 36 41 43 44 48 50 49 51 54 53 51 54 56 57 53 59 58 56 56
20 18 18 24 31 34 28 30 30 23 21 22 21 20 20 22 24 24 25 25 25 26 27 29 32 34 36 44 47 48 52 54 55 56 56 56 54 57 59 60 60 61 63 62
17 17 21 16 27 33 31 30 29 25 25 23 23 24 24 25 26 29 30 32 34 34 35 34 36 36 39 39 45 51 52 52 52 58 59 61 62 60 57 58 54 62 62 63
20 18 27 31 29 30 28 30 29 28 27 27 27 28 30 29 32 33 34 36 37 39 43 45 47 47 46 44 45 46 55 58 57 57 61 63 66 64 61 56 59 59 62 64
29 24 23 30 29 28 30 31 33 31 30 32 31 32 33 33 35 36 38 40 43 46 48 50 53 54 53 52 49 49 51 58 56 58 60 62 63 61 64 65 63 61 57 66
32 34 38 36 36 38 36 34 35 34 33 34 34 35 36 36 37 39 41 45 48 51 54 56 58 60 62 60 58 53 49 54 52 53 55 61 62 63 62 63 65 64 63 64
32 40 37 38 38 38 39 38 37 37 37 37 37 38 39 40 42 44 47 48 51 54 55 55 52 52 47 46 45 52 51 51 61 40 41 44 51 46 55 37 46 53 47 54
27 33 36 39 40 39 39 39 38 39 39 40 40 40 41 42 44 46 48 50 52 50 49 51 45 34 26 31 32 34 40 49 53 56 46 45 49 47 65 64 67 61 64 71
33 32 34 36 36 38 39 40 40 41 41 43 44 43 43 45 46 47 48 48 47 42 40 37 43 35 41 29 26 29 32 30 32 32 30 38 47 40 42 47 42 43 42 45
32 32 34 35 36 39 41 42 43 43 44 44 45 45 45 45 48 44 45 44 43 41 41 35 30 31 28 33 35 34 31 31 32 30 32 31 31 33 33 36 36 36 39 45
33 37 39 40 41 42 44 46 49 50 51 50 50 47 45 41 39 38 37 40 40 39 39 38 34 35 38 34 32 33 34 34 36 36 34 36 37 38 40 41 39 42 45 46
38 36 38 41 42 44 44 42 41 42 43 41 38 38 38 39 39 39 40 39 39 40 38 37 35 36 36 38 38 38 39 39 41 41 43 43 42 42 43 45 46 47 50 52
30 32 35 36 37 39 38 36 37 34 35 38 39 39 42 44 41 41 38 39 38 40 43 43 42 40 37 39 38 39 39 40 41 43 44 44 44 44 45 46 46 49 51 53
32 34 36 38 40 40 40 41 42 42 42 42 42 41 39 42 44 42 42 42 43 42 44 44 43 44 44 44 44 43 43 43 44 44 45 46 47 48 48 49 50 52 54 56
31 32 33 33 33 33 34 35 39 40 39 40 39 39 41 42 43 44 44 44 45 44 43 41 40 40 41 42 42 43 44 44 45 45 46 47 49 50 52 53 55 57 58 59
38 37 36 35 34 33 34 35 35 35 35 36 38 40 41 41 41 42 41 40 39 39 39 40 40 41 42 42 43 44 46 47 48 49 51 53 54 56 59 61 63 66 68 69
36 35 35 35 36 36 37 37 37 37 38 38 37 36 36 36 37 37 38 38 39 40 42 43 45 46 47 47 48 49 50 51 52 54 56 59 61 64 66 68 70 72 72 72
28 31 33 34 35 36 36 36 36 35 36 36 36 37 38 39 40 42 42 44 45 46 48 49 50 50 51 52 54 55 57 58 59 61 63 64 66 67 67 66 65 63 61 59
33 34 35 37 38 39 40 40 40 41 41 42 43 44 45 46 47 48 49 51 53 54 55 55 56 56 56 56 55 54 54 54 55 55 55 54 54 53 51 50 49 50 51 54
42 43 44 46 47 47 47 47 48 49 50 51 52 53 54 54 55 56 56 56 55 53 51 49 48 47 46 44 43 42 41 41 41 41 41 42 43 44 46 48 51 53 55 55

GFSNGP_500_spd_081.txt.gz
Wind_Speed
19 18 22 11 18 14 28 24 33 30 37 40 26 33 45 50 45 44 43 36 31 30 28 30 35 34 31 28 34 36 37 34 30 30 30 31 30 30 29 28 29 29 28 26
24 24 23 24 15 21 21 18 35 30 19 23 28 30 24 33 44 43 43 42 36 37 35 34 38 39 37 36 33 33 38 38 37 35 34 32 32 32 34 31 30 33 31 30
29 29 26 26 21 17 22 17 16 28 24 14 20 20 24 26 29 31 41 41 36 41 40 37 37 44 39 34 32 37 34 38 41 42 40 37 37 38 36 36 36 33 33 35
32 36 32 26 28 23 18 18 17 14 23 21 21 29 21 29 33 24 23 28 33 29 28 29 30 33 33 30 29 30 38 40 41 42 42 42 42 41 40 40 40 41 40 39
36 37 38 28 30 29 29 23 23 22 24 28 26 23 27 34 26 26 27 30 30 31 33 34 35 35 36 35 34 35 36 35 34 37 42 44 44 44 42 47 48 44 46 47
32 38 41 35 30 30 32 27 29 29 28 26 32 33 33 30 29 28 28 29 32 34 35 35 35 35 36 38 40 41 43 44 44 43 43 45 44 47 48 49 48 51 49 50
31 36 38 37 41 41 40 41 36 33 34 32 33 36 38 35 33 33 32 37 35 34 34 34 34 35 36 38 40 42 44 45 48 50 48 48 47 48 50 52 52 55 55 55
28 32 34 30 30 33 38 37 27 29 34 37 35 36 42 47 47 46 44 38 32 27 27 29 30 32 34 37 41 44 46 49 51 53 54 53 50 51 54 55 54 57 58 58
13 15 19 22 23 26 23 24 23 24 27 25 26 31 35 34 33 32 31 28 27 27 29 31 32 33 34 35 38 41 45 50 55 57 58 59 60 60 57 57 57 59 61 61
13 15 17 18 17 18 23 24 30 19 24 29 34 36 33 30 28 28 28 29 31 31 32 33 34 35 36 38 41 43 45 46 47 55 63 63 62 65 67 65 62 64 60 58
20 15 16 20 25 32 34 37 35 36 38 35 33 32 31 30 31 32 32 32 32 33 34 35 36 38 41 43 45 47 50 52 52 52 52 59 66 66 65 67 70 68 65 67
15 17 25 25 21 41 22 22 30 37 39 35 34 34 33 33 33 34 35 36 37 38 38 39 40 41 44 48 50 53 56 59 59 58 59 57 60 65 69 68 65 63 63 62
22 16 21 27 25 35 42 33 33 34 35 36 36 36 36 36 37 39 39 40 41 41 42 42 44 46 49 51 55 59 61 62 61 62 62 62 58 59 66 63 57 61 65 64
28 35 31 29 27 33 34 40 36 35 34 35 37 40 40 41 42 42 43 43 44 45 46 48 50 51 53 51 56 50 46 34 39 41 44 47 49 55 54 54 64 50 59 64
25 27 32 33 35 39 41 41 42 40 39 40 42 44 45 45 45 46 46 46 47 48 50 51 53 53 54 48 44 36 39 41 37 34 32 29 34 35 44 46 53 48 39 42
29 27 29 30 33 36 40 44 45 45 45 46 48 49 49 49 49 49 49 49 49 50 51 52 53 53 49 49 44 38 39 40 43 39 31 29 28 27 27 27 33 40 40 43
30 32 35 37 38 39 39 39 40 43 45 47 48 49 51 51 52 51 51 52 52 52 52 50 48 47 46 46 41 44 41 40 42 40 35 32 33 33 33 33 33 34 35 36
29 31 32 34 35 37 40 41 41 43 45 47 49 52 54 55 55 55 53 51 48 47 45 45 44 44 43 41 38 39 42 39 40 40 39 39 39 39 38 36 37 38 41 42
32 34 37 38 38 37 36 35 36 38 39 40 41 40 40 43 45 44 44 45 46 46 45 44 43 42 42 45 43 39 41 44 43 41 42 43 43 42 41 40 40 39 41 43
32 31 31 33 34 34 36 36 38 40 41 40 39 40 40 40 39 43 44 44 44 45 45 44 45 45 43 43 43 44 45 46 44 42 43 44 44 44 43 43 43 42 41 42
33 33 33 35 38 38 38 39 40 41 43 43 40 38 38 40 39 41 42 41 42 42 43 45 46 47 47 46 46 45 44 44 44 43 44 45 45 45 45 45 45 45 45 45
36 37 38 39 39 39 41 41 42 39 37 37 37 38 39 40 40 40 40 40 42 42 43 44 45 44 43 43 43 43 43 44 44 44 44 44 45 46 47 48 49 51 53 54
39 40 41 42 44 46 46 43 40 40 40 40 39 40 40 41 41 40 39 39 39 39 39 39 39 39 40 41 41 42 44 45 47 48 49 49 49 50 52 53 55 57 59 60
23 24 27 30 32 34 36 38 39 40 40 40 40 39 39 39 39 38 38 38 39 40 40 41 42 44 45 46 47 48 50 51 52 53 54 55 56 57 58 59 59 60 60 59
31 31 32 33 35 36 38 38 39 39 40 41 41 41 40 41 42 43 43 44 45 46 47 47 48 49 50 51 54 55 56 55 55 56 56 55 55 55 55 54 54 52 52 51
39 42 44 45 47 48 48 48 47 46 46 47 47 48 49 50 50 50 50 51 52 53 54 54 55 56 56 57 56 56 55 54 53 50 48 46 46 46 45 45 45 45 46 47
46 45 46 47 48 48 49 50 51 51 49 49 49 49 50 50 51 52 53 54 54 54 54 53 52 50 49 47 46 43 41 40 39 39 39 40 40 41 41 42 43 44 47 49

GFSNGP_500_spd_084.txt.gz
Wind_Speed
20 21 23 21 21 15 17 19 42 34 31 40 34 23 32 55 53 54 47 45 42 36 32 30 29 28 28 25 29 33 33 35 33 36 34 33 33 33 33 33 31 32 31 30
24 25 26 26 16 19 17 12 30 39 24 40 19 20 30 41 55 52 51 49 43 40 42 36 33 31 31 28 30 32 28 33 35 34 38 40 39 39 38 36 35 36 34 33
27 30 30 27 21 21 21 12 21 28 33 25 24 22 29 38 31 53 50 50 48 46 41 39 37 37 37 36 38 40 39 40 39 37 40 38 39 42 41 39 39 39 39 38
30 33 34 24 23 21 21 22 16 18 18 33 23 13 15 23 18 26 45 45 42 40 43 49 43 45 44 47 43 41 42 40 40 40 41 41 42 43 42 42 43 43 42 42
35 34 35 29 31 25 19 26 26 20 16 17 22 20 20 24 26 24 29 27 21 27 35 33 38 42 42 38 36 33 32 34 39 36 37 41 46 47 47 48 48 47 47 45
39 38 37 30 26 19 22 27 27 27 26 15 15 22 23 20 23 21 25 27 29 29 34 36 37 38 40 40 39 42 42 40 40 39 38 39 45 46 46 48 50 52 52 53
26 36 40 28 33 29 29 29 23 23 26 23 21 20 24 27 29 29 32 38 35 34 35 38 37 39 42 43 45 46 46 45 45 44 46 48 47 50 55 55 55 56 56 55
17 29 37 27 29 36 39 35 32 33 33 36 31 30 32 35 37 36 35 34 35 37 39 40 40 41 43 45 44 44 46 47 47 48 49 51 51 53 54 56 58 60 61 61
17 16 19 21 26 30 29 33 33 33 32 33 30 29 34 35 38 41 44 46 46 45 44 44 43 42 40 38 37 37 38 40 41 43 45 49 52 56 59 61 62 63 65 68
10 9 12 16 18 23 24 30 29 27 27 27 27 28 34 38 35 39 40 41 40 39 36 37 38 38 37 37 37 38 39 41 43 44 47 49 52 55 58 62 65 68 71 73
14 15 13 14 22 20 20 21 28 30 26 28 24 33 33 40 42 42 40 36 35 34 34 36 37 39 39 39 39 40 41 43 45 48 50 52 55 58 60 61 64 66 69 69
16 13 17 14 17 20 25 24 35 33 30 35 38 38 37 39 38 38 36 36 38 38 39 40 41 41 41 41 43 44 45 46 48 50 52 54 56 58 62 65 68 72 71 69
18 9 14 17 26 27 29 27 27 34 32 33 35 37 37 38 37 37 38 40 41 42 43 44 44 45 46 46 48 49 51 52 52 54 54 54 54 54 57 57 60 70 72 69
20 23 23 23 27 24 25 24 23 23 29 33 35 35 35 38 38 40 41 42 43 44 45 47 48 49 51 52 53 54 56 56 55 55 54 53 51 48 44 45 45 46 48 56
21 27 28 28 28 29 30 31 30 31 33 35 41 42 43 41 42 43 44 46 47 48 49 51 51 52 53 54 55 56 56 56 57 55 52 51 49 47 46 45 41 40 39 40
28 28 28 29 30 30 30 30 32 31 35 38 40 42 44 45 46 48 49 51 52 52 54 54 55 56 57 57 57 57 58 57 55 53 50 48 47 45 46 46 45 42 41 41
30 33 33 34 35 36 37 37 37 37 40 40 41 43 45 46 48 50 52 54 54 55 57 58 59 59 60 60 59 57 54 50 49 48 46 44 43 43 43 42 43 43 42 41
32 33 34 36 39 41 42 42 44 45 44 44 45 46 48 49 51 52 54 55 56 57 58 59 58 56 54 52 51 50 49 47 45 45 45 45 45 44 45 46 46 47 47 45
27 29 31 34 36 37 39 41 42 44 44 43 42 42 42 43 44 45 46 46 45 45 45 47 49 47 47 49 49 48 46 45 45 43 43 47 47 45 44 45 44 44 44 44
30 32 34 35 36 36 37 37 38 39 39 40 41 42 42 44 46 48 47 47 46 43 43 45 46 48 47 45 46 47 46 46 47 46 46 45 46 45 46 46 47 46 46 48
29 31 33 34 36 37 38 40 42 43 43 43 42 44 46 48 45 43 45 45 45 45 45 45 44 45 46 46 47 47 47 47 46 44 44 44 45 46 46 47 48 49 49 48
34 38 40 42 44 44 45 45 45 46 47 49 51 53 50 48 47 45 43 43 43 43 43 43 44 45 45 44 44 43 43 43 44 45 45 45 45 45 46 47 49 50 51 52
31 29 28 28 30 33 37 40 43 44 45 45 46 45 45 46 46 46 46 46 46 46 46 45 44 43 44 44 44 44 45 45 46 47 48 49 49 50 51 52 54 55 56 58
31 32 33 33 34 35 36 38 40 42 42 43 43 44 45 45 45 46 46 45 45 45 46 46 46 46 46 47 48 49 49 49 50 51 53 54 55 56 56 57 58 58 59 59
39 40 42 43 44 47 49 50 51 51 50 49 49 48 48 49 50 50 51 51 51 51 51 51 51 52 53 54 54 54 54 56 57 58 58 57 57 57 56 54 52 51 51 50
44 46 48 51 51 51 50 51 51 52 53 53 53 53 52 51 51 51 52 53 54 55 55 56 57 57 57 57 57 57 56 55 53 52 49 46 45 44 43 43 44 44 45 45
50 50 51 52 52 52 52 52 51 50 50 52 52 53 53 52 52 52 51 50 50 50 50 50 49 48 48 47 45 44 43 41 39 37 36 36 37 38 38 39 39 40 41 43

GFSNGP_500_spd_087.txt.gz
Wind_Speed
22 23 23 22 22 22 19 18 17 24 35 29 25 23 11 37 40 46 44 46 44 41 41 39 35 34 31 30 29 27 28 30 34 36 37 37 35 37 38 38 36 34 34 32
23 25 24 25 20 23 22 18 18 20 24 36 27 23 23 26 42 48 43 42 48 48 45 43 39 41 38 34 32 31 31 30 33 31 34 43 36 36 36 36 38 39 37 37
25 26 26 25 23 26 25 20 19 13 13 28 34 11 16 25 24 43 49 49 52 53 46 44 39 41 40 38 35 31 30 30 31 35 35 32 34 39 42 41 41 42 41 42
27 27 30 28 26 28 24 22 22 14 10 6 27 18 16 28 27 28 31 41 43 46 44 46 44 46 45 41 37 35 36 36 37 40 41 43 43 44 43 47 48 47 46 44
29 30 32 27 30 31 28 21 22 19 12 7 21 24 17 25 23 19 26 30 19 37 50 46 47 52 53 52 44 44 44 42 42 40 39 40 41 43 43 47 49 51 51 51
33 34 35 31 32 33 34 29 25 22 18 11 16 19 30 21 20 10 16 16 13 18 18 32 49 50 38 40 38 35 40 42 39 38 38 40 42 43 45 45 45 50 52 53
31 36 39 37 34 37 33 30 29 26 21 18 21 19 15 16 12 21 21 19 21 23 26 26 26 27 29 33 36 40 43 42 42 40 40 43 46 49 50 51 50 51 52 55
16 20 25 21 32 42 38 30 26 23 22 19 20 19 21 23 25 25 26 29 28 26 30 32 33 34 34 36 39 41 43 45 47 47 49 48 48 49 50 51 52 54 57 59
21 19 15 15 31 38 38 40 35 30 29 29 28 29 33 28 26 28 31 33 35 36 35 35 37 38 40 45 45 46 44 45 44 43 40 41 42 43 45 47 49 52 54 57
16 14 8 13 21 27 28 31 37 38 37 36 32 31 27 27 23 23 29 28 33 38 40 41 42 41 41 43 46 45 44 43 42 42 42 44 45 46 48 50 51 53 55 58
11 12 13 9 15 17 19 25 30 28 32 33 34 31 30 33 32 33 38 34 34 34 36 36 34 35 36 37 38 39 41 42 43 43 45 47 48 49 50 52 54 56 60 62
16 18 15 19 12 12 17 18 23 23 26 33 32 34 29 26 33 33 36 38 36 38 40 37 36 36 37 38 40 41 42 44 46 47 48 50 51 53 54 56 57 58 61 64
8 9 9 6 14 19 23 19 15 19 28 33 35 37 39 39 34 37 34 37 39 42 40 41 41 43 43 44 46 47 49 50 51 51 52 54 55 56 58 59 58 58 59 59
11 13 14 16 19 17 22 17 26 29 18 21 27 34 34 33 31 33 35 35 37 40 42 43 44 46 47 48 49 50 51 52 54 55 56 58 60 61 61 60 61 61 60 57
15 15 17 19 20 19 20 20 22 25 24 25 24 25 29 33 37 40 41 42 42 43 45 45 46 48 51 53 54 55 56 56 57 58 59 60 61 61 62 63 64 63 60 58
22 22 23 23 25 27 26 27 26 25 26 28 30 32 34 35 38 42 44 47 47 51 53 52 52 53 55 57 59 60 61 61 62 62 63 63 64 65 66 64 61 58 56 55
25 25 26 28 31 34 34 34 34 35 35 36 38 39 39 39 42 43 44 46 48 49 51 52 54 55 56 58 59 61 63 64 65 65 65 64 62 60 58 57 55 52 52 53
29 31 33 34 35 37 39 39 40 41 42 44 45 45 45 45 45 45 46 47 48 50 51 53 55 56 57 58 58 58 56 57 57 56 56 54 53 51 49 48 49 50 51 51
32 32 32 34 35 36 38 41 42 44 44 45 47 48 48 48 47 47 47 47 48 49 51 53 54 54 52 52 51 50 48 48 49 50 49 49 49 48 48 50 51 50 48 48
27 28 30 31 33 34 36 37 39 40 41 43 44 45 45 45 45 46 46 45 45 47 48 48 47 48 50 51 51 51 51 50 49 48 50 50 52 51 50 49 49 49 49 49
27 30 33 35 37 39 41 42 44 44 44 45 46 47 48 47 47 48 49 51 53 55 54 51 48 46 47 48 49 48 48 49 50 50 50 50 49 49 48 47 47 47 48 49
33 31 34 36 37 37 37 38 39 42 45 47 50 52 53 54 54 55 55 55 56 54 52 51 51 51 51 50 50 49 50 50 50 50 49 49 49 49 49 49 49 49 50 51
33 36 37 37 36 36 37 39 40 41 42 44 45 45 46 47 47 48 49 50 50 51 51 51 51 51 51 51 52 52 52 52 52 51 52 51 51 52 52 53 54 55 56 57
35 37 40 42 44 46 47 48 49 50 51 52 53 54 53 53 54 54 54 53 53 52 52 52 52 52 53 53 53 53 54 55 55 55 55 55 56 56 58 58 59 59 59 59
42 45 48 49 51 52 53 55 56 57 57 57 56 55 55 55 55 54 54 53 54 54 54 54 55 55 55 55 57 58 59 59 60 60 60 60 60 58 56 55 53 51 49 48
49 50 52 54 54 55 55 56 56 56 56 56 56 56 56 55 55 55 55 55 55 54 55 55 55 55 55 55 55 54 53 53 52 51 50 49 48 46 43 41 41 40 39 39
52 53 54 55 56 56 54 53 51 49 48 47 47 47 47 48 48 48 48 48 47 47 46 46 46 46 46 46 46 45 45 43 42 41 39 38 37 35 35 35 36 37 38 39

GFSNGP_500_spd_090.txt.gz
Wind_Speed
22 23 24 26 23 21 21 19 19 15 21 21 19 23 19 3 17 22 30 42 43 45 45 44 44 38 34 31 32 30 31 29 32 33 33 32 32 33 33 32 32 32 34 34
23 24 26 26 23 24 23 20 21 17 21 21 24 23 17 8 13 21 28 37 46 52 48 46 44 41 40 37 33 33 28 27 26 25 28 29 30 33 32 40 38 37 35 37
25 25 27 27 25 25 24 20 19 17 18 14 16 15 19 12 16 20 23 34 46 53 49 48 45 43 43 40 38 32 34 34 29 27 27 28 28 29 32 27 26 35 39 39
27 26 27 26 26 26 25 20 19 17 13 11 8 14 26 10 14 25 26 19 47 44 51 48 46 51 44 43 41 36 38 36 32 30 31 31 31 32 35 35 38 39 39 43
29 27 28 26 28 27 28 23 20 18 15 17 12 12 18 20 21 13 11 20 25 32 57 50 54 55 52 50 45 41 43 42 39 38 36 35 37 38 38 37 37 39 43 42
25 27 27 27 22 27 31 25 22 23 19 19 16 14 18 15 18 9 8 10 9 21 14 33 53 62 58 54 47 46 45 48 47 45 46 46 41 39 40 41 42 43 45 48
26 27 26 26 27 30 35 30 27 28 26 22 22 19 17 15 18 16 16 12 15 14 16 17 21 15 29 41 47 53 52 48 49 47 44 39 38 38 43 47 45 47 50 52
25 27 24 22 28 30 34 37 34 30 29 25 23 19 18 21 21 22 20 18 18 18 22 23 25 26 26 28 27 27 30 33 35 37 38 39 40 42 43 44 47 49 49 49
21 17 14 14 18 24 32 34 33 30 29 26 17 17 29 27 21 21 24 26 29 28 26 25 29 30 29 30 30 30 32 35 38 38 38 37 40 38 38 40 41 41 42 44
11 16 14 18 19 23 23 21 24 29 31 30 28 26 28 33 28 25 20 23 26 27 26 26 29 30 30 33 34 34 35 38 39 38 39 39 39 39 40 41 42 44 46 47
17 9 12 12 11 11 11 16 23 25 35 35 36 38 37 35 32 31 29 31 31 33 35 37 35 32 31 30 30 31 32 34 35 35 38 40 41 42 43 44 46 48 49 50
8 13 10 9 13 18 14 13 16 17 23 32 37 39 37 38 37 36 33 33 42 43 43 43 38 35 33 32 31 32 34 36 38 39 41 43 45 46 48 50 52 53 54 55
9 6 7 4 8 12 20 17 16 17 19 20 29 31 32 35 40 40 42 41 37 36 34 34 36 37 36 36 38 38 39 42 44 46 46 48 49 51 53 54 56 57 58 59
10 9 11 10 12 14 14 15 14 14 16 20 19 21 26 30 31 31 35 36 30 30 31 31 34 34 34 35 37 39 41 43 45 47 49 52 53 55 56 57 58 59 61 62
17 13 14 14 15 16 15 16 18 17 16 18 21 23 22 24 22 27 29 30 32 35 37 37 39 41 43 45 47 49 50 52 53 55 57 59 60 60 61 62 63 64 65 66
15 16 20 22 21 20 20 20 21 23 22 22 23 25 26 28 28 30 33 35 38 39 40 42 43 45 46 48 50 52 53 55 56 57 58 59 60 62 64 65 66 67 67 67
17 19 21 22 23 24 26 28 29 29 29 30 32 33 34 36 37 39 40 41 42 43 44 46 46 48 50 51 53 54 56 57 58 59 59 60 61 61 62 63 62 62 61 61
20 20 22 26 27 28 29 30 32 33 34 35 37 38 40 41 42 42 44 45 47 48 49 49 50 51 52 53 55 56 58 59 59 59 58 57 56 55 53 53 52 53 52 51
22 25 28 30 29 30 31 33 35 37 38 40 41 42 43 44 46 47 48 50 51 51 52 52 52 52 52 51 50 51 51 52 52 53 53 54 54 54 54 54 52 50 50 51
24 27 28 31 31 29 30 33 35 37 38 40 42 42 44 45 46 46 47 48 49 50 51 51 51 52 53 53 55 56 55 53 52 52 53 54 54 55 54 54 54 54 55 55
25 27 28 29 32 35 36 36 38 41 41 42 42 43 45 48 51 52 54 54 54 55 56 56 57 58 58 59 61 61 59 56 55 55 54 53 52 52 52 53 54 55 55 55
29 32 34 35 36 38 40 42 42 42 42 42 43 44 46 47 48 48 49 49 50 51 52 54 55 56 57 57 57 56 56 56 57 57 56 56 55 55 55 55 56 56 56 56
32 34 37 40 40 41 42 43 45 47 49 50 51 52 53 54 55 55 56 56 57 57 57 57 57 57 57 56 56 56 56 56 56 56 56 56 56 56 56 57 57 58 59 59
38 39 41 42 44 47 50 52 54 56 57 58 59 59 60 60 61 61 61 60 59 59 58 58 57 57 57 58 58 58 58 58 58 58 58 59 59 60 60 61 61 62 62 63
41 43 46 49 52 55 56 57 58 58 59 59 60 60 61 61 61 61 60 60 60 60 59 59 58 58 59 59 59 60 60 60 60 60 60 60 59 59 58 58 57 56 55 54
47 50 53 55 56 56 57 58 59 58 58 57 56 55 54 54 53 53 53 53 54 54 53 53 53 53 52 52 53 53 53 53 53 53 53 52 51 50 49 48 47 46 44 43
52 53 54 55 56 56 55 54 52 50 48 46 45 43 42 40 40 40 40 40 40 39 39 39 39 40 40 41 41 42 42 42 42 41 41 40 39 38 37 37 36 36 36 37

GFSNGP_500_spd_093.txt.gz
Wind_Speed
22 21 21 23 24 25 25 24 21 21 14 14 17 17 18 17 22 10 20 14 32 39 47 48 43 38 40 43 40 36 35 33 33 34 34 33 31 31 30 29 29 29 29 31
26 25 24 22 23 25 23 21 18 18 17 13 18 11 15 9 14 15 6 18 29 28 44 43 42 41 42 43 41 41 37 33 33 34 36 35 35 36 34 30 20 23 23 31
20 20 22 21 22 23 19 19 18 15 15 12 11 8 11 12 14 16 13 20 34 27 40 42 42 45 48 48 46 41 37 37 33 30 23 25 25 25 22 24 24 26 26 25
22 20 17 18 20 21 18 19 19 18 16 14 15 7 9 8 13 14 13 16 16 33 44 46 48 49 51 49 44 43 44 50 30 23 25 25 21 21 23 25 27 28 31 32
21 23 20 20 21 21 19 19 18 18 17 15 18 18 11 15 14 17 12 14 20 19 33 49 54 54 52 49 47 50 50 39 35 33 34 31 28 28 29 30 32 34 32 32
18 20 22 19 20 23 23 17 20 18 18 17 20 18 15 5 8 7 13 8 10 11 19 27 51 49 52 55 52 64 59 48 31 39 40 37 36 35 35 37 39 42 41 38
18 17 16 17 18 20 22 25 22 21 20 21 21 20 20 18 9 11 14 16 13 13 12 19 20 32 56 62 61 62 62 45 43 46 43 41 43 45 44 45 46 45 44 43
17 16 15 16 17 20 23 27 28 26 26 26 24 20 23 23 19 16 21 21 19 18 16 15 19 20 17 19 21 26 30 39 51 55 51 48 49 50 49 46 46 45 44 47
15 15 11 13 16 20 21 26 28 30 29 28 28 28 24 23 22 25 24 22 17 23 16 15 16 18 24 25 23 24 24 23 27 30 28 29 33 35 36 40 40 42 45 45
14 11 10 12 13 17 19 21 21 21 23 25 27 28 24 23 20 20 9 14 17 16 16 16 20 22 22 22 26 29 30 31 28 30 29 32 35 38 38 39 41 42 42 42
9 11 9 11 12 11 7 7 10 15 19 29 28 37 38 34 27 23 24 22 21 23 23 23 24 27 30 30 30 31 27 26 26 29 30 34 38 38 39 39 41 43 45 46
7 8 11 9 12 12 12 11 11 10 14 20 33 41 41 41 39 38 36 33 30 29 29 29 29 33 37 38 34 34 33 30 29 28 30 33 35 37 40 41 44 45 47 49
10 6 6 6 8 7 5 5 10 16 18 15 18 24 40 45 42 39 34 30 29 31 34 35 33 33 33 33 32 31 31 33 33 33 35 38 40 42 43 44 46 47 49 51
14 18 15 12 10 10 10 12 14 14 10 13 11 19 18 21 34 40 37 35 36 33 35 39 37 34 33 33 33 33 33 34 36 37 38 40 42 44 46 48 50 52 53 55
11 13 12 12 12 14 15 16 16 17 16 17 18 17 15 19 24 25 28 31 33 33 32 32 35 38 38 39 39 39 39 40 41 42 44 46 47 49 51 53 54 56 57 58
21 14 15 16 19 20 22 21 21 20 21 22 23 24 24 24 25 27 29 31 33 34 37 39 40 41 43 44 45 45 46 48 49 50 51 52 54 55 56 57 57 57 58 60
19 19 20 22 22 21 22 21 21 22 23 24 26 26 27 29 30 32 34 36 37 40 41 43 45 46 47 49 50 51 51 51 52 53 53 54 55 57 58 60 60 61 61 60
21 22 23 25 24 22 22 23 26 28 29 29 32 32 33 35 36 38 40 41 41 42 44 45 46 48 48 50 51 52 53 54 55 55 55 56 57 57 57 57 57 57 56 55
22 23 24 24 23 24 26 27 29 31 33 34 36 36 38 40 42 44 45 45 46 48 48 49 49 50 50 52 52 53 53 53 54 54 55 55 55 56 55 56 54 54 54 54
20 22 24 25 27 28 30 31 31 33 34 36 38 38 38 40 42 44 45 46 49 51 53 54 55 55 55 55 55 55 55 55 56 56 56 57 58 58 57 56 56 55 54 54
22 24 26 28 30 32 34 34 35 36 38 39 40 40 41 42 43 44 44 45 47 48 48 49 48 48 48 49 50 51 52 52 53 54 54 55 55 54 54 54 54 55 55 56
25 27 29 31 33 35 37 39 40 41 42 43 45 46 48 49 50 51 52 53 53 54 54 55 55 56 56 56 56 57 57 57 56 56 56 56 56 56 56 56 56 57 57 57
29 32 35 37 39 40 42 44 46 47 49 51 52 54 55 56 56 57 58 58 58 59 59 59 59 59 59 59 59 59 59 59 59 59 59 59 59 58 58 58 58 59 59 60
35 37 39 40 42 44 47 50 52 53 54 55 56 57 58 58 59 60 61 61 61 62 62 62 61 61 61 61 60 60 60 60 60 60 61 61 61 61 61 61 61 61 61 61
39 42 45 47 50 52 52 53 54 55 56 57 58 58 59 59 59 59 59 59 59 59 58 58 57 57 57 57 57 57 57 57 57 58 58 58 58 58 58 58 57 57 56 55
45 47 50 50 50 52 53 53 54 54 54 54 54 53 51 50 50 49 49 48 48 47 47 46 46 46 46 45 45 45 45 46 46 47 47 47 47 47 47 47 46 46 45 44
49 50 49 51 51 51 51 52 52 51 48 46 44 43 43 42 42 42 42 41 40 39 38 37 37 37 37 37 37 38 38 38 39 39 39 38 38 37 37 37 36 36 36 36

GFSNGP_500_spd_096.txt.gz
Wind_Speed
19 18 18 18 19 20 19 20 19 18 17 19 16 15 17 14 20 24 26 27 33 36 33 41 48 51 56 53 49 51 48 40 33 33 35 34 34 34 34 33 31 30 29 28
22 21 18 19 22 21 21 21 19 16 16 16 18 13 14 16 14 12 21 22 30 39 45 41 49 55 61 52 52 49 44 38 35 38 38 37 38 39 39 37 34 34 34 29
21 21 22 21 21 20 20 19 16 18 15 11 13 12 15 17 17 13 14 14 9 33 40 41 46 53 51 46 52 45 44 44 42 42 41 41 42 43 44 41 40 38 29 27
12 19 19 19 18 18 18 17 16 17 14 13 13 14 15 20 15 14 12 10 12 6 29 33 43 46 41 51 48 45 45 48 44 43 40 38 40 37 41 41 34 27 29 29
10 14 15 17 14 14 17 16 17 17 17 14 14 17 17 17 14 10 11 12 13 19 14 36 53 41 44 48 43 48 46 50 44 43 46 50 45 37 28 31 29 30 30 29
15 15 19 25 23 18 15 16 19 18 17 15 15 17 18 16 22 12 11 15 14 16 17 22 29 40 45 46 45 47 48 51 49 48 44 45 39 35 30 34 35 34 33 33
17 12 13 17 19 22 19 19 20 18 17 15 16 17 19 16 21 26 20 15 14 12 14 18 21 21 48 51 55 60 59 58 56 53 54 61 57 42 37 39 38 38 39 39
13 13 15 17 18 18 18 19 19 18 18 18 19 20 19 16 19 21 21 23 27 22 17 17 18 22 19 28 49 57 55 60 61 58 63 57 46 41 43 43 44 46 45 43
13 12 14 16 18 18 19 19 21 22 22 24 26 26 26 27 22 18 22 19 18 21 23 22 20 19 18 20 23 19 27 28 33 37 46 49 50 51 48 50 49 49 50 48
12 11 13 15 16 18 19 19 20 20 21 24 27 30 32 33 33 33 30 33 24 17 16 16 16 14 16 17 20 21 20 20 20 20 24 29 29 29 32 34 35 35 35 37
13 10 15 13 17 17 16 16 18 17 17 20 22 25 31 33 32 31 30 26 21 19 18 19 19 19 19 20 21 23 23 24 25 26 28 29 30 30 31 34 32 34 37 40
11 9 14 13 12 12 13 11 12 13 9 9 11 18 31 34 40 40 36 34 33 33 31 28 27 26 25 27 28 27 28 29 27 27 27 28 28 29 30 32 34 36 39 40
10 10 10 13 14 14 16 16 15 10 14 15 14 15 17 22 32 42 45 43 41 34 30 30 30 31 34 34 35 34 32 32 31 30 31 32 34 35 35 36 38 40 42 43
18 16 14 13 12 13 11 13 12 12 14 14 16 12 14 19 21 21 21 28 29 32 33 30 29 28 30 31 31 33 32 32 34 34 35 37 37 37 38 38 39 41 42 44
20 16 18 20 18 17 16 17 18 19 21 21 21 21 22 22 21 22 24 25 26 27 28 29 29 29 30 30 32 34 35 36 38 38 38 39 41 42 43 44 46 48 50 52
22 19 17 17 19 20 21 23 25 26 27 28 28 28 28 28 30 31 31 31 32 33 35 36 38 38 38 41 42 44 44 44 45 45 47 48 49 50 52 53 54 55 56 58
27 24 21 20 20 23 26 28 28 28 29 30 30 32 32 34 35 36 39 40 40 41 41 43 44 46 48 48 49 50 51 52 53 53 53 54 55 56 56 57 58 59 60 61
23 21 22 22 25 26 28 30 32 32 32 32 33 34 35 35 37 39 40 41 42 43 44 46 47 49 51 53 54 55 55 56 57 58 58 58 59 60 61 61 61 62 61 61
21 22 25 27 28 30 31 33 35 36 35 36 36 37 38 39 40 41 43 44 45 46 48 49 50 51 53 55 56 57 58 59 60 60 61 61 61 61 60 60 60 60 60 61
18 21 25 28 29 31 33 34 35 36 37 38 39 40 41 42 43 44 46 46 46 47 47 48 49 50 51 53 55 57 59 60 62 63 64 64 64 64 64 64 64 64 65 64
19 21 24 27 29 32 34 37 39 40 41 42 42 43 44 45 45 45 46 47 48 49 50 51 52 52 52 53 54 54 54 55 56 57 58 58 59 59 60 60 60 61 61 60
23 25 27 29 31 34 36 39 41 42 43 44 46 47 48 49 50 51 52 52 53 54 55 55 55 56 56 57 57 57 58 58 59 59 60 60 61 61 62 62 62 62 62 62
26 29 32 34 36 39 41 42 44 45 47 48 49 50 50 51 52 53 54 55 56 57 57 58 59 59 60 60 61 61 62 62 62 62 63 63 63 63 63 63 63 63 63 62
32 35 37 39 41 43 46 47 48 48 49 50 52 53 54 55 56 57 58 59 60 60 61 61 61 62 62 61 62 62 62 62 62 62 62 63 62 62 62 62 62 62 62 62
38 40 42 46 49 51 50 50 51 52 53 53 53 54 54 55 55 55 55 54 54 54 54 54 54 54 54 54 54 54 53 53 53 53 53 53 53 54 54 54 54 54 53 53
42 45 48 51 50 50 52 52 51 52 52 52 53 53 51 49 47 46 45 45 45 46 46 46 46 45 45 44 43 43 42 42 42 41 41 42 42 42 43 43 44 44 43 43
46 49 49 50 51 51 51 52 53 52 51 48 45 43 42 41 41 40 40 40 40 41 41 40 39 39 38 38 38 38 38 38 38 37 36 36 36 35 35 34 34 34 34 34

GFSNGP_500_spd_099.txt.gz
Wind_Speed
16 15 19 20 19 18 17 18 15 17 16 18 13 16 16 16 17 18 18 27 32 33 27 34 34 38 42 46 54 54 54 54 55 52 44 37 33 31 31 34 35 34 32 30
18 20 16 17 15 15 15 13 12 11 17 15 15 15 17 17 19 20 15 17 21 26 25 32 35 33 40 48 54 54 54 57 57 51 44 38 36 36 34 35 36 37 37 37
18 18 15 14 15 16 15 13 13 17 18 15 15 15 17 17 18 18 19 18 17 25 30 37 37 36 38 48 54 55 56 56 58 51 45 46 41 41 39 38 40 42 42 43
21 20 19 18 16 14 17 16 14 15 15 16 15 15 16 16 15 14 14 17 14 13 16 19 38 41 40 46 53 57 58 53 55 53 51 48 44 42 40 39 41 45 47 48
18 24 15 16 17 15 16 13 14 14 14 16 16 15 18 17 15 15 16 12 11 12 15 16 17 47 47 44 52 54 50 58 55 52 52 47 47 42 44 41 46 44 51 52
7 9 14 15 16 16 14 13 14 15 16 15 16 17 18 19 14 13 19 17 22 12 11 12 14 17 45 53 52 54 54 52 52 54 66 49 45 44 56 40 53 49 44 39
6 12 16 16 20 22 22 19 18 17 17 17 17 17 18 18 14 12 17 20 23 21 20 16 12 15 19 40 51 54 64 69 63 62 59 51 50 51 50 44 63 50 41 38
9 13 16 17 16 16 18 23 22 21 20 20 20 19 19 19 17 17 18 17 15 20 25 22 18 17 16 18 23 44 56 52 60 70 54 50 65 53 57 50 50 50 47 46
12 13 15 16 17 17 18 19 20 20 21 21 22 22 23 23 24 23 19 20 17 22 24 25 24 22 25 24 22 22 17 29 45 55 64 72 59 56 66 57 60 61 66 58
13 15 16 16 16 17 19 20 21 20 20 22 23 24 25 25 27 28 30 31 35 31 30 30 26 20 20 24 28 26 23 22 25 31 33 32 44 43 52 63 73 75 75 64
14 15 15 17 17 17 18 18 19 20 20 21 22 24 24 25 27 29 32 32 32 34 30 28 23 22 20 20 21 22 25 27 25 24 25 28 24 23 23 26 30 34 40 41
13 15 15 18 17 14 16 17 17 16 16 18 20 19 20 21 23 28 32 35 32 34 34 32 30 28 28 26 25 26 25 25 26 25 25 26 26 25 30 30 32 33 34 36
13 15 17 15 19 17 18 19 21 21 22 22 22 20 18 18 18 19 23 34 39 42 46 44 42 37 33 34 33 32 32 33 34 33 33 29 30 30 30 31 32 34 36 37
15 15 14 14 16 18 19 20 22 23 22 19 17 18 20 21 22 23 22 22 26 25 27 32 31 34 32 32 31 33 32 32 33 33 34 35 35 36 36 37 39 41 43 44
23 21 19 20 20 20 18 19 20 21 22 23 24 25 27 28 30 30 30 30 29 30 30 31 32 30 28 30 30 31 32 33 34 36 37 37 38 39 41 42 42 43 45 46
23 22 22 20 18 22 28 27 27 27 27 29 31 32 32 33 34 34 36 36 37 38 38 39 39 40 40 39 38 38 38 39 40 42 43 44 45 46 47 48 49 50 52 54
26 28 26 26 25 23 23 27 30 31 33 34 35 36 37 37 39 41 42 42 43 44 45 47 48 48 49 49 49 49 49 49 50 51 52 53 54 54 56 57 58 59 59 60
19 23 27 31 30 29 27 30 33 34 35 37 39 40 42 43 44 44 45 46 47 48 49 49 50 51 53 55 56 57 57 56 56 56 58 58 59 60 60 60 61 61 63 63
20 21 23 26 28 31 33 35 37 39 40 41 44 46 48 49 50 50 50 50 51 52 52 53 54 55 57 59 59 60 61 62 62 62 62 62 63 63 64 64 64 64 64 64
18 20 23 26 28 32 35 37 39 41 42 44 45 46 48 49 49 50 51 51 52 53 53 55 56 57 57 58 58 59 60 60 61 61 61 61 62 61 62 62 62 62 61 61
17 19 22 25 28 31 34 37 40 42 44 46 47 49 50 51 51 52 52 52 53 53 54 55 55 56 57 58 58 59 60 60 61 62 62 63 64 64 64 64 65 65 65 65
21 23 26 28 30 33 36 38 41 44 47 49 50 51 52 53 54 54 55 55 56 57 57 58 59 60 61 61 62 62 62 63 63 64 64 65 66 66 67 67 67 68 68 69
21 24 27 32 36 39 42 44 47 50 52 52 52 51 51 52 53 54 54 56 58 59 59 60 61 62 63 63 64 64 65 65 66 66 67 67 68 68 68 69 69 70 70 71
28 32 35 38 41 45 49 52 54 54 54 54 54 54 54 54 54 55 56 56 57 57 58 60 61 62 62 63 63 63 63 63 63 64 64 64 64 64 64 65 65 65 65 65
33 36 39 42 46 48 51 52 53 55 56 56 57 58 58 58 58 57 56 55 55 55 54 53 53 53 53 53 53 53 53 53 53 52 52 52 52 52 52 52 53 53 53 53
36 39 43 46 48 50 52 53 53 55 58 60 59 56 55 52 50 48 47 46 45 44 44 44 44 44 44 45 45 45 45 44 44 43 43 42 42 42 43 43 43 43 43 44
38 42 44 46 49 51 52 53 56 57 54 49 46 42 41 40 39 38 38 37 36 36 36 36 37 37 38 37 37 37 37 37 37 38 38 38 38 37 37 36 35 35 34 33

GFSNGP_500_spd_102.txt.gz
Wind_Speed
12 15 18 14 15 15 15 12 11 18 15 16 11 10 12 15 15 14 12 15 17 22 27 30 31 29 28 28 31 34 39 42 45 47 48 48 43 35 33 32 32 31 33 34
19 20 14 19 22 18 15 20 23 14 12 19 14 11 12 13 14 15 14 14 15 17 21 27 27 28 28 33 33 36 37 44 48 50 49 47 45 38 37 36 33 33 35 35
21 22 16 15 8 10 11 11 13 17 17 15 12 12 13 12 11 10 12 16 13 14 17 24 22 24 35 35 38 39 40 46 51 53 52 51 48 43 40 41 39 38 37 39
14 14 15 16 17 16 13 14 16 15 14 17 14 13 13 12 11 11 10 14 11 12 12 15 17 21 36 36 36 38 41 47 54 56 57 56 52 47 45 47 45 43 41 40
16 13 9 9 13 16 12 12 14 13 14 16 13 13 15 14 15 15 13 12 12 12 12 14 13 15 15 38 39 35 39 47 52 55 57 58 55 51 51 51 51 48 44 43
15 9 12 7 10 10 10 11 13 14 14 14 12 13 15 16 17 18 16 14 16 16 15 15 17 13 15 15 33 44 42 43 48 51 56 54 55 57 57 58 53 54 52 49
2 1 7 10 12 15 16 17 15 14 14 15 15 15 16 18 18 18 16 15 15 15 13 13 15 18 16 15 18 26 45 42 45 45 49 51 54 62 70 60 56 57 54 54
7 5 6 9 13 14 16 17 19 21 20 18 17 18 18 19 19 19 20 17 20 19 17 14 16 19 22 23 19 14 18 40 48 49 51 59 60 62 74 71 57 71 82 63
7 8 9 11 13 15 17 17 18 19 19 19 20 20 20 21 21 22 23 24 23 23 24 26 27 27 26 25 29 28 23 19 25 42 58 61 56 59 66 64 61 56 59 47
13 15 15 13 15 14 16 18 19 20 20 21 21 21 22 22 23 24 25 27 29 29 31 31 30 29 28 26 24 24 24 26 24 20 22 22 42 54 55 59 61 58 62 60
15 16 16 16 16 17 17 18 19 20 20 20 21 20 20 20 21 22 24 26 28 27 28 28 29 28 28 26 24 21 23 24 26 27 27 25 25 22 23 21 21 24 35 39
15 16 17 18 17 18 18 17 19 19 19 19 18 18 18 19 20 21 21 20 22 24 25 27 30 31 30 30 30 28 28 27 27 26 27 28 29 29 30 31 31 33 33 30
16 18 18 17 17 19 20 19 19 21 21 21 22 22 23 24 24 24 25 26 25 27 26 22 21 26 38 41 43 41 39 38 37 33 31 31 29 31 30 29 31 31 33 32
15 17 17 17 17 17 18 21 22 23 24 24 24 23 22 23 23 24 25 26 28 29 31 32 29 27 27 30 33 36 35 35 35 36 36 35 35 36 36 37 37 37 37 38
17 19 18 17 18 18 18 18 20 23 24 26 28 27 26 28 30 32 33 34 35 35 36 37 38 38 36 35 35 35 36 38 38 39 40 41 40 41 42 42 42 42 42 41
20 21 24 24 22 22 21 22 25 28 30 31 32 33 33 34 37 38 39 39 39 40 42 43 44 46 47 45 44 43 43 43 43 43 43 43 45 45 44 45 46 46 47 47
18 23 25 26 28 28 28 29 29 27 29 32 35 38 41 41 43 44 44 44 44 45 47 48 49 51 52 52 51 52 51 51 51 51 51 51 52 52 53 54 55 56 57 57
13 17 20 24 30 33 35 36 37 36 36 37 39 40 42 44 46 47 48 49 50 51 52 53 53 55 55 56 57 58 57 56 56 56 57 57 58 58 58 58 58 59 60 61
15 17 18 20 22 24 27 30 33 37 40 43 45 47 49 50 51 52 53 54 55 55 56 57 58 59 61 62 62 63 63 63 62 61 60 59 60 61 61 61 61 61 62 63
12 15 18 20 23 26 28 31 34 37 40 43 45 48 50 51 53 54 54 55 57 57 57 58 58 59 59 60 60 61 62 63 63 64 63 62 61 61 62 61 61 62 62 62
14 16 18 21 24 27 29 31 34 36 39 43 47 50 53 55 57 58 59 57 58 59 59 59 60 59 60 60 61 62 62 63 64 64 65 66 66 67 66 66 65 65 65 66
18 20 21 22 24 27 31 34 38 42 45 49 52 56 58 59 60 59 58 58 56 58 57 59 61 62 63 63 63 64 65 66 66 67 68 69 69 70 70 71 71 71 71 71
19 21 24 27 30 33 37 40 43 46 50 52 56 58 60 61 61 61 60 59 58 59 58 60 60 60 61 62 63 64 65 66 67 68 69 70 71 72 72 73 74 74 75 75
25 27 30 32 34 38 42 45 47 50 53 56 59 59 59 61 63 64 64 63 63 61 59 58 58 59 59 60 60 61 62 63 65 66 67 67 68 68 69 70 70 70 71 70
30 31 33 36 38 42 45 47 50 54 56 57 56 60 64 64 60 56 52 49 46 46 45 46 47 48 48 49 50 51 52 53 54 55 56 56 57 57 57 57 57 57 56 56
35 35 36 40 44 47 50 52 55 57 58 60 61 60 54 48 46 44 42 40 40 39 39 38 38 38 38 38 39 39 41 42 43 45 46 46 47 47 47 47 46 46 46 46
38 39 41 44 47 51 53 56 57 60 61 59 56 51 45 42 41 39 39 38 37 37 36 35 35 34 35 35 35 35 36 36 36 36 37 37 37 38 39 39 39 39 39 39

GFSNGP_500_spd_105.txt.gz
Wind_Speed
1 7 9 23 21 19 21 14 10 15 6 7 10 8 6 10 12 12 11 10 13 17 17 19 23 26 28 29 30 33 36 37 40 41 42 43 44 46 43 36 31 29 28 30
13 11 11 10 27 23 19 16 13 15 9 5 10 2 5 7 7 10 12 14 11 12 15 19 18 19 22 21 22 25 26 30 35 38 43 45 45 45 42 36 31 30 30 31
18 15 17 17 10 12 13 15 14 10 7 5 3 5 7 9 9 8 5 7 11 11 13 14 18 17 19 25 27 27 29 32 33 38 42 45 47 46 45 43 38 36 36 35
13 15 11 13 9 8 8 13 12 9 9 9 6 7 10 11 10 6 5 7 8 9 10 12 14 17 16 23 22 35 35 35 40 40 43 46 49 49 49 45 45 43 42 39
16 15 9 10 12 9 9 9 11 12 15 14 11 12 14 13 12 11 10 10 10 10 9 9 8 10 11 16 18 28 39 31 37 42 42 46 50 53 53 50 50 46 47 44
13 12 7 4 6 7 10 11 10 9 12 13 13 14 15 14 13 14 13 13 11 12 12 12 11 11 11 12 17 16 28 38 36 37 39 45 58 48 55 54 53 49 50 51
9 7 8 7 6 5 7 8 9 10 14 14 15 16 15 16 15 15 15 15 14 13 12 12 10 8 14 15 17 17 10 23 49 38 36 45 50 55 62 53 52 53 55 56
4 3 3 2 7 11 12 14 15 16 17 18 17 16 18 18 18 18 18 17 16 15 16 18 19 20 21 21 19 19 19 19 10 24 53 40 45 48 49 48 50 53 53 57
6 5 3 5 7 9 13 16 17 16 17 17 17 17 19 20 20 20 20 21 21 22 21 23 24 27 26 24 23 21 17 19 28 17 15 18 34 53 41 57 56 58 56 62
11 11 10 11 11 11 14 17 18 19 19 18 18 19 18 19 20 20 21 22 24 24 24 24 26 29 30 28 27 25 20 19 18 22 30 24 18 21 34 54 50 47 57 58
14 13 12 14 14 14 16 17 18 19 18 17 17 18 18 18 18 18 18 18 19 21 21 22 23 25 28 28 27 28 27 26 24 21 21 25 32 34 28 25 22 29 42 47
15 14 14 16 16 16 16 17 17 17 18 18 17 18 19 17 17 18 19 19 19 20 21 21 22 24 25 26 29 32 33 33 33 30 28 28 29 30 32 35 35 37 34 28
17 16 17 16 16 17 18 18 19 18 18 19 20 21 21 22 23 23 24 24 24 24 25 24 25 25 24 26 27 28 30 37 39 39 37 36 36 36 34 36 35 35 36 38
18 17 16 16 16 16 17 17 17 18 20 21 23 23 23 24 25 26 27 27 28 29 31 32 33 34 34 33 32 33 33 32 32 35 38 39 39 38 39 39 38 37 37 37
18 17 17 15 16 15 16 17 18 19 20 21 23 25 27 28 29 31 32 33 34 36 37 38 39 40 40 41 41 40 39 40 40 39 39 39 38 41 43 44 43 42 42 42
17 17 18 18 21 21 20 22 23 25 27 28 30 29 30 33 35 37 39 40 41 42 43 45 45 45 45 45 45 46 46 45 46 46 45 45 44 45 46 46 46 46 46 47
11 14 17 19 21 23 25 28 30 31 32 34 35 37 38 39 41 42 43 44 46 47 49 50 49 50 51 51 51 51 51 51 50 50 50 50 51 50 50 50 50 51 51 53
8 10 13 15 17 20 22 24 26 30 32 33 34 36 40 41 43 46 49 52 54 55 56 57 57 57 57 58 58 59 58 58 58 57 57 58 57 56 56 56 57 56 56 56
12 12 11 12 14 15 18 21 24 27 30 33 35 38 40 42 44 46 49 52 54 56 57 58 59 60 60 60 60 61 62 61 61 60 60 60 60 60 61 63 61 60 60 60
8 9 11 14 16 19 21 23 25 28 31 33 36 39 42 45 48 51 54 58 60 62 63 64 64 62 63 62 62 62 62 63 63 63 63 62 61 61 61 61 62 62 63 63
11 13 14 16 19 21 23 25 28 32 35 39 42 45 48 51 53 55 58 61 65 66 65 66 66 65 63 61 62 63 64 64 64 64 65 65 64 64 64 63 63 63 64 64
14 16 17 20 22 25 28 31 34 38 41 44 46 49 51 55 59 62 66 65 66 65 65 66 65 65 64 63 63 63 64 64 65 65 66 66 67 67 67 67 66 66 67 67
16 19 23 26 29 32 34 37 39 42 45 48 51 54 58 61 62 63 65 68 69 68 66 64 61 59 59 58 59 60 61 63 63 64 64 64 65 66 66 67 67 67 67 67
22 26 29 31 34 36 39 42 44 47 50 53 55 59 62 64 65 65 65 63 59 54 50 47 46 44 44 44 45 47 49 51 55 56 58 60 61 62 63 64 64 64 65 64
28 32 34 37 39 40 41 43 46 48 52 55 58 60 61 63 64 62 58 53 48 45 42 41 41 40 39 39 39 39 39 40 41 43 45 46 48 50 51 52 53 53 53 53
32 35 39 41 41 42 44 47 51 55 57 60 64 63 63 61 56 52 47 44 43 42 40 39 39 39 38 36 36 35 35 35 36 37 38 39 40 41 42 43 44 45 45 45
38 41 43 43 42 44 46 50 55 57 60 63 63 63 62 56 49 44 42 41 41 40 39 39 38 37 36 36 35 35 34 34 34 34 34 35 35 35 36 37 38 38 38 39

GFSNGP_500_spd_108.txt.gz
Wind_Speed
6 6 5 6 10 4 4 18 14 12 4 15 18 16 14 13 13 13 12 11 11 14 18 19 20 23 29 33 35 36 36 38 41 42 42 41 43 42 42 44 46 43 42 38
3 7 3 5 4 3 7 20 21 15 14 17 12 8 7 5 6 7 8 10 13 15 16 16 16 17 20 24 29 32 35 37 37 40 38 39 40 42 42 43 44 44 39 37
17 17 16 18 20 11 17 13 7 10 8 9 9 9 4 3 3 4 6 5 6 7 9 13 15 14 14 17 22 26 31 32 31 29 34 38 38 35 40 37 41 44 40 39
16 18 14 14 8 6 11 6 2 2 2 0 1 6 4 2 3 3 5 5 7 7 7 8 10 11 12 13 15 19 29 30 29 32 35 35 39 45 43 48 46 46 46 46
13 15 13 12 9 8 8 6 5 6 6 6 8 8 4 7 8 8 8 8 9 12 12 9 8 7 7 9 12 15 21 28 32 36 35 37 42 43 41 50 51 48 52 48
17 19 16 14 10 9 7 5 5 6 6 7 9 8 9 11 12 12 11 13 14 13 13 12 9 7 9 8 10 9 15 23 25 37 39 38 43 42 43 47 47 53 62 53
15 14 11 10 7 4 5 6 5 5 6 8 9 10 11 12 14 14 15 16 17 17 16 15 14 14 13 13 14 13 10 10 16 21 35 41 45 50 55 49 49 47 43 57
15 13 8 4 3 5 6 7 8 11 13 14 15 16 16 16 17 18 19 19 19 19 19 19 18 19 19 19 18 18 18 17 13 14 16 32 34 33 48 48 50 58 58 55
11 9 8 6 2 2 4 8 10 13 14 15 16 17 18 20 21 22 22 22 23 23 23 24 24 24 24 22 21 21 23 22 19 18 19 23 18 14 35 44 38 44 48 51
13 12 9 7 6 6 6 9 11 14 16 18 19 19 19 20 22 22 23 23 24 24 26 25 24 24 24 25 24 23 25 25 23 21 21 22 23 27 25 20 21 40 50 51
17 15 13 11 9 8 10 11 14 16 17 18 20 20 21 21 21 22 23 23 22 22 22 21 20 19 19 20 22 22 24 27 29 29 27 27 27 25 23 28 30 31 29 25
19 18 15 13 10 10 11 13 16 17 18 18 19 20 19 20 20 20 21 22 23 23 23 24 23 23 23 24 24 24 25 26 28 30 34 36 35 34 34 33 30 31 33 34
21 21 19 18 15 15 16 16 16 18 20 21 20 19 19 20 21 22 24 24 24 25 26 27 27 28 29 30 30 31 31 32 33 33 34 35 38 40 41 40 40 40 39 37
20 20 20 19 19 18 16 18 18 16 17 18 18 19 21 22 22 24 25 28 29 30 32 32 34 35 36 37 38 38 38 39 39 38 39 39 38 39 38 37 38 41 42 42
19 18 17 19 19 18 17 18 19 20 18 20 22 23 25 27 28 29 30 32 33 34 35 37 38 40 41 41 42 43 44 44 43 43 44 44 45 45 44 44 43 42 41 41
16 18 19 20 20 21 22 23 23 24 25 27 29 31 32 33 34 36 38 39 40 42 43 43 43 44 45 46 47 48 48 49 49 48 47 47 47 48 49 48 47 47 47 46
8 10 13 17 19 21 23 23 24 24 25 26 27 30 30 30 31 32 35 37 39 41 43 45 47 48 51 53 55 55 56 57 57 57 55 54 54 54 53 53 53 52 52 52
3 6 9 12 15 16 17 18 19 19 20 22 25 28 31 33 35 37 39 41 43 45 48 50 52 53 55 57 58 59 60 61 61 61 61 61 61 60 59 59 58 58 58 58
10 12 13 14 14 15 17 18 20 22 24 27 29 31 34 37 40 43 46 48 50 52 55 56 58 59 60 62 65 67 68 68 66 64 64 64 63 63 62 62 61 62 62 62
11 10 10 12 14 17 19 21 24 26 28 31 34 38 41 44 47 50 51 53 54 55 59 63 64 66 68 69 69 69 67 66 65 65 63 63 64 64 64 64 63 62 62 63
7 9 12 15 17 20 23 26 29 32 35 39 42 45 47 49 52 54 56 57 60 64 67 70 71 72 72 72 71 71 71 69 68 66 65 63 63 64 64 63 63 63 63 63
11 13 16 19 22 26 29 32 35 38 41 44 46 49 51 53 56 58 60 64 68 70 71 71 72 71 70 66 63 61 59 58 58 59 61 61 62 63 64 64 64 63 62 62
13 16 19 23 27 31 33 36 39 42 44 46 48 51 53 56 60 61 65 69 68 68 70 68 65 60 54 50 48 47 47 47 48 48 49 51 53 56 58 59 61 62 61 61
18 22 25 29 32 36 38 40 42 43 45 47 49 52 56 59 61 66 67 66 67 65 60 55 50 46 44 43 43 42 41 41 42 42 43 43 43 44 45 47 48 50 52 53
23 27 30 34 36 38 41 42 43 45 46 49 52 57 60 62 65 64 65 65 61 56 51 46 44 42 42 41 41 41 40 40 39 39 38 37 37 38 38 39 40 40 42 43
28 32 35 37 40 42 44 45 46 49 52 53 57 60 62 64 64 64 61 56 51 48 45 43 42 42 41 40 39 39 39 38 37 37 36 36 36 36 37 37 37 37 37 38
32 36 39 42 45 47 48 49 50 53 54 59 62 64 65 66 66 61 54 49 46 45 43 42 41 40 39 38 37 36 36 36 36 36 36 35 34 34 34 34 34 34 34 34

GFSNGP_500_spd_111.txt.gz
Wind_Speed
10 10 3 6 6 3 11 15 15 16 14 12 10 11 13 16 17 16 10 6 6 7 8 11 17 22 27 30 33 41 38 38 36 37 37 39 41 48 46 41 41 45 45 42
2 3 5 2 1 7 21 12 16 18 18 19 15 14 10 10 9 7 3 1 3 7 9 11 12 14 18 21 27 32 35 37 37 37 38 38 38 40 40 38 39 46 48 44
15 8 18 19 23 22 19 17 18 15 13 15 14 11 8 6 5 6 6 6 3 3 4 7 11 12 13 15 20 26 30 33 36 37 38 38 36 36 37 35 43 44 46 39
16 21 14 14 15 11 4 3 7 8 10 9 7 8 5 4 4 4 4 4 4 3 3 5 7 9 10 12 13 14 22 29 34 36 36 37 38 39 38 39 39 54 60 44
8 17 16 9 8 7 5 2 1 3 3 2 5 6 8 8 4 4 6 8 8 8 8 9 8 10 11 12 14 15 16 18 24 32 35 36 36 42 33 33 40 38 37 42
10 16 14 11 5 7 4 4 1 3 3 4 4 4 6 9 11 10 10 10 12 12 13 12 11 12 14 12 11 11 14 16 18 23 28 36 36 37 35 38 43 51 52 49
20 16 15 13 8 5 5 5 6 6 5 5 5 6 8 9 9 10 11 12 14 15 16 15 15 17 19 19 20 19 16 15 15 17 21 31 33 38 44 43 45 49 55 52
23 23 15 9 8 9 6 5 8 9 9 11 10 10 10 11 13 14 15 17 19 20 20 20 20 21 22 23 22 21 22 21 20 19 18 21 22 25 30 39 47 47 47 51
21 17 15 12 8 6 6 7 9 10 10 10 10 12 14 16 17 19 20 20 21 22 23 24 24 26 28 28 26 26 24 25 25 26 25 25 22 23 21 22 33 41 43 56
15 15 14 13 9 8 7 5 7 9 11 12 13 15 17 19 20 21 22 23 23 24 25 27 28 28 29 29 29 29 28 28 28 28 28 27 28 27 27 26 28 29 25 24
14 14 14 13 12 11 11 10 10 11 13 14 16 18 20 22 23 24 25 25 26 26 27 28 28 28 29 28 28 29 29 30 29 30 31 30 30 29 31 32 33 32 32 34
13 14 16 16 15 14 12 10 9 11 12 15 17 20 21 23 25 26 27 28 28 29 31 31 32 32 32 32 32 32 32 33 33 34 33 33 33 33 33 34 36 39 40 40
13 16 18 18 17 17 16 16 17 17 17 18 20 21 23 25 27 28 28 29 30 31 32 33 33 34 35 36 36 36 37 38 38 39 39 38 39 39 39 39 39 40 40 43
16 15 16 18 19 21 21 21 21 21 22 22 23 23 23 23 25 27 29 30 31 32 34 36 37 38 39 41 42 42 43 43 43 43 44 44 44 43 44 44 44 44 45 44
18 18 19 20 19 19 21 22 24 24 24 24 24 25 25 27 29 30 32 33 35 36 38 39 40 41 42 44 45 45 46 46 47 48 48 49 49 50 51 50 50 50 50 50
17 19 19 20 20 20 21 23 24 25 26 28 28 29 30 31 32 32 33 33 33 34 35 36 37 39 41 42 44 45 47 48 49 51 53 54 55 56 56 55 54 54 55 54
11 13 14 16 17 19 21 23 24 24 25 26 26 27 28 28 30 32 34 35 36 38 40 42 44 46 47 49 50 51 52 53 54 55 57 58 59 60 61 61 62 62 62 61
2 4 7 9 12 13 15 16 17 18 19 21 24 27 29 32 34 36 39 41 44 47 50 52 54 55 56 58 59 59 60 61 63 63 63 63 64 65 66 67 67 67 66 65
7 8 10 11 12 13 14 16 18 20 22 26 29 32 35 39 42 44 47 50 53 55 57 59 59 60 61 62 64 66 68 69 70 70 71 72 73 72 71 71 70 69 68 67
9 9 9 10 11 13 16 18 21 24 28 31 34 38 41 45 47 50 52 54 56 58 61 62 64 65 67 70 72 74 75 75 75 75 74 73 72 71 70 69 68 66 65 65
4 5 7 9 13 16 20 23 27 30 34 37 39 42 45 48 51 53 55 57 59 60 63 67 68 71 74 75 73 73 73 72 70 68 66 64 61 60 60 62 63 63 64 64
5 8 11 14 18 22 25 29 32 35 38 40 43 45 47 49 51 53 56 59 62 67 69 71 73 72 70 70 69 66 62 59 55 52 51 50 49 49 49 51 53 55 59 62
9 13 17 20 24 27 31 34 36 38 40 43 44 45 48 51 55 58 61 66 67 69 70 69 69 68 64 59 55 52 49 47 46 45 45 44 44 44 43 43 44 45 47 49
14 18 21 24 29 32 35 37 39 41 43 45 48 49 53 54 57 62 63 66 66 67 70 68 63 57 52 49 47 45 43 43 43 43 43 42 41 41 40 40 39 39 39 39
18 21 24 28 32 35 39 41 45 46 49 50 51 55 55 59 61 64 65 65 69 69 64 58 53 50 47 45 44 43 42 41 41 40 40 40 39 39 39 38 36 36 35 35
21 24 28 32 37 42 47 51 52 54 54 53 55 56 59 62 65 65 66 68 64 57 52 50 49 47 46 45 44 42 41 40 39 38 37 37 36 37 37 36 36 35 34 34
24 29 34 38 42 47 51 55 58 58 57 58 60 63 65 66 67 69 68 62 55 50 49 47 45 44 43 42 42 41 40 39 38 37 37 37 36 35 35 35 35 34 33 32

GFSNGP_500_spd_114.txt.gz
Wind_Speed
9 10 10 8 5 5 8 9 10 13 10 11 12 15 13 14 16 18 17 23 24 6 4 4 4 9 15 18 21 25 32 37 42 45 45 42 39 44 43 47 49 52 54 53
6 8 10 2 3 4 4 16 16 16 14 16 13 13 11 9 14 14 16 13 9 7 5 5 6 8 15 19 22 25 29 33 35 38 41 37 39 39 39 37 37 40 46 51
5 6 11 5 9 13 13 12 12 11 11 15 11 8 8 6 8 9 9 8 9 6 4 4 6 9 12 15 16 21 24 28 32 35 37 37 38 36 37 38 38 37 38 38
13 15 15 21 18 11 7 5 6 7 9 6 7 7 6 4 4 5 6 5 4 5 4 3 2 4 5 6 9 11 14 17 21 27 32 35 37 38 39 39 38 34 36 38
10 12 13 14 7 3 0 2 2 2 2 2 1 2 3 3 4 3 2 1 3 4 5 4 5 7 8 10 12 12 12 13 13 17 20 28 33 35 37 36 39 42 39 40
18 18 15 14 10 9 7 6 5 3 3 5 4 4 6 9 8 8 7 6 7 9 10 9 10 12 12 13 14 14 15 15 16 17 18 18 22 26 32 35 38 38 37 37
18 20 17 17 13 10 8 8 7 6 6 6 6 7 8 9 9 11 10 9 11 12 13 13 14 16 17 17 18 20 21 24 24 23 22 21 21 22 25 30 36 42 42 42
16 21 21 18 16 10 10 9 8 7 8 7 8 10 10 11 11 12 12 14 15 17 18 19 20 21 22 24 24 24 24 25 26 27 28 27 26 24 25 26 30 33 40 45
21 20 23 19 12 10 11 13 12 10 10 10 10 11 12 12 12 12 13 14 16 18 20 21 22 23 25 26 27 27 28 28 28 29 29 30 31 30 29 28 25 27 32 34
19 18 18 16 13 12 10 10 9 8 8 8 10 11 13 14 14 15 16 17 20 22 23 24 26 28 29 29 30 31 31 32 32 32 33 33 32 32 32 31 31 33 32 31
13 12 10 11 12 11 10 9 9 9 9 9 10 13 15 17 19 20 21 23 24 26 27 29 30 31 33 33 34 34 34 35 36 36 36 37 37 36 36 37 36 36 36 37
8 8 7 8 10 11 11 11 11 8 8 11 12 14 16 19 21 22 23 26 28 29 30 32 33 34 35 35 36 37 38 39 39 40 40 40 41 41 41 41 41 41 41 41
6 5 5 8 10 10 11 12 13 14 15 16 18 20 22 23 25 26 28 30 30 32 33 34 36 37 38 39 40 41 41 42 43 44 44 45 46 46 47 47 46 46 46 46
8 7 7 9 9 11 13 16 18 19 22 24 25 26 27 28 28 29 30 31 32 33 35 36 38 40 42 43 44 45 46 47 48 49 49 50 50 51 51 52 52 52 52 51
10 11 10 11 11 14 17 19 21 24 26 27 28 29 30 30 31 32 33 34 34 36 37 38 38 40 41 42 42 44 45 47 48 48 49 50 51 52 53 53 53 54 54 54
10 12 12 13 15 18 20 23 25 27 29 30 31 32 33 33 33 34 33 32 32 34 36 38 39 41 43 44 46 48 50 51 53 54 55 55 55 56 56 55 55 56 56 56
10 10 11 13 15 16 18 20 22 24 25 26 27 27 28 28 29 31 33 35 37 40 42 46 48 51 53 55 57 59 60 62 63 64 65 66 66 66 67 67 67 67 66 65
4 5 6 8 10 12 13 14 16 17 18 20 22 25 27 30 33 36 39 42 45 47 50 52 54 56 58 60 61 63 64 64 65 66 67 68 69 70 71 72 73 73 73 72
4 5 5 6 6 7 9 11 14 17 20 24 27 31 34 38 40 42 45 48 50 52 54 56 58 60 62 64 66 67 69 71 73 74 75 76 77 77 77 77 76 76 77 77
7 7 6 6 6 8 11 15 19 23 27 30 34 37 40 42 44 47 49 51 52 54 56 58 60 64 68 71 73 76 77 78 80 80 79 77 75 74 73 72 71 71 71 71
4 4 4 5 9 12 16 21 25 29 32 35 38 40 42 45 46 46 48 51 54 58 59 62 66 69 72 74 74 74 73 72 72 71 68 64 62 59 58 57 56 56 56 57
4 3 6 10 15 18 21 25 29 32 34 37 40 42 44 46 48 50 54 57 59 61 65 68 70 71 71 72 73 72 68 63 58 54 51 49 48 47 46 46 46 47 47 48
4 8 12 15 18 21 25 27 31 35 39 42 43 46 47 49 52 54 57 60 63 67 69 69 70 72 72 68 62 56 52 49 47 46 45 44 43 42 42 42 42 43 43 43
10 13 16 19 21 24 28 32 36 40 46 50 52 52 53 54 57 61 63 67 69 69 71 72 69 64 58 53 51 49 47 46 44 43 42 41 41 41 40 40 39 39 39 39
14 17 19 22 25 28 33 38 42 45 50 56 58 58 59 60 62 65 69 70 72 73 69 64 57 54 51 49 46 44 42 41 40 40 39 39 39 39 38 37 36 35 35 36
18 21 23 26 30 35 40 44 48 51 55 61 64 63 63 64 67 70 72 74 72 65 57 53 50 47 44 42 40 39 38 38 37 37 36 37 37 36 36 36 35 34 33 33
22 25 27 32 37 41 45 49 53 57 60 65 68 66 67 69 71 74 75 70 62 55 51 46 43 42 42 42 41 41 41 41 39 38 37 36 36 36 35 34 34 34 33 32

GFSNGP_500_spd_117.txt.gz
Wind_Speed
11 13 9 12 9 11 6 4 3 8 9 6 9 13 13 18 16 15 15 16 15 8 9 10 31 31 34 38 37 35 39 42 44 47 46 45 49 49 48 48 49 52 53 54
7 14 14 9 1 1 2 3 6 8 7 6 7 9 13 10 12 14 15 15 14 12 10 7 9 6 14 13 16 23 26 28 34 47 50 49 47 46 48 49 48 48 48 48
6 10 9 7 11 10 11 10 13 11 9 9 8 6 7 7 5 7 11 14 14 12 9 7 5 2 3 6 12 14 16 20 25 30 35 38 40 43 46 44 42 43 44 43
9 14 11 11 13 10 10 8 8 8 6 7 6 4 4 5 3 3 5 6 9 5 5 6 6 6 4 4 6 9 12 14 17 20 23 29 35 39 42 43 43 43 42 43
19 19 16 16 9 6 6 5 3 3 1 1 1 1 1 2 3 3 2 2 1 1 2 2 3 3 4 6 7 7 9 9 10 11 11 14 18 24 30 35 39 42 44 45
27 22 19 16 15 12 8 7 7 6 4 4 4 5 5 6 5 6 4 4 4 4 5 7 8 8 9 11 13 14 14 16 18 18 16 16 16 17 20 23 27 31 35 40
22 25 21 20 19 14 9 8 9 9 8 7 6 6 7 6 7 7 7 6 6 6 7 8 9 11 13 15 16 17 18 20 22 22 22 22 22 22 22 21 22 25 30 36
20 25 25 19 18 15 13 10 9 11 10 9 9 9 9 9 10 10 11 12 13 13 14 15 16 16 18 19 19 21 22 23 25 25 27 27 26 26 26 26 26 26 27 29
17 22 26 26 21 19 18 14 12 11 11 12 11 10 9 9 10 11 13 14 15 16 17 18 18 18 20 22 23 25 25 26 27 28 29 30 30 30 30 30 30 30 30 31
12 21 22 27 25 21 15 15 14 13 12 12 11 10 9 10 12 13 14 16 18 20 21 22 23 23 25 26 28 30 31 32 33 33 33 34 33 33 34 35 36 36 35 34
11 16 20 22 22 20 14 12 12 11 10 10 9 8 8 10 12 15 17 19 21 23 25 27 28 29 30 30 33 35 36 36 37 38 39 40 40 39 40 40 40 41 42 42
9 9 16 18 18 15 12 12 10 11 12 10 10 12 12 15 18 21 22 25 27 30 31 32 33 34 35 35 37 38 38 39 40 40 40 41 42 43 44 45 46 46 46 46
6 7 10 14 14 12 11 11 11 14 14 13 13 15 19 22 24 26 28 31 33 34 36 37 38 38 38 39 40 40 42 43 43 44 45 46 46 47 47 48 49 50 51 52
8 6 6 7 9 11 11 11 12 12 13 15 17 21 25 28 31 34 35 36 36 37 38 38 39 40 41 42 42 42 42 42 43 44 44 45 46 47 47 48 50 51 52 53
8 6 5 5 5 6 7 8 10 12 15 19 23 26 29 32 33 34 35 35 35 36 36 36 36 37 38 40 42 43 45 47 48 50 52 54 55 55 56 55 55 55 55 54
8 6 6 6 7 8 9 10 13 17 20 24 26 28 30 30 29 28 28 29 31 34 36 39 41 44 47 50 52 54 56 57 58 60 61 63 64 65 66 67 67 66 66 66
9 8 8 8 8 8 9 11 14 17 20 21 21 22 22 24 27 30 32 35 39 41 44 46 48 50 52 54 55 57 58 59 61 62 64 65 67 68 70 70 71 72 72 72
7 6 6 6 6 7 9 10 12 12 13 15 19 22 26 30 34 37 39 42 43 45 47 49 51 53 54 57 59 61 62 64 66 68 70 72 74 75 76 77 77 78 78 78
5 4 4 4 5 5 5 6 8 11 15 20 24 29 32 35 38 40 42 44 46 48 49 51 54 57 60 62 64 65 68 71 74 76 78 80 81 81 82 82 82 82 82 82
5 5 5 5 4 4 6 9 12 17 21 25 28 32 35 39 42 44 46 48 49 50 52 55 59 61 63 65 69 72 74 76 77 78 79 79 79 78 77 75 73 72 71 70
6 6 5 5 4 6 9 12 16 19 23 27 31 35 38 42 45 48 49 51 51 53 58 61 62 67 70 73 74 76 77 77 75 73 69 65 61 58 56 54 53 53 53 53
5 5 5 5 7 9 12 15 19 23 27 32 36 40 44 49 53 56 56 54 57 61 63 66 71 74 76 77 76 73 69 64 60 56 53 52 50 49 48 47 47 47 46 46
6 5 5 8 10 13 16 20 24 28 33 37 42 45 49 54 58 61 60 61 64 66 71 74 77 78 75 71 65 59 55 53 51 48 47 46 45 45 45 45 45 44 44 43
7 7 9 12 15 18 22 25 30 35 39 44 48 51 55 58 65 66 65 68 70 73 76 78 75 69 63 58 53 50 46 43 42 41 40 40 39 40 40 41 41 41 41 40
10 11 14 17 20 23 27 32 36 40 45 51 53 57 59 63 68 69 71 73 75 78 77 71 64 58 53 49 46 44 43 43 42 41 40 40 39 39 38 38 38 39 38 38
15 16 18 22 25 28 32 37 41 45 51 56 59 62 64 70 72 73 75 77 80 75 68 60 54 50 47 46 45 46 46 46 45 45 43 42 42 41 40 39 38 37 37 36
19 20 23 26 29 33 37 41 46 50 55 59 63 66 70 74 75 76 79 80 74 66 58 52 49 48 48 49 50 50 49 49 48 48 48 47 46 44 42 42 41 39 37 36

GFSNGP_500_spd_120.txt.gz
Wind_Speed
15 15 14 16 16 11 7 9 5 6 8 4 5 9 15 19 22 18 15 11 12 6 12 21 24 33 36 41 42 43 43 44 44 45 45 45 43 45 49 51 49 51 51 53
15 14 13 13 10 6 5 6 4 6 7 4 1 4 8 15 16 16 14 13 15 16 12 9 15 23 25 34 35 36 37 38 31 35 42 47 49 49 47 50 51 51 54 55
14 13 10 6 7 10 7 6 6 8 11 10 5 4 6 10 13 14 13 13 15 17 14 13 13 12 13 27 34 34 36 36 31 30 37 46 48 52 55 55 54 54 54 59
17 15 14 11 14 13 13 10 11 11 10 11 7 2 2 3 5 6 10 11 12 13 12 11 10 10 9 9 10 11 12 16 15 19 21 24 29 34 40 48 52 54 53 54
20 20 22 18 17 15 14 13 12 9 9 7 6 4 3 3 4 5 6 7 5 4 4 5 6 5 4 1 2 4 5 6 10 11 12 14 14 18 24 30 37 43 47 51
27 25 28 26 21 19 20 17 15 13 12 11 8 5 5 5 3 3 4 2 4 5 4 3 3 4 6 7 8 9 11 12 16 17 18 19 19 19 19 19 21 26 31 37
30 28 31 28 23 21 20 18 16 14 12 10 9 9 8 7 6 6 6 6 5 5 6 6 8 9 10 11 13 15 17 18 20 21 21 21 21 23 24 25 25 26 25 26
28 28 30 31 25 26 24 23 19 16 15 14 12 11 10 10 10 10 9 9 9 9 9 10 11 13 14 14 16 18 19 21 23 25 26 26 27 27 27 28 29 29 30 31
26 27 25 26 28 27 27 24 19 15 15 13 12 12 12 12 12 12 12 12 12 13 13 14 16 17 18 19 21 22 24 25 26 28 29 30 30 31 32 32 32 32 32 32
19 19 19 21 28 30 27 25 21 17 17 15 14 13 13 13 12 11 10 11 12 13 15 16 18 21 23 25 27 30 32 32 33 35 35 37 38 38 39 39 40 40 40 39
12 15 17 23 26 30 31 22 16 16 16 14 13 13 12 11 10 10 13 15 17 19 21 23 26 29 30 32 33 35 38 40 41 43 42 42 43 42 43 44 44 46 46 47
10 10 16 19 18 19 20 19 16 15 14 14 13 12 12 12 14 16 18 21 24 26 29 32 34 36 38 40 41 43 44 45 46 46 47 47 47 45 46 47 48 49 49 50
9 11 13 17 18 19 19 16 15 15 14 13 13 13 13 15 18 21 25 28 31 34 38 40 42 44 45 46 46 45 45 45 45 45 45 46 46 46 46 46 48 48 50 52
12 11 11 15 17 18 18 17 16 14 12 12 14 15 16 19 23 27 32 35 39 41 42 41 40 39 38 38 37 38 40 42 43 45 47 49 50 52 53 54 54 54 54 55
15 13 12 11 12 14 15 14 13 12 12 12 12 14 18 23 27 30 33 33 30 29 30 33 36 39 42 44 46 48 49 51 53 55 56 58 59 60 61 62 63 63 63 64
16 16 16 14 12 12 10 10 10 11 9 10 13 16 19 22 22 23 25 28 31 35 39 41 44 46 47 49 50 51 53 55 56 57 59 60 62 64 65 66 67 67 68 69
17 16 14 12 11 11 11 11 10 8 9 10 11 13 15 18 22 26 31 35 38 41 43 45 47 49 50 51 53 55 57 59 61 63 65 66 68 69 71 73 74 75 75 76
16 15 14 13 13 12 10 9 7 7 8 9 11 15 19 23 28 32 35 38 41 44 46 49 51 52 53 54 56 59 62 64 66 68 70 71 73 75 77 79 80 82 83 85
11 11 10 9 8 8 7 7 7 7 8 10 14 18 23 27 31 35 39 41 44 48 52 55 55 55 56 59 62 64 67 70 73 76 78 80 80 80 81 81 81 82 82 82
11 10 10 10 9 9 8 7 6 7 10 14 19 23 28 32 36 40 44 47 51 55 60 60 59 60 63 66 69 73 77 80 80 80 78 76 73 70 67 65 63 62 60 59
9 10 9 8 7 6 6 6 7 10 15 19 24 28 32 37 42 46 50 52 55 60 64 63 65 67 71 75 80 82 80 77 73 69 64 60 57 54 52 51 50 50 49 49
8 8 8 7 7 7 8 9 12 16 20 24 28 33 38 43 48 51 54 56 60 65 67 69 72 75 80 83 80 76 70 65 60 56 53 50 47 45 44 43 42 42 42 42
8 8 8 8 8 9 11 14 18 21 25 29 34 39 43 50 53 57 60 62 67 69 72 75 78 83 81 75 69 63 58 53 50 48 46 45 44 44 43 43 42 41 41 40
8 9 10 10 11 14 16 20 23 27 31 35 39 43 49 54 58 63 64 68 71 74 77 81 82 77 70 63 58 53 50 49 48 48 48 48 47 47 46 45 44 43 42 40
12 13 13 15 17 19 22 25 28 32 36 40 44 48 54 59 64 67 69 73 75 78 82 81 74 66 60 55 52 52 52 53 53 52 51 50 49 48 47 47 46 46 44 43
15 17 19 20 22 25 28 30 33 36 41 44 49 53 59 64 68 70 73 75 78 82 79 72 64 58 55 55 56 56 55 54 53 53 53 52 52 51 50 49 48 47 46 45
16 18 21 24 27 30 32 35 38 41 45 49 53 58 63 68 70 73 75 78 82 78 71 64 58 57 57 57 57 56 56 56 57 57 57 56 56 55 54 53 52 51 49 47